     2.11           OBSERVATION DATA    G (GPS)             RINEX VERSION / TYPE
teqc 2010Oct21 OPUS Account 20111026 21:14:21UTC            PGM / RUN BY / DATE
B 1524                                                      MARKER NAME
1206                                                        MARKER NUMBER
CSMIDDLETON NGS                                             OBSERVER / AGENCY
4624K01647 TRIMBLE NETR5 4.41                               REC # / TYPE / VERS
12694052 TRM41249.00 NONE                                   ANT # / TYPE
  -754609.3693 -5524003.6908  3087635.9457                  APPROX POSITION XYZ
        2.0040        0.0000        0.0000                  ANTENNA: DELTA H/E/N
     1     1                                                WAVELENGTH FACT L1/2
     5    L1    L2    C1    P1    P2                        # / TYPES OF OBSERV
    15                                                      LEAP SECONDS
  2011     8    11    17    38   30.0000000     GPS         TIME OF FIRST OBS
                                                            END OF HEADER
 11  8 11 17 38 30.0000000  0  8G19G07G03G08G28G11G13G23
 110784228.07217  86325394.42356  21081538.125                    21081544.055
 110804471.22118  86341175.35717  21085390.148                    21085397.469
 117857149.83917  91836800.58754  22427478.531                    22427487.016
 119206011.63817  92887916.28555  22684172.672                    22684181.129
 123223983.08917  96018723.60454  23448744.984                    23448753.781
 122694647.26117  95606081.09453  23347977.336                    23347985.918
 108003064.47418  84158261.97956  20552300.234                    20552307.617
 115698767.33817  90154913.53455  22016743.789                    22016751.332
 11  8 11 17 39  0.0000000  0  8G19G07G03G08G28G11G13G23
 110814691.650 8  86349132.35246  21087334.836                    21087340.285
 110758318.653 8  86305212.393 7  21076607.352                    21076614.484
 117948458.937 7  91907950.58444  22444853.750                    22444862.121
 119133778.201 7  92831630.59945  22670427.281                    22670435.781
 123171706.088 7  95977988.43844  23438796.664                    23438805.141
 122617572.355 7  95546022.89244  23333310.688                    23333320.281
 108059523.493 8  84202256.03746  20563043.969                    20563051.297
 115797807.956 7  90232087.99145  22035590.727                    22035597.844
 11  8 11 17 39 30.0000000  0  8G19G07G03G08G28G11G13G23
 110845748.432 7  86373332.46346  21093245.414                    21093251.086
 110712329.479 8  86269376.693 7  21067856.570                    21067863.418
 118040107.030 7  91979364.66344  22462293.734                    22462301.926
 119061538.086 7  92775339.63245  22656680.523                    22656688.059
 123119638.398 7  95937416.29044  23428888.828                    23428897.270
 122540607.274 7  95486050.14144  23318664.844                    23318674.063
 108116516.736 8  84246666.31646  20573889.344                    20573897.047
 115897149.303 7  90309496.73545  22054494.992                    22054502.219
 11  8 11 17 40  0.0000000  0  8G19G07G03G08G28G11G13G23
 110877397.613 7  86397994.18046  21099267.398                    21099273.660
 110666505.502 8  86233669.707 7  21059136.320                    21059143.164
 118132091.314 7  92051040.72644  22479798.328                    22479806.586
 118989293.159 7  92719044.90745  22642932.625                    22642940.637
 123067780.259 7  95897007.39444  23419020.664                    23419028.637
 122463755.200 7  95426165.47244  23304040.375                    23304048.766
 108174042.910 8  84291491.86446  20584836.383                    20584843.449
 115996789.181 7  90387138.10345  22073456.188                    22073462.762
 11  8 11 17 40 30.0000000  0  8G19G07G03G08G28G11G13G23
 110909638.018 8  86423116.58846  21105403.016                    21105408.840
 110620848.838 8  86198093.098 7  21050447.906                    21050454.820
 118224409.027 7  92122976.60944  22497365.227                    22497374.250
 118917044.876 7  92662747.57444  22629183.453                    22629192.355
 123016131.379 7  95856761.59844  23409192.289                    23409200.637
 122387019.382 7  95366371.38743  23289438.000                    23289447.070
 108232100.328 8  84336731.37146  20595884.352                    20595891.742
 116096724.669 7  90465009.82445  22092473.414                    22092479.914
 11  8 11 17 41  0.0000000  0  8G19G07G03G08G28G11G13G23
 110942468.220 7  86448698.57746  21111650.266                    21111656.090
 110575360.630 8  86162647.748 7  21041791.875                    21041798.840
 118317057.152 6  92195169.95344  22514996.289                    22515004.773
 118844793.649 7  92606447.94844  22615435.195                    22615443.348
 122964690.657 7  95816677.98744  23399402.531                    23399412.137
 122310402.601 7  95306670.03743  23274858.477                    23274866.953
 108290686.504 8  84382382.88946  20607032.563                    20607040.527
 116196952.764 7  90543109.53845  22111545.883                    22111553.180
 11  8 11 17 41 30.0000000  0  9G19G24G07G03G08G28G11G13G23
 110975887.099 8  86474739.26446  21118009.563                    21118015.457
 130151698.78816 101416962.77853  24767044.805                    24767058.871
 110530042.944 8  86127335.265 7  21033168.266                    21033175.152
 118410032.960 7  92267618.60644  22532688.711                    22532696.883
 118772541.145 7  92550147.32944  22601685.758                    22601694.074
 122913458.427 7  95776756.86444  23389653.680                    23389662.594
 122233908.298 7  95247064.15744  23260301.984                    23260310.227
 108349800.456 8  84428445.67346  20618282.086                    20618289.609
 116297470.969 7  90621435.31645  22130673.727                    22130680.871
 11  8 11 17 42  0.0000000  0  9G19G24G07G03G08G28G11G13G23
 111009895.635 8  86501239.43646  21124481.336                    21124486.617
 130081207.920 6 101362034.90042  24753630.523                    24753645.043
 110484899.494 8  86092158.533 7  21024577.781                    21024584.750
 118503335.614 7  92340321.97144  22550443.461                    22550451.523
 118700290.606 7  92493848.23045  22587936.609                    22587945.039
 122862435.844 7  95736999.06744  23379944.367                    23379952.996
 122157541.587 7  95187557.63343  23245769.219                    23245777.875
 108409442.516 8  84474919.96146  20629631.672                    20629638.883
 116398278.670 7  90699986.66645  22149856.719                    22149864.043
 11  8 11 17 42 30.0000000  0  9G19G24G07G03G08G28G11G13G23
 111044489.894 8  86528195.99246  21131064.680                    21131070.023
 130010577.017 6 101306997.91743  24740190.906                    24740205.102
 110439929.139 8  86057116.693 7  21016020.320                    21016026.844
 118596959.725 6  92413275.81544  22568259.500                    22568267.461
 118628040.531 7  92437549.49945  22574187.930                    22574196.715
 122811620.112 7  95697402.44744  23370274.242                    23370283.398
 122081302.819 7  95128150.82443  23231261.609                    23231270.477
 108469608.027 8  84521802.13546  20641080.531                    20641088.305
 116499370.414 7  90778759.34545  22169094.063                    22169101.488
 11  8 11 17 43  0.0000000  0  9G19G24G07G03G08G28G11G13G23
 111079668.288 8  86555607.72946  21137758.586                    21137763.961
 129939808.44916 101251853.65852  24726723.273                    24726738.098
 110395134.175 8  86022211.523 7  21007495.766                    21007502.984
 118690902.582 6  92486478.04344  22586135.922                    22586144.504
 118555792.093 7  92381252.05344  22560439.930                    22560447.754
 122761010.453 7  95657966.41744  23360643.820                    23360653.133
 122005195.053 7  95068846.08344  23216778.844                    23216787.906
 108530295.192 8  84569090.79546  20652629.008                    20652636.680
 116600743.300 7  90857751.09845  22188385.016                    22188391.891
 11  8 11 17 43 30.0000000  0  9G19G24G07G03G08G28G11G13G23
 111115429.493 8  86583473.58946  21144563.602                    21144569.195
 129868904.559 6 101196603.91642  24713230.367                    24713245.055
 110350515.860 8  85987444.004 7  20999005.219                    20999012.336
 118785161.252 7  92559926.31444  22604073.648                    22604081.863
 118483546.392 7  92324956.73844  22546691.938                    22546699.777
 122710606.517 7  95618690.68844  23351052.727                    23351061.020
 121929221.222 7  95009645.72244  23202321.164                    23202330.660
 108591502.098 8  84616784.43946  20664276.414                    20664283.984
 116702394.635 7  90936959.79445  22207728.406                    22207736.012
 11  8 11 17 44  0.0000000  0  9G19G24G07G03G08G28G11G13G23
 111151772.122 8  86611792.49546  21151479.500                    21151485.254
 129797868.044 6 101141250.85243  24699713.258                    24699727.484
 110306075.997 8  85952815.542 7  20990548.266                    20990555.844
 118879732.704 6  92633618.30744  22622069.258                    22622078.406
 118411304.199 7  92268664.16144  22532944.789                    22532952.438
 122660407.853 7  95579574.90344  23341499.969                    23341508.184
 121853384.416 6  94950552.12744  23187890.258                    23187899.656
 108653226.903 8  84664881.65046  20676022.086                    20676029.746
 116804321.464 7  91016383.17645  22227125.320                    22227131.992
 11  8 11 17 44 30.0000000  0  8G19G07G03G08G28G11G13G23
 111188694.485 8  86640563.13646  21158505.523                    21158511.219
 110261815.885 8  85918327.151 7  20982126.258                    20982133.203
 118974613.980 6  92707551.71944  22640124.938                    22640133.492
 118339067.049 7  92212375.50345  22519198.102                    22519206.336
 122610413.689 7  95540618.47144  23331985.984                    23331994.375
 121777687.620 6  94891567.64144  23173485.492                    23173494.758
 108715467.651 8  84713380.88646  20687866.570                    20687873.934
 116906520.909 7  91096018.98345  22246572.250                    22246580.238
 11  8 11 17 45  0.0000000  0  9G10G19G07G03G08G28G11G13G23
 129991403.10516 101292063.20253  24736546.086                    24736557.227
 111226194.943 7  86669784.24546  21165641.359                    21165647.262
 110217737.133 8  85883980.103 7  20973738.445                    20973745.281
 119069801.938 6  92781724.10844  22658238.039                    22658247.086
 118266836.162 7  92156091.72844  22505453.242                    22505461.613
 122560623.569 7  95501820.99344  23322511.594                    23322520.227
 121702133.565 6  94832694.36344  23159107.281                    23159117.234
 108778222.240 8  84762280.52246  20699807.992                    20699815.539
 117008989.952 7  91175864.86945  22266072.164                    22266079.250
 11  8 11 17 45 30.0000000  0  9G10G19G07G03G08G28G11G13G23
 130045854.832 6 101334493.03743  24746907.508                    24746919.383
 111264272.022 8  86699454.64146  21172887.273                    21172892.863
 110173841.820 8  85849775.983 7  20965385.000                    20965392.113
 119165293.494 6  92856133.03044  22676410.281                    22676418.555
 118194612.721 7  92099813.75544  22491709.227                    22491717.504
 122511036.767 7  95463181.97044  23313075.305                    23313083.641
 121626725.524 6  94773934.87544  23144758.281                    23144767.988
 108841488.561 8  84811578.91446  20711847.352                    20711855.012
 117111725.567 7  91255918.47845  22285622.063                    22285629.570
 11  8 11 17 46  0.0000000  0 10G10G19G01G07G03G08G28G11G13G23
 130100475.717 6 101377054.64743  24757302.227                    24757313.313
 111302923.825 8  86729572.90446  21180242.844                    21180248.555
 129167777.11316 100650347.51816  24579838.211                    24579850.773
 110130131.447 8  85815715.968 7  20957067.531                    20957074.613
 119261086.073 6  92930776.52644  22694638.828                    22694647.363
 118122397.508 7  92043542.18145  22477967.469                    22477975.633
 122461652.582 7  95424700.82544  23303677.688                    23303686.152
 121551466.048 7  94715291.17444  23130437.172                    23130446.227
 108905264.563 8  84861274.45646  20723983.727                    20723991.176
 117214724.897 7  91336177.58045  22305222.008                    22305229.723
 11  8 11 17 46 30.0000000  0 10G10G19G01G07G03G08G28G11G13G23
 130155263.423 6 101419746.20643  24767728.836                    24767739.250
 111342149.699 8  86760138.47446  21187707.156                    21187712.980
 129124561.769 6 100616673.220 6  24571614.398                    24571627.258
 110086607.782 8  85781801.425 7  20948785.031                    20948792.035
 119357177.243 7  93005652.69044  22712925.008                    22712933.578
 118050192.196 7  91987278.33144  22464227.398                    22464235.254
 122412471.065 7  95386377.60544  23294318.688                    23294327.129
 121476358.738 7  94656766.03444  23116144.008                    23116153.703
 108969548.817 8  84911366.04046  20736216.461                    20736224.609
 117317985.537 7  91416640.31745  22324872.383                    22324879.449
 11  8 11 17 47  0.0000000  0 10G10G19G01G07G03G08G28G11G13G23
 130210214.822 6 101462565.38143  24778184.352                    24778196.211
 111381947.894 8  86791150.01546  21195280.430                    21195286.379
 129081629.980 6 100583219.856 6  24563444.984                    24563457.363
 110043272.555 8  85748033.720 7  20940538.602                    20940545.563
 119453563.751 7  93080758.95344  22731266.305                    22731274.977
 117977998.173 7  91931023.29145  22450489.242                    22450497.379
 122363491.472 7  95348211.71944  23284998.359                    23285006.684
 121401406.661 7  94598361.85644  23101881.297                    23101891.047
 109034339.060 8  84961851.89446  20748545.656                    20748553.125
 117421504.479 7  91497304.30045  22344571.258                    22344578.801
 11  8 11 17 47 30.0000000  0 10G10G19G01G07G03G08G28G11G13G23
 130265327.542 6 101505510.21743  24788672.836                    24788684.043
 111422317.010 8  86822606.42446  21202962.883                    21202968.512
 129038985.219 6 100549990.158 6  24555330.680                    24555342.520
 110000128.113 8  85714414.685 7  20932328.828                    20932335.496
 119550242.730 7  93156093.13344  22749663.992                    22749672.645
 117905817.433 7  91874778.60344  22436753.375                    22436761.484
 122314713.396 7  95310202.87144  23275716.305                    23275724.441
 121326613.115 7  94540081.21144  23087648.336                    23087658.113
 109099633.935 8  85012730.96846  20760971.320                    20760978.504
 117525279.448 7  91578167.78745  22364319.523                    22364326.824
 11  8 11 17 48  0.0000000  0 10G10G19G01G07G03G08G28G11G13G23
 130320598.181 6 101548578.11943  24799190.211                    24799203.051
 111463255.135 8  86854506.24346  21210753.000                    21210758.973
 128996629.001 6 100516985.291 6  24547269.430                    24547282.336
 109957175.444 8  85680945.075 7  20924154.625                    20924161.773
 119647211.357 7  93231653.02244  22768116.633                    22768125.027
 117833650.266 7  91818544.47945  22423020.422                    22423028.969
 122266135.917 7  95272350.33244  23266471.922                    23266479.988
 121251980.678 7  94481926.12444  23073446.500                    23073456.375
 109165430.519 8  85064000.99246  20773491.656                    20773499.285
 117629306.768 7  91659227.93545  22384114.563                    22384122.234
 11  8 11 17 48 30.0000000  0 11G10G06G19G01G07G03G08G28G11G13G23
 130376024.421 6 101591767.27443  24809738.188                    24809749.277
 130340625.47916 101564194.04253  24803005.586                    24803014.465
 111504760.682 8  86886848.21446  21218650.875                    21218657.227
 128954564.499 6 100484207.775 6  24539265.172                    24539278.547
 109914417.020 8  85647626.830 7  20916018.305                    20916025.590
 119744466.791 7  93307436.39344  22786623.164                    22786632.465
 117761498.148 7  91762322.08645  22409290.641                    22409298.328
 122217758.554 7  95234653.73444  23257265.633                    23257274.398
 121177512.729 6  94423899.22744  23059275.742                    23059285.238
 109231727.044 8  85115660.58246  20786107.352                    20786115.254
 117733583.845 7  91740482.67045  22403958.219                    22403965.941
 11  8 11 17 49  0.0000000  0 11G10G06G19G01G07G03G08G28G11G13G23
 130431603.277 6 101635075.31943  24820314.617                    24820326.617
 130441463.687 6 101642769.20743  24822193.789                    24822204.473
 111546831.986 8  86919631.05146  21226657.000                    21226662.563
 128912794.285 6 100451659.581 6  24531316.469                    24531329.887
 109871853.911 8  85614460.784 7  20907919.000                    20907925.813
 119842006.227 6  93383441.08544  22805184.414                    22805193.020
 117689362.420 7  91706112.43445  22395563.664                    22395571.645
 122169580.922 7  95197112.75344  23248097.820                    23248106.492
 121103212.383 7  94366002.93544  23045137.172                    23045146.020
 109298521.569 8  85167708.21146  20798818.242                    20798825.871
 117838107.742 7  91821929.74945  22423848.016                    22423856.063
 11  8 11 17 49 30.0000000  0 11G10G06G19G01G07G03G08G28G11G13G23
 130487331.941 6 101678500.09243  24830918.422                    24830930.781
 130542440.344 6 101721452.24143  24841409.594                    24841419.215
 111589467.631 8  86952853.63746  21234770.461                    21234776.199
 128871320.816 6 100419342.680 6  24523424.914                    24523437.289
 109829488.410 8  85581448.713 7  20899856.984                    20899864.125
 119939826.973 7  93459664.95144  22823798.820                    22823807.867
 117617244.487 7  91649916.68545  22381839.664                    22381847.996
 122121602.523 7  95159727.01044  23238968.430                    23238976.672
 121029082.437 7  94308239.44344  23031030.266                    23031039.789
 109365812.069 8  85220142.31946  20811623.000                    20811631.000
 117942875.976 7  91903567.19745  22443785.250                    22443793.324
 11  8 11 17 50  0.0000000  0 11G10G06G19G01G07G03G08G28G11G13G23
 130543207.974 6 101722039.70743  24841552.828                    24841563.906
 130643553.041 6 101800241.27143  24860651.141                    24860660.824
 111632665.695 7  86986514.46846  21242991.016                    21242996.215
 128830146.443 6 100387258.857 6  24515588.688                    24515601.934
 109787322.171 8  85548591.924 7  20891833.180                    20891840.102
 120037925.532 7  93536105.32544  22842466.977                    22842476.031
 117545145.783 7  91593735.90345  22368119.852                    22368128.191
 122073822.737 7  95122496.04744  23229876.156                    23229883.895
 120955126.168 7  94250611.31544  23016956.992                    23016966.051
 109433596.203 8  85272961.07446  20824522.125                    20824529.750
 118047885.080 7  91985392.32645  22463768.453                    22463775.832
 11  8 11 17 50 30.0000000  0 11G10G06G19G01G07G03G08G28G11G13G23
 130599227.812 6 101765691.35443  24852212.336                    24852224.480
 130744798.905 5 101879134.07843  24879916.734                    24879927.250
 111676424.070 7  87020611.92846  21251317.461                    21251323.375
 128789273.090 6 100355409.590 6  24507810.500                    24507824.180
 109745356.257 8  85515891.235 7  20883847.047                    20883853.945
 120136298.978 7  93612759.91443  22861186.398                    22861195.520
 117473066.828 7  91537570.52145  22354403.633                    22354411.617
 122026240.406 7  95085418.94544  23220821.344                    23220829.238
 120881345.966 6  94193120.38944  23002917.164                    23002926.645
 109501871.434 8  85326162.49946  20837514.211                    20837522.355
 118153132.451 7  92067403.14845  22483796.125                    22483803.875
 11  8 11 17 51  0.0000000  0 10G10G19G01G07G03G08G28G11G13G23
 130655388.620 6 101809452.90843  24862900.586                    24862911.406
 111720741.000 7  87055144.60846  21259750.766                    21259756.406
 128748703.270 6 100323796.880 6  24500090.391                    24500104.008
 109703592.545 8  85483348.089 7  20875899.680                    20875906.914
 120234944.448 6  93689626.47843  22879958.711                    22879966.988
 117401009.364 7  91481421.86545  22340691.672                    22340699.484
 121978854.915 7  95048495.23744  23211804.531                    23211812.262
 120807744.945 6  94135769.12544  22988910.430                    22988919.813
 109570635.587 8  85379744.91046  20850599.867                    20850607.688
 118258614.903 7  92149597.14145  22503868.969                    22503876.563
 11  8 11 17 51 30.0000000  0 10G10G19G01G07G03G08G28G11G13G23
 130711687.703 6 101853322.19243  24873612.953                    24873624.832
 111765614.845 7  87090111.26846  21268289.953                    21268296.000
 128708439.604 6 100292422.718 6  24492429.063                    24492442.090
 109662033.126 8  85450964.147 7  20867991.469                    20867998.102
 120333859.087 7  93766702.77043  22898781.680                    22898789.523
 117328974.842 7  91425291.09845  22326984.164                    22326992.031
 121931665.914 7  95011724.64844  23202824.258                    23202832.473
 120734326.386 7  94078559.99244  22974940.023                    22974948.395
 109639886.826 8  85433706.87546  20863777.914                    20863785.637
 118364329.622 7  92231972.12744  22523986.367                    22523993.297
 11  8 11 17 52  0.0000000  0 10G10G19G01G07G03G08G28G11G13G23
 130768122.566 6 101897297.25643  24884352.078                    24884363.934
 111811043.929 7  87125510.58446  21276934.711                    21276940.277
 128668484.878 6 100261289.289 6  24484825.875                    24484838.621
 109620679.909 7  85418740.871 7  20860121.844                    20860128.977
 120433040.209 7  93843986.74944  22917655.008                    22917663.781
 117256964.699 7  91369179.33445  22313280.492                    22313288.746
 121884672.666 7  94975106.56444  23193881.594                    23193889.777
 120661093.410 7  94021495.51244  22961003.297                    22961012.441
 109709622.739 8  85488046.49746  20877048.227                    20877055.918
 118470273.555 7  92314525.71845  22544146.680                    22544153.809
 11  8 11 17 52 30.0000000  0 10G10G19G01G07G03G08G28G11G13G23
 130824690.363 6 101941375.85943  24895117.406                    24895128.715
 111857026.599 7  87161341.25346  21285685.203                    21285690.512
 128628841.201 5 100230398.288 6  24477281.258                    24477294.469
 109579534.385 7  85386679.436 7  20852292.094                    20852299.227
 120532484.847 7  93921476.05743  22936577.984                    22936586.984
 117184980.577 7  91313087.84945  22299582.516                    22299590.832
 121837874.590 7  94938640.57744  23184975.992                    23184984.188
 120588049.022 7  93964577.97544  22947103.422                    22947112.922
 109779841.338 8  85542762.23046  20890410.422                    20890418.344
 118576443.944 7  92397255.77845  22564349.805                    22564357.980
 11  8 11 17 53  0.0000000  0 10G10G19G01G07G03G08G28G11G13G23
 130881388.309 6 101985555.94343  24905905.586                    24905918.844
 111903560.802 7  87197601.68646  21294540.133                    21294545.621
 128589511.199 5 100199751.685 6  24469796.164                    24469810.027
 109538598.444 8  85354781.306 7  20844502.383                    20844509.266
 120632190.250 7  93999168.56544  22955551.836                    22955560.570
 117113023.469 7  91257017.41345  22285889.336                    22285897.496
 121791271.166 7  94902326.25044  23176107.648                    23176116.035
 120515196.333 7  93907809.82544  22933239.805                    22933249.051
 109850540.385 8  85597852.34946  20903864.109                    20903871.590
 118682838.088 7  92480160.15544  22584596.203                    22584604.098
 11  8 11 17 53 30.0000000  0 10G10G19G01G07G03G08G28G11G13G23
 130938213.706 6 102029835.31642  24916719.914                    24916732.105
 111950644.917 7  87234290.62846  21303499.539                    21303505.859
 128550497.400 6 100169351.473 6  24462373.016                    24462385.535
 109497874.121 7  85323048.077 7  20836752.922                    20836759.809
 120732153.539 6  94077062.02643  22974574.070                    22974583.051
 117041095.141 7  91200969.39445  22272202.367                    22272210.219
 121744862.168 7  94866163.42244  23167276.719                    23167284.961
 120442538.461 7  93851193.46644  22919413.375                    22919422.652
 109921718.168 8  85653315.50146  20917408.898                    20917416.891
 118789453.274 7  92563236.80844  22604884.430                    22604892.262
 11  8 11 17 54  0.0000000  0  9G19G01G07G03G08G28G11G13G23
 111998277.687 7  87271407.08346  21312564.266                    21312569.816
 128511802.679 5 100139199.888 6  24455009.047                    24455021.871
 109457363.826 8  85291481.610 7  20829044.305                    20829050.707
 120832372.600 6  94155154.74244  22993644.969                    22993654.074
 116969197.643 7  91144945.39545  22258520.648                    22258528.434
 121698646.921 7  94830151.59844  23158482.313                    23158490.430
 120370079.073 7  93794731.76544  22905624.711                    22905633.477
 109993372.267 8  85709149.81546  20931044.125                    20931051.699
 118896286.868 7  92646483.63544  22625214.469                    22625222.496
 11  8 11 17 54 30.0000000  0  9G19G01G07G03G08G28G11G13G23
 112046456.244 8  87308948.81346  21321732.391                    21321737.867
 128473429.012 5 100109298.498 6  24447706.609                    24447720.152
 109417068.624 7  85260082.772 7  20821375.695                    20821382.902
 120932843.514 6  94233443.74944  23012764.836                    23012772.629
 116897331.414 7  91088945.77345  22244844.906                    22244852.965
 121652624.384 7  94794289.89544  23149724.430                    23149732.469
 120297820.405 7  93738426.46344  22891873.977                    22891883.352
 110065499.861 8  85765353.09246  20944769.586                    20944777.348
 119003335.355 7  92729897.91244  22645584.719                    22645592.926
 11  8 11 17 55  0.0000000  0  9G19G01G07G03G08G28G11G13G23
 112095178.762 7  87346914.41346  21331003.750                    21331009.207
 128435378.313 6 100079648.733 6  24440465.586                    24440479.293
 109376990.111 7  85228852.779 7  20813749.164                    20813756.594
 121033563.451 7  94311926.80343  23031930.852                    23031939.547
 116825497.398 7  91032971.24745  22231175.016                    22231183.621
 121606793.820 7  94758577.80244  23141003.352                    23141011.410
 120225765.718 7  93682280.08644  22878162.789                    22878171.297
 110138098.623 8  85821923.50346  20958584.594                    20958592.191
 119110595.756 7  92813477.28344  22665996.570                    22666004.340
 11  8 11 17 55 30.0000000  0 10G24G19G01G07G03G08G28G11G13G23
 128133209.14816                  24382941.758
 112144443.284 7  87385302.33946  21340378.328                    21340384.699
 128397653.246 6 100050252.673 6  24433287.188                    24433300.141
 109337129.993 8  85197792.947 7  20806164.148                    20806171.164
 121134529.332 7  94390601.45543  23051144.102                    23051152.781
 116753697.497 7  90977023.29245  22217511.820                    22217519.895
 121561154.365 7  94723014.62144  23132318.445                    23132326.852
 120153917.726 7  93626294.75944  22864490.211                    22864499.078
 110211166.142 8  85878859.18546  20972489.125                    20972496.809
 119218065.216 7  92897219.58544  22686446.914                    22686455.051
 11  8 11 17 56  0.0000000  0 10G24G19G01G07G03G08G28G11G13G23
 128059756.487 6  99786896.21153  24368964.773                    24368979.988
 112194247.312 7  87424110.65146  21349855.891                    21349861.270
 128360255.759 6 100021111.884 6  24426170.602                    24426182.758
 109297489.929 8  85166904.599 7  20798620.781                    20798628.016
 121235738.255 6  94469465.50743  23070403.531                    23070412.063
 116681932.984 7  90921102.93745  22203855.461                    22203863.414
 121515704.987 7  94687599.56944  23123669.398                    23123677.258
 120082279.207 7  93570472.64544  22850858.242                    22850866.980
 110284699.777 8  85936158.07546  20986482.156                    20986490.129
 119325740.328 7  92981122.12844  22706937.328                    22706944.980
 11  8 11 17 56 30.0000000  0 10G24G19G01G07G03G08G28G11G13G23
 127986236.119 6  99729607.69343  24354973.109                    24354988.785
 112244589.627 7  87463338.41746  21359435.602                    21359441.559
 128323188.221 5  99992228.176 6  24419116.789                    24419129.480
 109258071.847 7  85136189.211 7  20791119.648                    20791126.867
 121337187.724 6  94548516.99443  23089708.500                    23089717.230
 116610205.580 7  90865211.46945  22190206.781                    22190214.238
 121470445.268 7  94652332.29144  23115057.234                    23115064.762
 120010853.419 7  93514816.29144  22837266.359                    22837274.625
 110358697.627 8  85993818.69146  21000563.367                    21000571.363
 119433618.518 7  93065182.90944  22727465.922                    22727473.887
 11  8 11 17 57  0.0000000  0 10G24G19G01G07G03G08G28G11G13G23
 127912650.998 6  99672268.69743  24340970.602                    24340985.805
 112295468.399 7  87502984.19146  21369117.453                    21369123.359
 128286453.395 6  99963603.734 6  24412125.422                    24412139.508
 109218877.939 8  85105648.511 7  20783661.711                    20783668.707
 121438874.772 6  94627753.57243  23109059.188                    23109067.770
 116538516.955 7  90809350.24745  22176564.516                    22176572.406
 121425374.940 7  94617212.59244  23106480.273                    23106488.078
 119939643.789 7  93459328.34844  22823714.906                    22823724.055
 110433157.555 8  86051839.36746  21014732.797                    21014740.938
 119541697.221 7  93149399.93444  22748032.570                    22748040.305
 11  8 11 17 57 30.0000000  0 10G24G19G01G07G03G08G28G11G13G23
 127839003.489 6  99614881.04243  24326955.352                    24326970.340
 112346881.053 7  87543045.98346  21378901.727                    21378907.012
 128250053.445 6  99935240.189 6  24405198.938                    24405212.570
 109179909.483 8  85075283.482 7  20776245.938                    20776253.094
 121540796.291 6  94707172.87343  23128454.031                    23128462.797
 116466868.333 7  90753520.17945  22162930.484                    22162937.941
 121380493.038 7  94582239.73044  23097939.328                    23097947.922
 119868653.102 7  93404011.01344  22810206.336                    22810215.258
 110508076.665 8  86110217.84846  21028989.500                    21028997.246
 119649973.152 7  93233770.64744  22768637.070                    22768644.809
 11  8 11 17 58  0.0000000  0 10G24G19G01G07G03G08G28G11G13G23
 127765296.687 6  99557447.19553  24312930.344                    24312944.008
 112398826.018 7  87583522.55246  21388786.008                    21388791.621
 128213990.871 6  99907139.526 7  24398337.695                    24398349.727
 109141168.980 8  85045096.077 7  20768874.328                    20768881.074
 121642950.146 6  94786773.17143  23147893.664                    23147902.906
 116395261.546 7  90697722.71045  22149303.766                    22149311.570
 121335799.077 7  94547413.32344  23089434.344                    23089442.523
 119797884.634 7  93348866.84644  22796739.328                    22796748.375
 110583453.296 8  86168952.82846  21043332.891                    21043340.848
 119758443.521 7  93318292.86344  22789277.594                    22789286.270
 11  8 11 17 58 30.0000000  0 10G24G19G01G07G03G08G28G11G13G23
 127691533.151 6  99499969.17143  24298893.742                    24298907.648
 112451301.061 7  87624412.15646  21398772.000                    21398777.203
 128178267.587 6  99879303.244 7  24391538.820                    24391552.262
 109102657.784 8  85015087.350 7  20761545.555                    20761552.832
 121745332.847 6  94866551.80243  23167376.414                    23167385.633
 116323697.520 7  90641958.56745  22135685.594                    22135693.055
 121291292.386 7  94512732.83644  23080964.945                    23080973.000
 119727341.079 7  93293897.89444  22783315.492                    22783324.449
 110659284.224 8  86228041.81846  21057763.438                    21057771.047
 119867105.408 7  93402964.32744  22809956.008                    22809964.289
 11  8 11 17 59  0.0000000  0 10G24G19G01G07G03G08G28G11G13G23
 127617715.756 6  99442449.16742  24284845.805                    24284860.680
 112504303.905 8  87665713.03546  21408857.875                    21408863.922
 128142886.367 6  99851733.482 7  24384806.383                    24384819.426
 109064378.052 7  84985258.990 7  20754261.563                    20754267.891
 121847941.633 6  94946506.61443  23186902.344                    23186911.051
 116252178.173 7  90586229.22445  22122076.273                    22122083.871
 121246971.993 7  94478197.50644  23072531.172                    23072538.848
 119657025.725 7  93239106.77044  22769934.688                    22769943.527
 110735567.295 8  86287483.12046  21072279.914                    21072287.602
 119975955.748 7  93487782.60544  22830669.672                    22830677.969
 11  8 11 17 59 30.0000000  0 10G24G19G01G07G03G08G28G11G13G23
 127543847.210 5  99384889.31442  24270789.484                    24270804.156
 112557832.562 7  87707423.62446  21419044.070                    21419049.660
 128107849.211 6  99824431.806 7  24378139.328                    24378151.793
 109026331.340 8  84955612.204 7  20747021.063                    20747027.988
 121950773.968 6  95026635.65243  23206470.594                    23206479.035
 116180704.859 7  90530535.76545  22108475.250                    22108483.117
 121202837.246 7  94443806.85144  23064132.063                    23064140.547
 119586941.278 7  93184495.55544  22756598.445                    22756606.926
 110812300.069 8  86347274.84046  21086881.352                    21086889.328
 120084991.598 7  93572745.46844  22851418.953                    22851426.879
 11  8 11 18  0  0.0000000  0 10G24G19G01G07G03G08G28G11G13G23
 127469930.329 6  99327291.76242  24256723.570                    24256736.836
 112611885.227 7  87749542.53546  21429330.023                    21429335.820
 128073158.586 6  99797400.131 7  24371537.633                    24371550.508
 108988519.411 8  84926148.359 7  20739825.781                    20739832.859
 122053826.783 6  95106936.45543  23226080.508                    23226090.098
 116109279.461 7  90474879.64245  22094883.023                    22094890.992
 121158887.146 7  94409560.07444  23055768.813                    23055777.465
 119517091.043 7  93130066.85844  22743306.164                    22743314.621
 110889480.341 8  86407415.26246  21101568.398                    21101576.172
 120194210.209 6  93657850.73244  22872202.375                    22872210.363
 11  8 11 18  0 30.0000000  0 10G24G19G01G07G03G08G28G11G13G23
 127395968.001 6  99269658.85642  24242649.031                    24242662.633
 112666459.437 7  87792067.83646  21439714.867                    21439720.965
 128038816.542 6  99770640.084 6  24365002.531                    24365015.055
 108950944.023 7  84896868.835 7  20732675.297                    20732682.211
 122157097.168 6  95187406.80443  23245732.602                    23245741.945
 116037903.041 7  90419261.69445  22081300.367                    22081308.125
 121115121.129 7  94375456.72044  23047441.031                    23047448.922
 119447477.904 7  93075822.89644  22730058.953                    22730067.961
 110967105.352 8  86467902.24046  21116339.969                    21116347.566
 120303608.657 6  93743096.11443  22893020.063                    22893027.867
 11  8 11 18  1  0.0000000  0 10G24G19G01G07G03G08G28G11G13G23
 127321962.985 5  99211992.73942  24228566.609                    24228580.328
 112721553.401 7  87834998.16346  21450198.852                    21450205.031
 128004825.382 6  99744153.420 7  24358534.125                    24358546.813
 108913607.508 8  84867775.444 7  20725570.422                    20725577.520
 122260582.143 7  95268044.38943  23265425.359                    23265434.348
 115966577.629 7  90363683.46345  22067728.148                    22067735.750
 121071538.649 7  94341496.38844  23039146.992                    23039154.906
 119378104.923 7  93021766.06244  22716857.648                    22716866.227
 111045172.597 8  86528733.82445  21131195.969                    21131203.836
 120413184.014 7  93828479.37244  22913871.836                    22913879.676
 11  8 11 18  1 30.0000000  0 10G24G19G01G07G03G08G28G11G13G23
 127247918.175 5  99154295.58642  24214476.164                    24214489.547
 112777164.683 7  87878331.59446  21460781.813                    21460787.445
 127971187.306 6  99717941.932 7  24352133.430                    24352145.910
 108876511.584 8  84838869.519 7  20718511.258                    20718518.043
 122364279.199 7  95348847.22743  23285158.500                    23285167.590
 115895304.678 7  90308146.12045  22054165.375                    22054173.020
 121028138.961 7  94307678.48544  23030888.094                    23030896.590
 119308975.272 7  92967898.81844  22703703.016                    22703711.375
 111123679.945 7  86589908.33646  21146135.063                    21146143.281
 120522933.256 7  93913998.10044  22934757.219                    22934764.789
 11  8 11 18  2  0.0000000  0 10G24G19G01G07G03G08G28G11G13G23
 127173836.151 6  99096569.45143  24200378.164                    24200392.480
 112833291.552 7  87922066.78946  21471462.039                    21471468.156
 127937904.500 6  99692007.267 6  24345799.336                    24345812.598
 108839658.278 8  84810152.647 7  20711498.141                    20711505.395
 122468185.394 7  95429813.03243  23304930.898                    23304940.207
 115824085.738 7  90252650.87145  22040612.492                    22040620.203
 120984921.411 7  94274002.51244  23022664.000                    23022672.422
 119240092.108 6  92914223.64644  22690594.891                    22690603.383
 111202624.490 8  86651423.51546  21161157.969                    21161166.090
 120632853.365 7  93999649.96444  22955673.984                    22955681.430
 11  8 11 18  2 30.0000000  0 10G24G19G01G07G03G08G28G11G13G23
 127099719.796 6  99038816.60043  24186274.820                    24186288.695
 112889931.075 7  87966201.46746  21482240.133                    21482246.234
 127904979.250 6  99666351.242 6  24339534.563                    24339546.922
 108803048.485 8  84781625.536 7  20704532.078                    20704538.570
 122572297.935 6  95510939.62343  23324742.711                    23324751.930
 115752922.321 7  90197198.89245  22027070.492                    22027078.453
 120941884.831 7  94240467.56144  23014474.500                    23014482.559
 119171458.218 7  92860742.70844  22677534.273                    22677542.031
 111282003.566 8  86713277.26946  21176263.063                    21176270.816
 120742941.366 7  94085432.66344  22976623.586                    22976631.313
 11  8 11 18  3  0.0000000  0 10G24G19G01G07G03G08G28G11G13G23
 127025571.985 6  98981039.23443  24172165.242                    24172178.570
 112947081.414 7  88010734.19246  21493115.570                    21493121.582
 127872414.067 6  99640975.795 7  24333336.828                    24333349.781
 108766684.886 8  84753290.261 8  20697612.078                    20697619.215
 122676613.882 6  95592224.74943  23344593.547                    23344602.836
 115681816.147 7  90141791.48345  22013539.344                    22013547.223
 120899028.830 7  94207073.30844  23006319.430                    23006327.406
 119103076.589 7  92807458.33444  22664521.547                    22664529.992
 111361814.957 8  86775467.90845  21191450.898                    21191458.617
 120853194.603 7  94171344.12044  22997603.727                    22997611.934
 11  8 11 18  3 30.0000000  0 10G24G19G01G07G03G08G28G11G13G23
 126951395.573 6  98923239.63543  24158049.461                    24158064.094
 113004740.257 7  88055663.16146  21504088.102                    21504093.797
 127840210.842 6  99615882.399 6  24327208.547                    24327222.023
 108730568.928 8  84725147.962 7  20690739.297                    20690746.625
 122781130.380 6  95673666.12143  23364482.492                    23364491.953
 115610768.671 7  90086429.82645  22000019.742                    22000028.141
 120856352.387 7  94173819.00144  22998198.445                    22998206.652
 119034950.284 7  92754372.92844  22651557.227                    22651565.523
 111442056.000 7  86837993.33946  21206720.344                    21206728.004
 120963609.821 7  94257381.76844  23018615.469                    23018623.598
 11  8 11 18  4  0.0000000  0 10G24G19G01G07G03G08G28G11G13G23
 126877193.502 6  98865419.99743  24143929.555                    24143942.820
 113062905.923 7  88100987.06945  21515156.523                    21515162.383
 127808371.858 6  99591072.841 6  24321150.711                    24321163.027
 108694703.181 8  84697200.622 7  20683914.742                    20683921.730
 122885844.995 6  95755261.87843  23384408.930                    23384418.258
 115539781.852 7  90031115.45145  21986511.313                    21986519.621
 120813855.037 7  94140704.22544  22990111.359                    22990119.246
 118967082.572 6  92701489.03944  22638642.406                    22638651.066
 111522724.241 7  86900851.65245  21222070.898                    21222078.992
 121074184.517 7  94343543.70244  23039657.219                    23039665.387
 11  8 11 18  4 30.0000000  0 10G24G19G01G07G03G08G28G11G13G23
 126802968.429 6  98807582.46643  24129803.641                    24129818.258
 113121575.569 7  88146703.68646  21526320.695                    21526326.688
 127776899.107 6  99566548.677 6  24315161.133                    24315173.578
 108659088.955 7  84669449.286 7  20677137.367                    20677143.699
 122990754.570 6  95837009.56643  23404373.211                    23404382.340
 115468857.040 7  89975849.38445  21973014.586                    21973022.645
 120771535.980 7  94107728.36445  22982058.211                    22982066.184
 118899476.145 7  92648808.76244  22625777.391                    22625785.996
 111603816.742 7  86964040.56245  21237502.391                    21237510.598
 121184915.429 7  94429827.33644  23060728.461                    23060736.977
 11  8 11 18  5  0.0000000  0 10G24G19G01G07G03G08G28G11G13G23
 126728723.113 6  98749729.14143  24115675.656                    24115689.250
 113180747.135 8  88192811.42645  21537580.859                    21537586.539
 127745794.611 6  99542311.483 6  24309241.742                    24309254.777
 108623728.135 8  84641895.391 7  20670408.203                    20670414.965
 123095856.518 6  95918907.12843  23424372.953                    23424382.676
 115397996.062 7  89920633.05145  21959530.281                    21959538.285
 120729394.215 7  94074890.66644  22974038.781                    22974046.719
 118832134.300 7  92596334.63744  22612962.766                    22612971.102
 111685331.496 7  87027558.49745  21253014.281                    21253022.066
 121295799.993 7  94516230.71944  23081829.563                    23081838.082
 11  8 11 18  5 30.0000000  0 10G24G19G01G07G03G08G28G11G13G23
 126654460.482 6  98691862.34943  24101543.922                    24101557.773
 113240418.171 7  88239308.35945  21548935.820                    21548941.699
 127715060.983 6  99518363.318 6  24303393.805                    24303406.438
 108588622.455 8  84614540.311 7  20663728.039                    20663734.668
 123201147.968 6  96000952.39443  23444409.406                    23444419.156
 115327200.552 7  89865467.73445  21946058.719                    21946066.090
 120687429.174 7  94042190.66644  22966053.063                    22966061.004
 118765059.904 7  92544068.95344  22600198.203                    22600207.301
 111767265.011 7  87091402.74345  21268605.781                    21268613.703
 121406834.760 7  94602751.15144  23102958.219                    23102967.293
 11  8 11 18  6  0.0000000  0 10G24G19G01G07G03G08G28G11G13G23
 126580183.527 6  98633984.37943  24087409.672                    24087423.434
 113300586.482 7  88286192.78345  21560385.969                    21560391.496
 127684700.141 6  99494705.637 6  24297615.914                    24297628.285
 108553774.168 8  84587385.800 7  20657096.492                    20657103.328
 123306625.919 6  96083142.88343  23464481.055                    23464491.105
 115256472.257 7  89810354.79645  21932598.953                    21932606.902
 120645640.134 7  94009627.81944  22958100.711                    22958109.039
 118698255.807 7  92492013.87944  22587486.297                    22587494.781
 111849615.316 7  87155571.76345  21284276.211                    21284284.574
 121518017.354 6  94689386.74044  23124115.891                    23124125.117
 11  8 11 18  6 30.0000000  0 10G24G19G01G07G03G08G28G11G13G23
 126505895.243 6  98576097.58443  24073273.023                    24073286.305
 113361249.800 7  88333462.91346  21571929.227                    21571935.035
 127654714.184 6  99471340.091 6  24291910.172                    24291922.418
 108519184.845 7  84560433.089 7  20650514.461                    20650521.211
 123412287.692 6  96165476.68643  23484588.664                    23484597.395
 115185812.703 7  89755295.42345  21919153.484                    21919160.902
 120604026.198 7  93977201.40844  22950182.227                    22950189.863
 118631725.169 7  92440171.90044  22574826.336                    22574834.645
 111932379.854 7  87220063.54545  21300026.219                    21300034.402
 121629344.551 6  94776135.00744  23145301.500                    23145309.758
 11  8 11 18  7  0.0000000  0 10G24G19G01G07G03G08G28G11G13G23
 126431598.435 7  98518204.14743  24059133.664                    24059148.633
 113422405.809 7  88381116.96646  21583567.305                    21583572.770
 127625105.029 6  99448268.162 6  24286275.336                    24286287.543
 108484856.317 8  84533683.576 7  20643982.391                    20643989.023
 123518130.500 6  96247951.53443  23504729.789                    23504738.926
 115115223.868 7  89700291.16045  21905720.711                    21905728.461
 120562586.539 7  93944910.80544  22942295.977                    22942304.445
 118565471.116 7  92388545.47244  22562217.852                    22562226.625
 112015556.008 8  87284876.07245  21315853.805                    21315862.047
 121740813.458 7  94862993.69744  23166513.672                    23166521.996
 11  8 11 18  7 30.0000000  0 10G24G19G01G07G03G08G28G11G13G23
 126357295.669 6  98460306.14943  24044995.148                    24045008.758
 113484052.008 7  88429152.96946  21595297.586                    21595303.813
 127595874.949 6  99425491.624 6  24280713.141                    24280725.246
 108450790.532 7  84507138.811 7  20637499.516                    20637506.004
 123624151.809 6  96330565.47143  23524904.117                    23524913.293
 115044707.519 8  89645343.37745  21892301.438                    21892309.930
 120521320.327 7  93912755.37544  22934443.164                    22934451.668
 118499496.353 7  92337136.63144  22549663.797                    22549672.141
 112099140.675 7  87350006.92345  21331759.469                    21331767.688
 121852421.055 6  94949960.48744  23187751.531                    23187760.160
 11  8 11 18  8  0.0000000  0 10G24G19G01G07G03G08G28G11G13G23
 126282990.008 6  98402405.83343  24030855.109                    24030868.570
 113546186.150 7  88477569.18046  21607121.273                    21607127.492
 127567025.880 6  99403011.982 6  24275221.977                    24275235.527
 108416989.785 8  84480800.569 8  20631067.609                    20631074.406
 123730348.722 6  96413316.22943  23545112.984                    23545122.453
 114974265.158 8  89590453.24645  21878896.789                    21878904.750
 120480226.742 7  93880734.44544  22926623.891                    22926631.199
 118433803.856 7  92285947.78344  22537162.484                    22537171.156
 112183131.107 7  87415453.95345  21347742.492                    21347750.539
 121964164.721 7  95037033.29844  23209015.867                    23209024.438
 11  8 11 18  8 30.0000000  0 10G24G19G01G07G03G08G28G11G13G23
 126208684.271 6  98344505.43443  24016714.594                    24016729.129
 113608805.960 7  88526363.83745  21619037.406                    21619043.492
 127538560.159 6  99380831.014 6  24269805.844                    24269818.543
 108383455.505 8  84454669.964 7  20624685.867                    20624692.809
 123836718.362 6  96496201.53843  23565355.211                    23565363.164
 114903898.457 7  89535622.06345  21865506.703                    21865514.117
 120439305.191 7  93848847.57444  22918836.141                    22918844.145
 118368396.867 7  92234981.38444  22524716.297                    22524724.293
 112267525.108 7  87481215.44845  21363802.250                    21363810.359
 122076041.390 6  95124209.72544  23230305.742                    23230313.773
 11  8 11 18  9  0.0000000  0 10G24G19G01G07G03G08G28G11G13G23
 126134381.547 6  98286607.37143  24002575.203                    24002588.492
 113671909.143 7  88575535.13845  21631045.992                    21631051.461
 127510479.532 5  99358950.087 6  24264461.930                    24264474.688
 108350189.693 8  84428748.563 7  20618355.648                    20618362.637
 123943258.189 6  96579219.56443  23585629.125                    23585637.047
 114833609.203 7  89480851.24045  21852131.141                    21852138.520
 120398554.969 7  93817094.21044  22911081.773                    22911089.758
 118303278.271 7  92184239.70744  22512324.875                    22512332.699
 112352319.684 7  87547289.07345  21379938.336                    21379945.922
 122188047.867 6  95211487.33444  23251619.945                    23251628.344
 11  8 11 18  9 30.0000000  0 10G24G19G01G07G03G08G28G11G13G23
 126060084.400 6  98228713.70543  23988437.281                    23988450.770
 113735492.878 7  88625080.89545  21643145.422                    21643151.016
 127482785.667 6  99337370.533 6  24259191.914                    24259204.723
 108317193.963 8  84403037.634 7  20612076.609                    20612083.461
 124049965.448 6  96662368.01143  23605935.102                    23605942.367
 114763399.000 8  89426142.01445  21838770.453                    21838778.410
 120357974.828 7  93785473.37144  22903360.094                    22903367.418
 118238450.627 7  92133724.74344  22499987.930                    22499996.594
 112437511.762 7  87613672.45045  21396149.445                    21396157.316
 122300181.220 6  95298863.78144  23272957.719                    23272966.129
 11  8 11 18 10  0.0000000  0 10G24G19G01G07G03G08G28G11G13G23
 125985795.768 6  98170826.60943  23974299.500                    23974313.156
 113799554.874 7  88674999.31745  21655336.336                    21655342.031
 127455480.829 6  99316094.096 6  24253995.922                    24254009.004
 108284470.194 8  84377538.593 7  20605849.867                    20605856.531
 124156837.333 6  96745644.76943  23626272.313                    23626280.055
 114693269.756 7  89371495.87445  21825425.031                    21825432.797
 120317563.978 7  93753984.42644  22895669.953                    22895677.609
 118173917.311 7  92083439.10944  22487707.742                    22487715.785
 112523099.285 7  87680363.96245  21412436.273                    21412444.707
 122412438.753 7  95386337.00244  23294319.852                    23294327.832
 11  8 11 18 10 30.0000000  0 10G24G19G01G07G03G08G28G11G13G23
 125911518.937 6  98112948.77743  23960165.438                    23960178.883
 113864092.892 7  88725288.66245  21667617.234                    21667623.074
 127428567.173 6  99295122.448 6  24248874.617                    24248887.695
 108252020.550 8  84352253.147 7  20599674.313                    20599681.699
 124263870.851 6  96829047.48043  23646639.477                    23646647.770
 114623223.305 7  89316914.24845  21812095.820                    21812103.738
 120277322.114 7  93722627.19244  22888012.070                    22888019.820
 118109681.237 7  92033385.10744  22475483.867                    22475492.176
 112609079.437 7  87747361.40545  21428797.883                    21428806.195
 122524817.736 7  95473904.84543  23315703.922                    23315713.570
 11  8 11 18 11  0.0000000  0 10G24G19G01G07G03G08G28G11G13G23
 125837256.881 6  98055082.45842  23946032.961                    23946047.141
 113929104.492 7  88775947.01045  21679988.867                    21679994.211
 127402046.690 6  99274457.180 6  24243828.180                    24243840.590
 108219846.909 8  84327182.786 7  20593552.273                    20593558.910
 124371063.415 6  96912574.06042  23667038.023                    23667045.965
 114553261.821 8  89262398.83845  21798782.578                    21798790.527
 120237247.928 7  93691400.59544  22880385.945                    22880393.680
 118045745.419 7  91983565.06544  22463317.367                    22463325.711
 112695449.247 8  87814662.49445  21445233.711                    21445241.855
 122637315.189 6  95561565.00244  23337112.805                    23337121.785
 11  8 11 18 11 30.0000000  0 10G24G19G01G07G03G08G28G11G13G23
 125763012.191 6  97997229.61842  23931905.297                    23931917.871
 113994587.051 7  88826972.34845  21692449.219                    21692455.477
 127375921.375 6  99254099.790 6  24238855.609                    24238869.184
 108187951.101 8  84302328.911 7  20587482.836                    20587489.609
 124478412.799 6  96996222.88143  23687465.523                    23687473.980
 114483386.508 8  89207950.56745  21785486.172                    21785493.672
 120197340.899 7  93660304.24744  22872791.914                    22872799.938
 117982112.689 7  91933981.17944  22451208.422                    22451216.707
 112782206.070 7  87882265.14745  21461743.359                    21461751.344
 122749928.063 6  95649315.06343  23358541.961                    23358550.789
 11  8 11 18 12  0.0000000  0 10G24G19G01G07G03G08G28G11G13G23
 125688787.976 6  97939392.75243  23917779.961                    23917793.703
 114060538.235 7  88878362.84745  21704999.633                    21705005.152
 127350193.041 6  99234051.739 6  24233960.063                    24233972.922
 108156334.852 8  84277692.879 7  20581466.266                    20581473.281
 124585915.869 6  97079991.44743  23707922.563                    23707932.230
 114413599.182 8  89153570.84245  21772205.336                    21772213.305
 120157600.110 7  93629337.44344  22865229.625                    22865237.527
 117918786.108 7  91884635.84545  22439157.797                    22439165.707
 112869346.963 8  87950167.07345  21478325.594                    21478333.969
 122862653.521 6  95737152.88843  23379992.344                    23380002.293
 11  8 11 18 12 30.0000000  0 10G24G19G01G07G03G08G28G11G13G23
 125614587.243 6  97881574.16342  23903659.742                    23903673.004
 114126955.726 7  88930116.69145  21717638.375                    21717644.258
 127324863.580 6  99214314.490 6  24229140.406                    24229153.117
 108125000.238 7  84253276.327 7  20575503.141                    20575509.969
 124693569.908 6  97163877.63643  23728408.781                    23728417.898
 114343901.955 8  89099261.32845  21758943.109                    21758950.637
 120118024.770 7  93598499.56745  22857698.703                    22857706.762
 117855768.554 7  91835531.30844  22427165.422                    22427173.793
 112956869.200 7  88018366.14945  21494980.578                    21494988.703
 122975488.987 6  95825076.41643  23401465.398                    23401474.285
 11  8 11 18 13  0.0000000  0 10G24G19G01G07G03G08G28G11G13G23
 125540413.249 6  97823776.39542  23889546.297                    23889558.227
 114193837.301 7  88982232.15645  21730365.727                    21730371.707
 127299935.242 6  99194889.796 6  24224396.859                    24224409.852
 108093949.483 8  84229080.939 7  20569594.594                    20569601.637
 124801372.521 6  97247879.59643  23748923.484                    23748931.641
 114274296.953 8  89045023.68045  21745696.945                    21745704.684
 120078614.418 7  93567790.24444  22850198.531                    22850206.945
 117793063.080 7  91786669.92644  22415233.258                    22415241.395
 113044770.626 7  88086860.70745  21511707.773                    21511715.898
 123088431.280 6  95913083.17143  23422957.680                    23422967.074
 11  8 11 18 13 30.0000000  0 10G24G19G01G07G03G08G28G11G13G23
 125466268.567 6  97766001.50943  23875435.852                    23875448.516
 114261179.704 7  89034706.71545  21743180.492                    21743186.648
 127275409.788 6  99175779.028 6  24219729.969                    24219742.418
 108063183.915 8  84205107.773 7  20563740.375                    20563746.988
 124909320.678 6  97331994.97843  23769465.508                    23769473.809
 114204785.525 8  88990858.93945  21732469.414                    21732477.074
 120039367.651 7  93537208.37845  22842731.008                    22842738.520
 117730672.363 7  91738053.82144  22403360.289                    22403368.789
 113133047.860 7  88155648.08345  21528506.461                    21528514.695
 123201477.562 7  96001170.94643  23444470.359                    23444478.648
 11  8 11 18 14  0.0000000  0 10G24G19G01G07G03G08G28G11G13G23
 125392156.102 6  97708251.67143  23861332.758                    23861345.742
 114328980.665 7  89087538.57745  21756082.750                    21756088.301
 127251288.890 6  99156983.504 6  24215140.352                    24215152.344
 108032705.393 8  84181358.282 8  20557940.102                    20557947.293
 125017411.635 6  97416221.61843  23790034.273                    23790043.215
 114135369.479 8  88936768.53345  21719260.422                    21719267.695
 120000283.490 7  93506753.23845  22835292.906                    22835301.113
 117668599.569 7  91689685.43144  22391548.523                    22391556.691
 113221698.208 7  88224726.21045  21545375.938                    21545384.039
 123314624.425 7  96089337.15044  23466001.648                    23466010.195
 11  8 11 18 14 30.0000000  0 10G24G19G01G07G03G08G28G11G13G23
 125318078.874 6  97650529.29643  23847236.211                    23847249.277
 114397237.877 7  89140725.98245  21769071.898                    21769077.746
 127227574.473 6  99138504.677 6  24210627.195                    24210639.219
 108002515.878 8  84157833.978 7  20552195.367                    20552202.250
 125125642.675 6  97500557.43543  23810629.086                    23810638.680
 114066051.092 7  88882754.22045  21706069.172                    21706076.715
 119961361.521 7  93476424.48745  22827886.742                    22827894.391
 117606847.351 7  91641566.84344  22379797.430                    22379805.688
 113310718.550 7  88294092.64645  21562316.328                    21562324.309
 123427869.242 7  96177579.66243  23487551.531                    23487560.441
 11  8 11 18 15  0.0000000  0 10G24G19G01G07G03G08G28G11G13G23
 125244039.581 6  97592836.47143  23833147.383                    23833159.977
 114465948.401 7  89194266.61945  21782147.148                    21782152.801
 127204267.892 6  99120343.679 6  24206192.766                    24206203.906
 107972616.840 8  84134536.028 7  20546505.938                    20546512.551
 125234011.067 6  97585000.26343  23831251.469                    23831260.738
 113996831.641 8  88828816.99345  21692897.313                    21692904.887
 119922601.018 7  93446221.53044  22820510.828                    22820518.246
 117545418.450 7  91593700.18144  22368108.297                    22368116.066
 113400105.968 8  88363745.11145  21579325.875                    21579334.273
 123541209.050 7  96265896.18943  23509119.906                    23509129.035
 11  8 11 18 15 30.0000000  0 10G24G19G01G07G03G08G28G11G13G23
 125170041.541 6  97535175.81143  23819066.086                    23819078.434
 114535110.069 8  89248158.78945  21795307.914                    21795313.914
 127181371.550 6  99102502.338 6  24201834.984                    24201847.254
 107943010.565 8  84111466.209 8  20540872.164                    20540879.137
 125342514.344 6  97669548.18443  23851898.617                    23851908.055
 113927713.207 8  88774958.47345  21679744.805                    21679752.348
 119884000.416 7  93416143.18644  22813165.164                    22813172.711
 117484316.019 7  91546087.90345  22356480.625                    22356489.082
 113489857.935 8  88433681.63445  21596405.250                    21596413.363
 123654640.887 7  96354284.43844  23530705.445                    23530714.508
 11  8 11 18 16  0.0000000  0 10G24G19G01G07G03G08G28G11G13G23
 125096087.824 7  97477549.69743  23804992.258                    23805005.297
 114604720.331 7  89302400.53045  21808554.148                    21808559.957
 127158887.420 6  99084982.184 6  24197556.781                    24197568.426
 107913699.254 8  84088626.224 7  20535294.313                    20535300.934
 125451150.123 6  97754199.36943  23872571.563                    23872580.910
 113858698.085 8  88721180.46945  21666611.070                    21666618.855
 119845559.057 7  93386188.94145  22805849.930                    22805857.832
 117423542.895 7  91498732.23244  22344915.750                    22344924.012
 113579971.362 7  88503899.80945  21613553.352                    21613562.195
 123768162.314 6  96442742.45544  23552307.828                    23552317.633
 11  8 11 18 16 30.0000000  0 10G24G19G01G07G03G08G28G11G13G23
 125022181.127 7  97419960.20443  23790928.391                    23790940.895
 114674776.331 7  89356989.60945  21821885.602                    21821891.211
 127136817.047 6  99067784.468 6  24193356.984                    24193369.254
 107884684.438 8  84066017.276 7  20529772.836                    20529779.543
 125559915.316 6  97838951.43842  23893269.273                    23893278.105
 113789787.629 8  88667484.03245  21653498.102                    21653505.762
 119807276.478 7  93356358.39845  22798565.000                    22798573.031
 117363101.878 7  91451635.35344  22333413.961                    22333422.992
 113670443.868 7  88574397.79145  21630769.617                    21630778.156
 123881770.095 6  96531267.75343  23573927.219                    23573936.711
 11  8 11 18 17  0.0000000  0 10G24G19G01G07G03G08G28G11G13G23
 124948324.620 6  97362409.81743  23776874.336                    23776886.125
 114745275.269 7  89411923.83545  21835301.281                    21835307.227
 127115162.111 6  99050910.497 6  24189236.055                    24189247.980
 107855967.641 8  84043640.551 7  20524308.469                    20524315.043
 125668807.152 6  97923802.15442  23913990.656                    23913999.539
 113720984.260 7  88613871.01945  21640405.219                    21640412.566
 119769151.816 7  93326650.91745  22791309.820                    22791317.641
 117302996.044 7  91404799.63844  22321976.375                    22321985.027
 113761272.300 7  88645173.10545  21648053.883                    21648062.098
 123995461.230 6  96619858.02243  23595561.430                    23595571.266
 11  8 11 18 17 30.0000000  0 10G24G19G01G07G03G08G28G11G13G23
 124874521.378 7  97304900.93143  23762830.117                    23762841.926
 114816215.192 8  89467201.67545  21848800.266                    21848805.836
 127093924.812 6  99034361.977 6  24185194.617                    24185206.797
 107827551.430 8  84021498.052 7  20518900.883                    20518907.742
 125777823.205 6  98008749.69242  23934736.453                    23934744.301
 113652289.578 8  88560342.70745  21627333.313                    21627340.730
 119731183.974 7  93297065.65645  22784085.266                    22784092.520
 117243228.324 7  91358227.39944  22310603.094                    22310611.051
 113852454.023 7  88716223.72645  21665405.250                    21665413.453
 124109233.341 6  96708511.37943  23617211.656                    23617221.895
 11  8 11 18 18  0.0000000  0 10G24G19G01G07G03G08G28G11G13G23
 124800774.455 6  97247435.97343  23748795.445                    23748808.391
 114887593.573 7  89522821.18645  21862383.719                    21862389.023
 127073106.792 6  99018140.200 6  24181233.594                    24181244.852
 107799437.591 8  83999591.160 7  20513551.023                    20513557.699
 125886961.015 6  98093792.02243  23955503.680                    23955512.688
 113583705.569 7  88506900.63145  21614281.961                    21614289.574
 119693372.462 7  93267602.19145  22776889.719                    22776897.145
 117183801.377 7  91311920.68944  22299294.148                    22299302.578
 113943985.958 7  88787547.22145  21682823.172                    21682831.824
 124223083.439 6  96797225.46543  23638877.008                    23638887.164
 11  8 11 18 18 30.0000000  0 10G24G19G01G07G03G08G28G11G13G23
 124727086.584 6  97190017.02643  23734773.422                    23734786.172
 114959407.381 7  89578779.99445  21876048.805                    21876054.848
 127052709.272 6  99002246.124 6  24177351.367                    24177363.059
 107771627.387 8  83977920.880 7  20508259.102                    20508265.953
 125996217.690 6  98178927.13842  23976294.680                    23976303.324
 113515234.489 8  88453546.55645  21601252.305                    21601260.105
 119655716.031 7  93238259.57745  22769723.648                    22769731.406
 117124718.010 7  91265881.71444  22288051.430                    22288059.254
 114035865.029 7  88859141.22345  21700307.438                    21700315.770
 124337008.187 6  96885997.75844  23660555.875                    23660566.016
 11  8 11 18 19  0.0000000  0 10G24G19G01G07G03G08G28G11G13G23
 124653461.257 6  97132646.86443  23720762.594                    23720775.441
 115031654.240 7  89635076.24345  21889797.289                    21889802.820
 127032734.757 6  98986681.683 6  24173550.359                    24173562.438
 107744123.533 8  83956489.300 8  20503025.180                    20503031.789
 126105590.981 6  98264152.99742  23997107.977                    23997116.293
 113446878.017 8  88400281.80445  21588244.656                    21588252.551
 119618214.187 7  93209037.42045  22762587.281                    22762595.270
 117065981.631 7  91220113.13645  22276874.406                    22276882.359
 114128088.857 7  88931003.86545  21717857.211                    21717865.340
 124451005.075 6  96974826.21943  23682249.672                    23682260.156
 11  8 11 18 19 30.0000000  0 10G24G19G01G07G03G08G28G11G13G23
 124579901.335 7  97075327.61543  23706764.594                    23706777.160
 115104331.321 7  89691707.72845  21903626.898                    21903632.969
 127013184.826 6  98971448.113 6  24169829.680                    24169841.914
 107716927.627 8  83935297.693 8  20497849.711                    20497856.445
 126215077.950 6  98349467.46043  24017942.797                    24017950.926
 113378638.208 8  88347107.94045  21575258.742                    21575266.652
 119580865.765 7  93179934.80944  22755480.297                    22755487.609
 117007594.677 7  91174616.81645  22265763.328                    22265771.426
 114220654.386 7  89003132.76045  21735471.594                    21735480.215
 124565071.220 7  97063708.68744  23703955.656                    23703965.355
 11  8 11 18 20  0.0000000  0 10G24G19G01G07G03G08G28G11G13G23
 124506409.450 6  97018061.40543  23692778.906                    23692791.934
 115177435.840 7  89748672.28345  21917538.773                    21917544.371
 126994060.363 6  98956546.045 6  24166190.469                    24166202.602
 107690041.026 8  83914347.091 8  20492733.719                    20492740.402
 126324676.377 6  98434868.77143  24038799.422                    24038807.527
 113310516.866 7  88294026.39045  21562295.813                    21562303.410
 119543669.721 7  93150950.92945  22748401.469                    22748409.500
 116949559.688 7  91129394.78045  22254719.414                    22254727.695
 114313558.506 7  89075525.49945  21753150.539                    21753159.227
 124679203.782 6  97152642.90744  23725674.891                    23725684.477
 11  8 11 18 20 30.0000000  0 10G24G19G01G07G03G08G28G11G13G23
 124432988.781 6  96960850.70343  23678807.719                    23678820.188
 115250965.311 7  89805967.96245  21931530.648                    21931536.773
 126975363.508 6  98941977.196 6  24162633.469                    24162645.316
 107663465.369 8  83893638.786 7  20487676.703                    20487683.262
 126434383.114 6  98520354.50043  24059675.664                    24059683.762
 113242515.834 8  88241038.58545  21549355.523                    21549363.316
 119506625.270 7  93122085.16944  22741352.711                    22741360.207
 116891879.543 7  91084449.24244  22243743.609                    22243751.973
 114406797.971 7  89148179.54245  21770893.883                    21770902.355
 124793399.851 6  97241626.61444  23747405.797                    23747414.871
 11  8 11 18 21  0.0000000  0 10G24G19G01G07G03G08G28G11G13G23
 124359642.539 6  96903697.96643  23664850.484                    23664862.840
 115324917.409 7  89863592.96645  21945602.992                    21945609.129
 126957096.297 6  98927743.116 6  24159155.461                    24159168.625
 107637203.483 8  83873174.980 7  20482679.008                    20482685.398
 126544195.949 6  98605922.88543  24080571.539                    24080580.492
 113174637.542 8  88188146.42745  21536439.023                    21536446.492
 119469731.936 7  93093337.16145  22734331.547                    22734339.777
 116834557.358 7  91039782.63044  22232835.781                    22232843.711
 114500370.354 7  89221093.00245  21788700.297                    21788708.785
 124907656.683 7  97330657.62544  23769148.078                    23769158.078
 11  8 11 18 21 30.0000000  0 10G24G19G01G07G03G08G28G11G13G23
 124286373.757 6  96846605.57443  23650907.727                    23650920.691
 115399289.178 7  89921544.98445  21959755.867                    21959761.969
 126939259.741 6  98913844.617 6  24155762.055                    24155774.789
 107611256.756 8  83852956.753 7  20477741.484                    20477748.543
 126654112.280 6  98691571.90443  24101489.000                    24101497.762
 113106883.758 8  88135351.27545  21523545.898                    21523553.086
 119432988.728 7  93064706.13044  22727339.555                    22727347.469
 116777595.784 7  90995397.05644  22221996.063                    22222003.984
 114594272.753 7  89294263.61645  21806569.523                    21806577.863
 125021971.066 6  97419733.53543  23790901.195                    23790911.508
 11  8 11 18 22  0.0000000  0 10G24G19G01G07G03G08G28G11G13G23
 124213185.380 6  96789575.86543  23636980.281                    23636993.031
 115474078.016 7  89979821.98445  21973987.273                    21973993.098
 126921855.637 7  98900283.088 6  24152451.367                    24152462.719
 107585627.040 8  83832985.545 7  20472864.063                    20472870.984
 126764129.598 6  98777299.59543  24122423.766                    24122433.262
 113039256.686 8  88082654.87445  21510676.828                    21510684.441
 119396394.614 7  93036191.27545  22720376.367                    22720384.012
 116720997.842 7  90951294.82845  22211225.883                    22211233.969
 114688501.990 7  89367688.89645  21824500.344                    21824508.633
 125136340.470 6  97508852.29143  23812665.516                    23812674.902
 11  8 11 18 22 30.0000000  0 10G24G19G01G07G03G08G28G11G13G23
 124140080.230 6  96732610.96543  23623068.797                    23623080.633
 115549281.094 7  90038421.75945  21988298.828                    21988304.477
 126904885.513 6  98887059.715 7  24149221.023                    24149232.875
 107560316.161 8  83813262.781 7  20468047.750                    20468054.426
 126874245.235 6  98863103.93943  24143378.016                    24143387.625
 112971757.995 7  88030058.50345  21497831.742                    21497839.801
 119359948.508 7  93007791.74544  22713440.664                    22713448.285
 116664765.932 7  90907477.82944  22200525.211                    22200533.270
 114783055.133 7  89441366.57645  21842493.422                    21842501.801
 125250762.100 6  97598011.76343  23834439.930                    23834448.570
 11  8 11 18 23  0.0000000  0 10G24G19G01G07G03G08G28G11G13G23
 124067061.796 6  96675713.65843  23609174.188                    23609185.641
 115624895.919 7  90097342.37045  22002687.828                    22002693.719
 126888351.033 6  98874175.747 6  24146074.305                    24146086.727
 107535326.057 8  83793789.973 8  20463291.750                    20463298.250
 126984456.874 6  98948983.12043  24164349.625                    24164360.406
 112904389.872 8  87977563.88145  21485012.234                    21485019.688
 119323649.949 7  92979507.17645  22706533.313                    22706540.883
 116608903.075 7  90863948.41044  22189894.539                    22189902.957
 114877929.763 8  89515294.77545  21860547.555                    21860555.996
 125365233.020 6  97687209.60543  23856222.492                    23856231.793
 11  8 11 18 23 30.0000000  0  9G24G19G01G07G08G28G11G13G23
 123994133.334 6  96618886.46943  23595295.578                    23595308.156
 115700920.277 7  90156582.09445  22017154.641                    22017160.586
 126872254.478 6  98861633.045 6  24143011.219                    24143023.023
 107510659.360 8  83774569.168 8  20458598.305                    20458605.063
 112837155.076 8  87925173.14245  21472218.063                    21472225.688
 119287498.527 7  92951337.27645  22699653.758                    22699661.434
 116553412.506 7  90820709.11045  22179335.016                    22179343.000
 114973122.970 7  89589471.20145  21878661.727                    21878670.922
 125479751.162 6  97776444.27443  23878015.211                    23878024.262
 11  8 11 18 24  0.0000000  0  9G24G19G01G07G08G28G11G13G23
 123921297.397 7  96562131.34143  23581435.305                    23581447.336
 115777351.056 7  90216138.49845  22031699.023                    22031704.906
 126856596.633 6  98849432.134 6  24140031.164                    24140043.820
 107486317.068 8  83755601.144 7  20453966.453                    20453973.082
 112770055.221 8  87872887.55245  21459449.555                    21459456.875
 119251492.727 7  92923280.84745  22692802.109                    22692809.922
 116498296.853 7  90777761.93445  22168846.828                    22168854.645
 115068631.401 7  89663893.26245  21896836.930                    21896845.203
 125594312.716 6  97865712.70443  23899815.539                    23899824.785
 11  8 11 18 24 30.0000000  0  9G24G19G01G07G08G28G11G13G23
 123848557.043 6  96505450.69643  23567593.227                    23567605.660
 115854185.169 7  90276009.20745  22046320.008                    22046325.859
 126841378.858 6  98837574.151 6  24137135.672                    24137147.742
 107462301.116 8  83736887.412 8  20449395.914                    20449402.695
 112703092.114 8  87820708.52545  21446706.633                    21446714.145
 119215631.630 7  92895337.16645  22685978.289                    22685985.688
 116443558.127 7  90735108.48345  22158430.625                    22158438.859
 115164451.733 7  89738558.37245  21915070.813                    21915079.645
 125708915.041 6  97955012.92343  23921623.563                    23921633.859
 11  8 11 18 25  0.0000000  0  9G24G19G01G07G08G28G11G13G23
 123775915.455 7  96448846.98943  23553769.688                    23553781.559
 115931419.952 7  90336192.10245  22061017.711                    22061022.941
 126826602.904 6  98826060.402 6  24134324.172                    24134336.207
 107438612.997 8  83718429.131 8  20444888.563                    20444895.414
 112636267.826 8  87768637.67145  21433990.641                    21433998.324
 119179914.183 7  92867505.42145  22679180.930                    22679188.801
 116389199.062 7  90692750.86545  22148086.141                    22148094.574
 115260581.195 7  89813464.34545  21933363.961                    21933372.359
 125823555.081 6  98044342.55143  23943439.461                    23943449.543
 11  8 11 18 25 30.0000000  0  9G24G19G01G07G08G28G11G13G23
 123703375.885 7  96392322.73543  23539966.109                    23539977.875
 116009053.071 7  90396685.40945  22075790.477                    22075796.445
 126812270.284 6  98814892.106 6  24131596.516                    24131608.770
 107415254.891 8  83700228.010 7  20440443.141                    20440450.129
 112569584.416 8  87716676.59046  21421301.070                    21421308.934
 119144339.644 7  92839785.03245  22672411.625                    22672419.164
 116335222.883 7  90650691.61445  22137814.742                    22137822.891
 115357017.000 7  89888609.03545  21951714.859                    21951723.844
 125938230.447 6  98133699.67343  23965260.953                    23965271.777
 11  8 11 18 26  0.0000000  0  9G24G19G01G07G08G28G11G13G23
 123630940.861 7  96335879.97443  23526181.914                    23526193.672
 116087081.794 7  90457486.95945  22090638.781                    22090644.699
 126798382.198 6  98804070.186 6  24128953.898                    24128965.488
 107392228.496 8  83682285.365 8  20436061.563                    20436068.535
 112503043.878 8  87664826.83045  21408638.750                    21408646.547
 119108907.058 7  92812175.28045  22665669.102                    22665676.715
 116281631.868 7  90608932.47845  22127616.781                    22127624.633
 115453756.057 7  89963990.01645  21970124.391                    21970132.633
 126052937.923 6  98223081.82543  23987089.539                    23987100.117
 11  8 11 18 26 30.0000000  0  9G24G19G01G07G08G28G11G13G23
 123558613.740 7  96279521.31143  23512418.203                    23512430.238
 116165502.994 7  90518594.36045  22105561.766                    22105567.992
 126784940.475 6  98793596.083 6  24126396.359                    24126407.996
 107369535.491 8  83664602.501 7  20431743.508                    20431750.090
 112436648.341 8  87613090.05946  21396004.328                    21396011.559
 119073615.682 7  92784675.54145  22658952.984                    22658960.691
 116228428.853 7  90567475.68845  22117492.406                    22117500.574
 115550795.321 7  90039604.94645  21988590.164                    21988598.723
 126167674.821 7  98312486.91143  24008924.102                    24008934.254
 11  8 11 18 27  0.0000000  0  9G24G19G01G07G08G28G11G13G23
 123486397.755 7  96223249.23844  23498676.180                    23498688.203
 116244314.063 7  90580005.55245  22120558.727                    22120564.914
 126771946.091 6  98783470.524 6  24123923.531                    24123935.582
 107347178.363 8  83647181.364 8  20427488.734                    20427495.559
 112370400.425 8  87561468.31346  21383397.578                    21383405.012
 119038464.729 7  92757285.25345  22652263.977                    22652271.875
 116175616.608 7  90526323.37645  22107442.656                    22107450.789
 115648131.908 7  90115451.53845  22007112.586                    22007121.301
 126282438.797 7  98401913.09744  24030762.492                    24030773.422
 11  8 11 18 27 30.0000000  0  9G24G19G01G07G08G28G11G13G23
 123414295.892 7  96167066.11043  23484955.445                    23484967.836
 116323512.254 7  90641718.40645  22135630.195                    22135635.793
 126759400.759 6  98773694.865 6  24121536.352                    24121548.129
 107325158.158 8  83630022.762 8  20423298.500                    20423306.078
 112304301.761 8  87509962.87646  21370819.602                    21370827.504
 119003452.950 7  92730003.39845  22645601.500                    22645608.949
 116123197.678 7  90485477.54845  22097467.164                    22097475.305
 115745762.743 7  90191527.42145  22025691.031                    22025699.926
 126397226.540 6  98491357.78143  24052605.953                    24052617.641
 11  8 11 18 28  0.0000000  0  9G24G19G01G07G08G28G11G13G23
 123342311.244 7  96110974.29543  23471257.766                    23471269.285
 116403094.730 7  90703730.70745  22150774.039                    22150780.320
 126747306.069 6  98764270.391 7  24119234.117                    24119246.629
 107303476.950 8  83613128.323 8  20419172.859                    20419179.785
 112238354.503 8  87458575.42145  21358270.672                    21358277.777
 118968579.680 7  92702829.48045  22638965.453                    22638972.961
 116071174.687 7  90444940.23445  22087567.992                    22087575.688
 115843684.763 7  90267830.19745  22044325.070                    22044334.098
 126512035.306 6  98580818.81343  24074454.344                    24074465.156
 11  8 11 18 28 30.0000000  0  9G24G19G01G07G08G28G11G13G23
 123270446.836 7  96054976.16943  23457582.078                    23457592.977
 116483058.976 7  90766040.46845  22165990.891                    22165996.988
 126735662.956 6  98755197.781 7  24117018.758                    24117031.457
 107282136.432 8  83596499.329 8  20415111.945                    20415118.863
 112172560.776 8  87407307.59746  21345750.016                    21345757.277
 118933844.035 7  92675762.79545  22632355.625                    22632362.680
 116019550.711 7  90404713.82945  22077743.414                    22077751.832
 115941894.748 7  90344357.36145  22063013.547                    22063022.617
 126626862.413 6  98670294.14543  24096305.477                    24096316.418
 11  8 11 18 29  0.0000000  0 10G24G17G19G01G07G08G28G11G13G23
 123198705.837 7  95999074.25244  23443929.117                    23443941.953
 129559305.46116 100955383.30115  24654321.984                    24654334.367
 116563402.316 7  90828645.62845  22181279.727                    22181285.879
 126724472.970 6  98746478.278 6  24114889.930                    24114901.734
 107261138.848 8  83580137.570 8  20411116.336                    20411122.930
 112106922.787 8  87356161.11845  21333259.203                    21333266.871
 118899245.276 7  92648802.79045  22625771.398                    22625779.371
 115968328.558 7  90364800.52745  22067996.867                    22068004.199
 116040389.960 7  90421106.77245  22081757.586                    22081766.340
 126741704.856 6  98759781.43343  24118158.859                    24118170.633
 11  8 11 18 29 30.0000000  0 10G24G17G19G01G07G08G28G11G13G23
 123127091.195 7  95943270.76643  23430302.055                    23430313.605
 129454463.240 6 100873688.323 5  24634370.508                    24634384.766
 116644121.866 7  90891543.95945  22196640.172                    22196645.645
 126713737.644 6  98738113.088 6  24112846.789                    24112858.816
 107240485.953 8  83564044.401 8  20407186.188                    20407192.906
 112041442.755 8  87305137.72646  21320799.289                    21320806.383
 118864782.265 7  92621948.55145  22619213.047                    22619220.805
 115917510.002 7  90325201.71245  22058326.211                    22058334.363
 116139167.354 7  90498076.07145  22100553.602                    22100562.531
 126856560.415 6  98849278.88642  24140014.883                    24140027.281
 11  8 11 18 30  0.0000000  0 10G24G17G19G01G07G08G28G11G13G23
 123055606.134 7  95887568.27643  23416698.063                    23416710.449
 129349720.658 6 100792070.975 6  24614439.188                    24614452.984
 116725214.780 7  90954733.20145  22212071.328                    22212077.637
 126703458.341 6  98730103.245 6  24110891.109                    24110902.988
 107220179.322 8  83548221.068 8  20403322.086                    20403328.727
 111976122.625 8  87254238.93845  21308368.469                    21308376.621
 118830454.275 7  92595199.50645  22612681.094                    22612688.453
 115867097.794 7  90285919.52045  22048732.766                    22048740.672
 116238224.021 7  90575262.97645  22119404.250                    22119412.461
 126971425.992 6  98938784.20642  24161873.672                    24161886.047
 11  8 11 18 30 30.0000000  0 10G24G17G19G01G07G08G28G11G13G23
 122984253.924 7  95831969.28743  23403121.227                    23403132.387
 129245079.803 6 100710532.920 5  24594526.750                    24594541.133
 116806678.454 7  91018211.35445  22227573.773                    22227579.078
 126693636.473 6  98722449.920 6  24109022.188                    24109033.250
 107200221.012 8  83532669.120 8  20399524.000                    20399530.914
 111910964.744 8  87203466.58146  21295969.875                    21295977.258
 118796260.469 7  92568555.04545  22606173.781                    22606180.953
 115817095.082 7  90246956.42145  22039217.945                    22039225.492
 116337556.969 7  90652665.16145  22138306.125                    22138314.793
 127086298.847 6  99028295.21943  24183735.250                    24183745.836
 11  8 11 18 31  0.0000000  0 10G24G17G19G01G07G08G28G11G13G23
 122913037.552 6  95776476.17843  23389567.984                    23389579.727
 129140542.340 6 100629075.425 6  24574632.969                    24574647.707
 116888510.059 7  91081976.20545  22243145.672                    22243151.824
 126684272.932 6  98715153.720 6  24107239.891                    24107251.758
 107180612.318 8  83517389.613 8  20395792.625                    20395799.164
 111845971.361 8  87152822.39446  21283601.930                    21283609.594
 118762199.865 7  92542014.36345  22599692.453                    22599699.902
 115767503.988 7  90208314.03945  22029781.016                    22029788.965
 116437162.888 7  90730280.05844  22157260.625                    22157269.379
 127201176.140 6  99117809.64843  24205595.586                    24205606.484
 11  8 11 18 31 30.0000000  0 10G24G17G19G01G07G08G28G11G13G23
 122841960.703 6  95721091.78443  23376042.680                    23376054.414
 129036111.345 6 100547700.901 6  24554760.813                    24554774.684
 116970707.032 7  91146025.76845  22258787.086                    22258793.488
 126675369.824 6  98708216.353 7  24105545.445                    24105557.711
 107161355.998 8  83502384.693 8  20392128.391                    20392135.023
 111781145.435 8  87102308.69746  21271265.891                    21271273.496
 118728272.270 7  92515577.30945  22593236.031                    22593243.355
 115718328.114 7  90169995.20445  22020422.930                    22020430.988
 116537039.678 7  90808106.02045  22176266.875                    22176275.715
 127316056.091 6  99207326.15343  24227456.242                    24227467.465
 11  8 11 18 32  0.0000000  0 10G24G17G19G01G07G08G28G11G13G23
 122771025.357 6  95665817.64343  23362544.461                    23362555.762
 128931787.867 6 100466410.149 6  24534908.508                    24534922.848
 117053266.286 7  91210357.61845  22274497.789                    22274503.750
 126666927.474 6  98701637.998 6  24103938.883                    24103950.633
 107142452.995 8  83487655.085 8  20388531.258                    20388537.754
 111716488.186 8  87051926.43446  21258961.922                    21258969.883
 118694475.675 7  92489242.34445  22586804.719                    22586811.707
 115669568.968 7  90132001.08145  22011144.531                    22011152.047
 116637183.067 7  90886139.72944  22195323.664                    22195332.031
 127430934.604 6  99296841.51243  24249317.313                    24249327.957
 11  8 11 18 32 30.0000000  0 10G24G17G19G01G07G08G28G11G13G23
 122700234.892 7  95610656.37643  23349073.422                    23349084.793
 128827574.057 6 100385204.843 6  24515077.172                    24515091.176
 117136185.091 7  91274969.62945  22290276.750                    22290282.648
 126658946.842 6  98695419.473 7  24102420.328                    24102432.266
 107123905.135 8  83473202.206 8  20385001.453                    20385008.078
 111652001.837 8  87001677.33746  21246690.508                    21246697.879
 118660809.349 7  92463008.87045  22580398.391                    22580405.309
 115621229.150 7  90094333.71645  22001945.570                    22001953.375
 116737590.485 7  90964379.15945  22214430.656                    22214438.934
 127545809.312 6  99386353.94143  24271177.094                    24271188.703
 11  8 11 18 33  0.0000000  0 10G24G17G19G01G07G08G28G11G13G23
 122629592.471 7  95555610.49243  23335630.133                    23335642.055
 128723471.990 6 100304086.636 6  24495266.492                    24495280.652
 117219460.432 7  91339859.47445  22306123.711                    22306129.020
 126651429.671 6  98689562.044 7  24100989.414                    24101001.582
 107105714.210 8  83459027.470 7  20381539.820                    20381546.406
 111587688.751 8  86951563.25745  21234452.203                    21234459.719
 118627272.660 7  92436876.42545  22574016.570                    22574023.555
 115573311.644 7  90056995.42245  21992827.172                    21992834.875
 116838258.826 7  91042821.91144  22233587.328                    22233596.211
 127660677.501 6  99475861.27343  24293036.766                    24293048.520
 11  8 11 18 33 30.0000000  0 10G24G17G19G01G07G08G28G11G13G23
 122559101.156 7  95500682.33243  23322216.102                    23322227.227
 128619483.834 6 100223057.155 6  24475477.648                    24475492.125
 117303089.408 7  91405024.86745  22322037.344                    22322043.609
 126644376.886 6  98684066.482 7  24099646.891                    24099659.555
 107087881.861 8  83445132.136 8  20378146.555                    20378152.918
 111523551.089 8  86901585.87745  21222247.648                    21222255.020
 118593864.613 7  92410844.22045  22567659.094                    22567666.195
 115525818.593 7  90019987.86644  21983789.352                    21983797.250
 116939184.867 7  91121465.46044  22252793.453                    22252801.313
 127775536.364 6  99565361.33343  24314894.000                    24314905.555
 11  8 11 18 34  0.0000000  0 10G24G17G19G01G07G08G28G11G13G23
 122488764.048 7  95445874.31343  23308831.547                    23308843.020
 128515611.356 6 100142117.797 6  24455711.930                    24455725.910
 117387069.269 7  91470463.67645  22338018.688                    22338024.465
 126637789.519 6  98678933.565 6  24098393.703                    24098405.422
 107070409.764 8  83431517.521 8  20374821.609                    20374828.379
 111459590.887 8  86851746.77746  21210075.945                    21210083.809
 118560583.984 7  92384911.30545  22561326.430                    22561333.246
 115478752.217 7  89983312.78545  21974832.898                    21974841.148
 117040365.428 7  91200307.33645  22272047.031                    22272055.602
 127890383.075 6  99654851.90243  24336748.891                    24336760.027
 11  8 11 18 34 30.0000000  0 10G24G17G19G01G07G08G28G11G13G23
 122418584.266 7  95391188.89343  23295476.313                    23295487.699
 128411856.817 6 100061270.364 6  24435967.797                    24435981.953
 117471397.582 7  91536174.00845  22354065.680                    22354071.496
 126631669.020 6  98674164.396 7  24097229.102                    24097241.016
 107053300.028 8  83418185.268 8  20371566.148                    20371572.668
 111395810.432 8  86802047.73345  21197938.953                    21197946.551
 118527430.295 7  92359077.29645  22555016.867                    22555024.395
 115432115.364 7  89946972.40045  21965958.438                    21965966.441
 117141797.823 7  91279345.46444  22291349.398                    22291357.910
 128005215.100 5  99744331.03343  24358600.469                    24358612.410
 11  8 11 18 35  0.0000000  0 10G24G17G19G01G07G08G28G11G13G23
 122348565.232 7  95336628.69744  23282152.125                    23282163.141
 128308222.602 6  99980516.652 6  24416246.805                    24416260.711
 117556071.354 7  91602153.53545  22370178.109                    22370184.207
 126626016.343 6  98669759.756 7  24096153.391                    24096165.313
 107036554.421 8  83405136.746 8  20368379.063                    20368386.168
 111332212.247 8  86752490.70146  21185836.844                    21185844.191
 118494402.857 7  92333341.67045  22548732.008                    22548739.355
 115385910.858 7  89910968.90345  21957166.016                    21957173.836
 117243479.145 7  91358577.54244  22310698.359                    22310707.148
 128120030.086 5  99833796.86942  24380449.125                    24380461.129
 11  8 11 18 35 30.0000000  0 10G24G17G19G01G07G08G28G11G13G23
 122278709.774 7  95282195.96943  23268858.719                    23268869.699
 128204710.790 6  99899858.305 6  24396548.398                    24396562.777
 117641087.939 7  91668400.20045  22386356.445                    22386362.117
 126620832.706 6  98665720.598 6  24095167.258                    24095179.219
 107020174.627 8  83392373.271 8  20365262.391                    20365269.180
 111268798.430 8  86703077.35046  21173769.680                    21173777.066
 118461500.566 7  92307703.56445  22542470.625                    22542478.492
 115340140.923 7  89875304.03745  21948456.086                    21948464.363
 117345406.589 7  91438001.40444  22330094.719                    22330103.387
 128234824.945 6  99923247.04442  24402294.516                    24402306.301
 11  8 11 18 36  0.0000000  0 10G24G17G19G01G07G08G28G11G13G23
 122209020.809 7  95227892.96943  23255597.813                    23255607.988
 128101323.193 6  99819296.713 6  24376873.891                    24376888.348
 117726444.183 7  91734911.52645  22402599.734                    22402605.273
 126616119.202 6  98662047.760 7  24094269.789                    24094282.801
 107004162.271 8  83379896.114 8  20362215.016                    20362222.160
 111205571.128 8  86653809.32245  21161737.867                    21161745.219
 118428722.578 7  92282162.31445  22536233.563                    22536240.438
 115294807.814 7  89839979.55045  21939828.938                    21939837.270
 117447576.445 7  91517614.16644  22349536.352                    22349545.914
 128349597.053 6 100012679.48243  24424134.617                    24424146.703
 11  8 11 18 36 30.0000000  0 10G24G17G19G01G07G08G28G11G13G23
 122139502.043 7  95173722.57843  23242369.273                    23242379.336
 127998062.064 6  99738833.693 6  24357224.773                    24357238.621
 117812137.398 7  91801685.41945  22418906.422                    22418912.305
 126611876.713 6  98658741.921 6  24093462.250                    24093474.180
 106988519.271 8  83367706.763 8  20359238.430                    20359245.250
 111142532.862 8  86604688.61046  21149742.047                    21149749.254
 118396068.040 7  92256717.24445  22530019.727                    22530026.828
 115249914.277 7  89804997.60545  21931286.313                    21931294.223
 117549986.167 7  91597413.82945  22369025.109                    22369034.402
 128464343.862 6 100102092.18642  24445970.328                    24445983.480
 11  8 11 18 37  0.0000000  0  9G24G17G19G01G07G08G28G11G13
 122070156.765 7  95119687.38343  23229172.320                    23229183.316
 127894929.750 6  99658471.032 6  24337598.688                    24337612.496
 117898165.369 7  91868720.17645  22435276.992                    22435282.523
 126608107.198 6  98655804.605 6  24092744.508                    24092757.465
 106973247.502 8  83355806.674 8  20356332.516                    20356339.387
 111079686.390 8  86555717.35346  21137782.320                    21137790.371
 118363536.529 7  92231368.05045  22523828.531                    22523836.117
 115205463.235 7  89770360.44845  21922828.055                    21922835.684
 117652632.923 7  91677398.19444  22388558.195                    22388567.477
 11  8 11 18 37 30.0000000  0  9G24G17G19G01G07G08G28G11G13
 122000987.763 7  95065789.52443  23216009.945                    23216021.219
 127791928.149 6  99578210.185 6  24317998.211                    24318011.676
 117984524.913 7  91936013.31045  22451711.164                    22451716.406
 126604810.965 6  98653236.087 6  24092117.219                    24092129.309
 106958348.872 8  83344197.342 8  20353497.336                    20353504.051
 111017033.906 8  86506897.25046  21125859.969                    21125868.035
 118331126.983 7  92206113.88645  22517661.305                    22517668.480
 115161456.839 7  89736069.77545  21914453.570                    21914461.676
 117755513.114 7  91757564.46544  22408135.531                    22408145.016
 11  8 11 18 38  0.0000000  0  9G24G17G19G01G07G08G28G11G13
 121931997.380 7  95012030.87143  23202881.469                    23202893.063
 127689058.589 6  99498052.267 6  24298422.781                    24298436.266
 118071212.983 7  92003562.41645  22468206.727                    22468213.012
 126601988.607 6  98651036.804 6  24091580.438                    24091592.215
 106943824.063 8  83332879.301 8  20350733.258                    20350740.129
 110954576.659 7  86458229.27546  21113974.938                    21113982.477
 118298837.436 7  92180953.23745  22511516.922                    22511524.262
 115117896.514 7  89702126.68445  21906164.508                    21906172.375
 117858623.207 7  91837909.86944  22427756.406                    22427765.828
 11  8 11 18 38 30.0000000  0  9G24G17G19G01G07G08G28G11G13
 121863189.340 7  94958414.26343  23189787.906                    23189799.043
 127586323.542 6  99417999.144 6  24278873.125                    24278885.828
 118158226.702 7  92071365.26845  22484765.250                    22484771.016
 126599641.426 6  98649207.774 6  24091135.148                    24091146.160
 106929675.139 8  83321854.163 8  20348040.813                    20348047.500
 110892317.461 8  86409715.63146  21102127.266                    21102135.027
 118266667.743 7  92155885.96145  22505395.422                    22505401.980
 115074785.188 7  89668533.48745  21897960.570                    21897968.352
 117961960.508 7  91918432.31044  22447421.258                    22447430.891
 11  8 11 18 39  0.0000000  0  9G24G17G19G01G07G08G28G11G13
 121794566.245 6  94904941.80543  23176729.445                    23176740.500
 127483725.037 6  99338052.437 6  24259349.547                    24259362.742
 118245562.983 7  92139419.49045  22501385.180                    22501390.637
 126597770.188 6  98647749.610 6  24090778.203                    24090790.508
 106915903.604 8  83311123.084 8  20345420.047                    20345426.785
 110830258.193 8  86361357.77146  21090317.852                    21090325.168
 118234616.830 7  92130911.24245  22499296.594                    22499303.430
 115032125.090 7  89635291.88045  21889842.273                    21889850.352
 118065521.622 7  91999129.15944  22467128.617                    22467137.797
 11  8 11 18 39 30.0000000  0  9G24G17G19G01G07G08G28G11G13
 121726131.573 7  94851616.12344  23163706.789                    23163717.508
 127381265.295 6  99258213.871 6  24239851.328                    24239864.965
 118333219.433 7  92207723.17645  22518064.586                    22518071.027
 126596376.231 6  98646663.338 6  24090513.336                    24090525.605
 106902511.489 8  83300687.660 8  20342871.570                    20342878.824
 110768401.433 8  86313157.71445  21078546.977                    21078554.219
 118202683.751 7  92106028.35945  22493218.930                    22493226.688
 114989918.787 7  89602403.89445  21881810.914                    21881818.496
 118169304.176 7  92079998.57344  22486877.797                    22486887.074
 11  8 11 18 40  0.0000000  0 10G24G17G26G19G01G07G08G28G11G13
 121657888.426 6  94798439.68644  23150719.953                    23150731.488
 127278946.121 6  99178484.851 6  24220380.336                    24220394.047
 127405924.97116  99277426.13653  24244552.234                    24244562.402
 118421192.997 7  92276273.97545  22534805.867                    22534811.895
 126595460.108 6  98645949.426 6  24090338.289                    24090350.867
 106889500.542 8  83290549.248 8  20340395.570                    20340402.684
 110706749.633 8  86265117.36446  21066815.094                    21066822.461
 118170867.845 7  92081236.77245  22487165.125                    22487171.875
 114948168.126 7  89569870.95945  21873866.219                    21873874.063
 118273304.930 7  92161038.00444  22506668.648                    22506678.070
 11  8 11 18 40 30.0000000  0 10G24G17G26G19G01G07G08G28G11G13
 121589839.581 7  94745414.66644  23137770.984                    23137782.039
 127176769.513 6  99098866.969 6  24200937.078                    24200950.199
 127317214.497 6  99208301.15243  24227670.320                    24227680.852
 118509480.619 7  92345069.51845  22551606.969                    22551612.199
 126595022.216 6  98645608.181 6  24090255.484                    24090267.512
 106876871.971 8  83280708.800 8  20337993.016                    20337999.246
 110645304.852 8  86217238.32646  21055122.703                    21055130.156
 118139167.826 7  92056535.49245  22481132.508                    22481140.035
 114906875.706 7  89537695.09145  21866008.094                    21866016.496
 118377520.137 7  92242244.54144  22526500.031                    22526509.613
 11  8 11 18 41  0.0000000  0 10G24G17G26G19G01G07G08G28G11G13
 121521987.978 7  94692543.31143  23124858.563                    23124870.293
 127074736.908 6  99019361.307 6  24181519.992                    24181533.559
 127228880.564 6  99139469.57443  24210861.188                    24210871.352
 118598079.298 7  92414107.43145  22568466.414                    22568472.086
 126595063.863 6  98645640.607 6  24090263.531                    24090275.563
 106864627.208 8  83271167.418 8  20335662.758                    20335669.734
 110584069.142 8  86169522.19646  21043469.766                    21043477.215
 118107582.480 7  92031923.56745  22475122.227                    22475128.965
 114866043.496 7  89505877.83045  21858237.938                    21858246.012
 118481946.725 7  92323615.77544  22546371.758                    22546381.543
 11  8 11 18 41 30.0000000  0 10G24G17G26G19G01G07G08G28G11G13
 121454337.327 7  94639828.54844  23111985.469                    23111996.527
 126972851.090 6  98939970.071 6  24162132.273                    24162144.781
 127140926.782 6  99070934.25443  24194124.656                    24194134.945
 118686986.581 7  92483385.79945  22585385.063                    22585390.328
 126595586.362 6  98646047.712 6  24090362.289                    24090374.648
 106852768.475 8  83261926.835 8  20333405.844                    20333412.684
 110523045.498 8  86121971.31446  21031857.703                    21031864.852
 118076111.978 7  92007401.12245  22469133.852                    22469141.023
 114825674.492 7  89474421.51845  21850556.172                    21850563.898
 118586582.205 7  92405149.78544  22566283.023                    22566293.066
 11  8 11 18 42  0.0000000  0 10G24G17G26G19G01G07G08G28G11G13
 121386890.626 7  94587272.70544  23099151.297                    23099162.480
 126871114.063 6  98860694.799 6  24142771.555                    24142784.438
 127053355.601 6  99002697.04743  24177460.336                    24177469.996
 118776199.765 7  92552902.54345  22602361.719                    22602367.414
 126596590.118 6  98646829.875 6  24090553.227                    24090566.008
 106841297.216 8  83252988.185 8  20331223.695                    20331230.063
 110462236.064 8  86074587.36246  21020285.797                    21020292.949
 118044755.076 7  91982967.21745  22463166.773                    22463173.848
 114785770.451 7  89443327.51545  21842962.844                    21842970.727
 118691423.276 7  92486843.98944  22586234.492                    22586243.477
 11  8 11 18 42 30.0000000  0 10G24G17G26G19G01G07G08G28G11G13
 121319650.909 6  94534878.15244  23086355.289                    23086366.676
 126769527.633 6  98781536.871 6  24123439.469                    24123453.168
 126966170.031 6  98934760.29543  24160869.352                    24160879.141
 118865716.220 7  92622655.59845  22619396.344                    22619401.520
 126598076.157 6  98647987.824 6  24090836.461                    24090848.219
 106830215.323 8  83244352.930 8  20329114.367                    20329120.770
 110401643.531 8  86027372.41246  21008755.188                    21008762.629
 118013510.787 7  91958621.05845  22457220.805                    22457228.191
 114746333.793 7  89412597.71545  21835457.938                    21835465.594
 118796466.746 7  92568695.90644  22606223.773                    22606232.789
 11  8 11 18 43  0.0000000  0 10G24G17G26G19G01G07G08G28G11G13
 121252621.398 7  94482647.41943  23073600.609                    23073611.449
 126668094.538 6  98702498.455 6  24104137.938                    24104151.102
 126879372.815 6  98867126.15743  24144352.688                    24144361.766
 118955533.154 7  92692642.80645  22636488.047                    22636493.406
 126600045.247 6  98649522.236 6  24091211.172                    24091222.953
 106819524.673 8  83236022.543 8  20327079.875                    20327086.516
 110341270.215 8  85980328.28746  20997266.492                    20997273.699
 117982378.290 7  91934362.00045  22451296.805                    22451303.930
 114707367.180 7  89382234.18345  21828042.656                    21828050.340
 118901710.277 7  92650703.72044  22626250.516                    22626260.016
 11  8 11 18 43 30.0000000  0 10G24G17G26G19G01G07G08G28G11G13
 121185805.293 7  94430582.97244  23060885.570                    23060896.988
 126566816.196 6  98623580.600 6  24084865.273                    24084877.598
 126792966.473 6  98799796.60143  24127910.477                    24127919.441
 119045647.229 7  92762861.54345  22653635.430                    22653642.375
 126602498.379 6  98651433.786 6  24091677.516                    24091690.406
 106809226.557 8  83227998.030 8  20325119.883                    20325126.875
 110281117.852 8  85933456.33346  20985819.797                    20985827.379
 117951356.914 7  91910189.53845  22445393.219                    22445400.785
 114668872.482 7  89352238.37045  21820717.477                    21820725.656
 119007150.157 7  92732864.53144  22646315.836                    22646324.910
 11  8 11 18 44  0.0000000  0 10G24G17G26G19G01G07G08G28G11G13
 121119205.359 7  94378686.95044  23048212.344                    23048222.922
 126465694.460 6  98544784.780 6  24065621.906                    24065634.734
 126706953.928 6  98732773.91743  24111541.891                    24111551.660
 119136055.901 7  92833309.80445  22670840.094                    22670846.051
 126605435.935 6  98653722.831 6  24092237.633                    24092248.805
 106799322.404 8  83220280.494 8  20323235.742                    20323242.266
 110221188.984 8  85886758.52146  20974415.805                    20974423.156
 117920445.384 7  91886102.67245  22439511.234                    22439517.957
 114630851.760 7  89322611.88845  21813482.703                    21813490.109
 119112783.603 7  92815176.16544  22666416.773                    22666426.063
 11  8 11 18 44 30.0000000  0 10G24G17G26G19G01G07G08G28G11G13
 121052824.887 7  94326962.00044  23035580.594                    23035591.316
 126364731.282 6  98466112.480 6  24046408.531                    24046421.797
 126621338.027 6  98666060.25443  24095249.453                    24095259.617
 119226756.013 7  92903985.19645  22688099.719                    22688105.832
 126608858.960 6  98656390.186 6  24092888.133                    24092900.035
 106789813.980 8  83212871.329 8  20321426.195                    20321432.715
 110161486.276 8  85840236.93046  20963054.797                    20963061.996
 117889643.588 7  91862101.30545  22433649.555                    22433656.754
 114593307.434 7  89293356.60445  21806337.891                    21806345.926
 119218607.314 7  92897636.05644  22686554.352                    22686564.215
 11  8 11 18 45  0.0000000  0 10G24G17G26G19G01G07G08G28G11G13
 120986667.277 7  94275410.72143  23022990.344                    23023001.969
 126263929.026 6  98387565.589 6  24027227.508                    24027239.656
 126536121.478 6  98599657.81443  24079033.789                    24079043.465
 119317745.491 7  92974886.02545  22705414.422                    22705420.766
 126612767.867 6  98659436.144 6  24093631.883                    24093643.602
 106780703.157 8  83205771.979 8  20319692.555                    20319699.152
 110102012.445 8  85793893.69546  20951737.414                    20951744.762
 117858949.775 7  91838184.07345  22427808.742                    22427816.262
 114556241.438 7  89264474.05845  21799284.477                    21799291.652
 119324618.136 7  92980241.76744  22706728.297                    22706737.480
 11  8 11 18 45 30.0000000  0 10G24G17G26G19G01G07G08G28G11G13
 120920735.175 7  94224035.17344  23010443.805                    23010455.305
 126163289.442 6  98309145.422 6  24008075.289                    24008088.352
 126451306.840 6  98533568.52343  24062893.133                    24062902.895
 119409020.638 7  93046009.47845  22722783.297                    22722789.641
 126617163.323 6  98662861.232 6  24094468.500                    24094480.523
 106771990.790 8  83198983.103 8  20318034.563                    20318041.453
 110042769.207 8  85747730.13346  20940463.445                    20940471.293
 117828363.388 7  91814350.56345  22421988.625                    22421995.527
 114519655.768 7  89235965.78745  21792322.117                    21792330.090
 119430813.211 7  93062991.03844  22726936.609                    22726946.203
 11  8 11 18 46  0.0000000  0 10G24G17G26G19G01G07G08G28G11G13
 120855031.867 7  94172837.93943  22997940.766                    22997951.770
 126062814.747 7  98230853.738 6  23988956.000                    23988968.332
 126366896.903 6  98467794.55543  24046831.570                    24046840.473
 119500579.209 7  93117353.78044  22740206.977                    22740212.910
 126622046.443 6  98666666.279 6  24095398.273                    24095409.234
 106763679.188 8  83192506.520 8  20316453.055                    20316459.770
 109983759.283 8  85701748.38746  20929234.484                    20929241.809
 117797883.727 7  91790600.20145  22416188.359                    22416195.156
 114483553.084 7  89207833.86245  21785451.992                    21785459.820
 119537189.529 7  93145881.52744  22747179.094                    22747189.180
 11  8 11 18 46 30.0000000  0 10G24G17G26G19G01G07G08G28G11G13
 120789560.228 7  94121821.18543  22985481.422                    22985493.090
 125962506.485 6  98152691.707 6  23969868.164                    23969880.180
 126282894.529 6  98402338.24643  24030846.063                    24030855.148
 119592418.224 7  93188916.60745  22757682.953                    22757689.500
 126627417.106 6  98670851.257 6  24096419.430                    24096431.313
 106755769.579 8  83186343.174 8  20314947.852                    20314954.867
 109924984.541 8  85655949.87646  20918050.203                    20918057.313
 117767509.820 7  91766932.24645  22410408.289                    22410415.582
 114447934.944 7  89180079.51145  21778674.578                    21778682.285
 119643743.496 7  93228910.46244  22767455.789                    22767465.352
 11  8 11 18 47  0.0000000  0 10G24G17G26G19G01G07G08G28G11G13
 120724323.476 7  94070987.51343  22973067.586                    22973079.102
 125862366.774 6  98074661.025 6  23950810.938                    23950823.691
 126199302.331 6  98337201.48143  24014938.406                    24014948.148
 119684534.533 7  93260695.49245  22775212.438                    22775218.258
 126633276.305 6  98675416.912 6  24097534.563                    24097546.586
 106748263.308 8  83180494.132 8  20313519.297                    20313526.289
 109866447.392 8  85610336.51846  20906911.023                    20906918.195
 117737240.686 7  91743345.92945  22404648.391                    22404655.633
 114412803.558 7  89152704.43645  21771988.852                    21771996.430
 119750472.509 7  93312075.78944  22787766.047                    22787775.141
 11  8 11 18 47 30.0000000  0 10G24G17G26G19G01G07G08G28G11G13
 120659324.805 7  94020339.35244  22960699.055                    22960710.176
 125762398.004 6  97996763.544 6  23931787.750                    23931800.285
 126116123.260 6  98272386.70843  23999110.164                    23999119.824
 119776925.837 7  93332688.66445  22792794.180                    22792799.766
 126639624.830 6  98680363.834 6  24098742.773                    24098754.418
 106741162.485 8  83174961.015 8  20312168.313                    20312175.137
 109808151.075 8  85564910.81746  20895817.461                    20895824.598
 117707075.725 7  91719840.79045  22398908.156                    22398914.863
 114378161.541 7  89125710.67545  21765397.070                    21765404.180
 119857373.610 7  93395375.20444  22808108.602                    22808118.398
 11  8 11 18 48  0.0000000  0 10G24G17G26G19G01G07G08G28G11G13
 120594566.791 7  93969878.72744  22948375.203                    22948386.781
 125662601.430 6  97919000.216 6  23912796.945                    23912808.930
 126033359.564 6  98207895.54843  23983360.406                    23983370.523
 119869588.869 7  93404893.58545  22810427.102                    22810433.059
 126646463.094 6  98685692.363 6  24100044.141                    24100055.805
 106734467.903 8  83169744.452 8  20310894.492                    20310901.078
 109750097.491 8  85519674.27246  20884770.305                    20884777.469
 117677013.865 7  91696415.99445  22393187.750                    22393194.629
 114344010.199 7  89099099.27945  21758898.563                    21758905.668
 119964443.147 7  93478805.87444  22828483.422                    22828493.277
 11  8 11 18 48 30.0000000  0 10G24G17G26G19G01G07G08G28G11G13
 120530052.916 6  93919608.35243  22936098.516                    22936109.949
 125562979.714 6  97841373.160 6  23893839.516                    23893851.383
 125951014.460 6  98143730.56243  23967690.977                    23967700.371
 119962520.878 7  93477308.09144  22828111.203                    22828117.559
 126653791.592 6  98691402.884 6  24101438.836                    24101450.363
 106728182.028 8  83164846.371 8  20309697.953                    20309704.941
 109692289.223 8  85474628.87146  20873769.461                    20873776.715
 117647054.610 7  91673071.15345  22387486.891                    22387493.469
 114310352.058 7  89072872.18245  21752493.227                    21752500.598
 120071678.666 7  93562365.87244  22848889.484                    22848899.457
 11  8 11 18 49  0.0000000  0 10G24G17G26G19G01G07G08G28G11G13
 120465786.034 6  93869530.42344  22923869.063                    22923879.730
 125463534.290 6  97763883.451 6  23874915.008                    23874927.160
 125869090.190 6  98079893.56143  23952101.352                    23952110.605
 120055719.036 7  93549929.98645  22845846.578                    22845852.914
 126661610.759 6  98697495.710 6  24102926.727                    24102938.418
 106722305.562 8  83160267.321 8  20308579.953                    20308586.828
 109634728.261 8  85429776.18446  20862815.969                    20862823.500
 117617196.397 7  91649805.03645  22381804.648                    22381811.289
 114277188.807 7  89047030.71745  21746182.281                    21746190.035
 120179076.695 7  93646052.50644  22869326.664                    22869337.078
 11  8 11 18 49 30.0000000  0 10G24G17G26G19G01G07G08G28G11G13
 120401769.167 6  93819647.32444  22911686.844                    22911698.297
 125364267.627 6  97686533.055 6  23856024.727                    23856037.414
 125787589.580 6  98016386.62243  23936592.203                    23936601.473
 120149180.824 7  93622757.32044  22863631.836                    22863638.258
 126669921.403 6  98703971.529 6  24104507.539                    24104519.914
 106716840.322 8  83156008.700 8  20307539.719                    20307546.402
 109577417.229 8  85385118.24346  20851910.070                    20851917.277
 117587438.926 7  91626617.41945  22376142.078                    22376149.066
 114244522.690 7  89021576.62145  21739966.219                    21739973.875
 120286634.208 7  93729863.39244  22889794.555                    22889804.918
 11  8 11 18 50  0.0000000  0 10G24G17G26G19G01G07G08G28G11G13
 120338005.382 6  93769961.41444  22899552.859                    22899563.984
 125265180.783 6  97609322.754 6  23837169.703                    23837181.773
 125706515.204 6  97953211.83243  23921164.039                    23921173.492
 120242903.116 7  93695787.64944  22881467.180                    22881472.922
 126678723.418 6  98710830.234 6  24106183.195                    24106195.074
 106711787.470 8  83152071.416 8  20306578.180                    20306585.047
 109520358.472 8  85340656.87946  20841052.055                    20841059.879
 117557781.056 7  91603507.40945  22370498.047                    22370505.438
 114212355.321 7  88996511.16745  21733844.727                    21733852.313
 120394347.753 7  93813795.85544  22910292.281                    22910301.879
 11  8 11 18 50 30.0000000  0 10G24G17G26G19G01G07G08G28G11G13
 120274497.950 6  93720475.27444  22887468.141                    22887478.098
 125166276.406 6  97532254.617 6  23818348.219                    23818360.531
 125625869.830 6  97890371.35743  23905817.258                    23905827.293
 120336883.503 7  93769019.09344  22899350.617                    22899356.867
 126688018.118 6  98718072.848 6  24107951.883                    24107963.844
 106707148.936 8  83148456.980 8  20305695.570                    20305702.434
 109463554.919 8  85296394.38046  20830243.156                    20830250.664
 117528222.256 7  91580474.60345  22364872.727                    22364880.480
 114180689.009 7  88971836.13945  21727819.078                    21727826.773
 120502215.033 7  93897848.13344  22930817.766                    22930829.090
 11  8 11 18 51  0.0000000  0 10G24G17G26G19G01G07G08G28G11G13
 120211249.707 7  93671191.07844  22875432.047                    22875443.270
 125067555.953 6  97455329.801 6  23799561.820                    23799574.539
 125545655.868 6  97827867.04143  23890553.242                    23890563.770
 120431118.641 7  93842449.04744  22917282.445                    22917289.066
 126697805.220 6  98725699.153 6  24109814.320                    24109826.402
 106702925.938 8  83145166.333 8  20304892.125                    20304898.461
 109407008.435 8  85252332.19046  20819482.313                    20819489.504
 117498761.246 7  91557517.98845  22359266.891                    22359273.848
 114149525.375 7  88947552.82145  21721889.180                    21721896.371
 120610232.571 7  93982017.50444  22951373.641                    22951384.031
 11  8 11 18 51 30.0000000  0 10G24G17G26G19G01G07G08G28G11G13
 120148263.568 7  93622111.14144  22863445.883                    22863456.793
 124969021.820 7  97378550.179 6  23780811.133                    23780823.898
 125465875.937 6  97765700.93643  23875372.297                    23875381.754
 120525605.753 7  93916075.33844  22935262.313                    22935269.328
 126708085.304 6  98733709.582 7  24111771.031                    24111782.637
 106699119.678 8  83142200.420 8  20304167.320                    20304174.289
 109350721.288 8  85208472.09046  20808771.672                    20808778.801
 117469397.506 7  91534637.17545  22353679.469                    22353686.594
 114118866.514 7  88923662.81145  21716054.672                    21716061.637
 120718397.174 7  94066301.44144  22971956.781                    22971967.152
 11  8 11 18 52  0.0000000  0 10G24G17G26G19G01G07G08G28G11G13
 120085542.865 7  93573237.98044  22851510.547                    22851521.355
 124870675.802 6  97301917.125 6  23762097.039                    23762108.875
 125386532.881 7  97703875.20743  23860273.047                    23860282.984
 120620341.905 7  93989895.67644  22953290.609                    22953297.633
 126718859.097 6  98742104.717 6  24113820.906                    24113832.078
 106695731.894 8  83139560.611 8  20303523.000                    20303529.977
 109294696.202 8  85164816.18846  20798110.328                    20798117.402
 117440130.210 7  91511831.51545  22348109.906                    22348117.340
 114088714.442 7  88900167.71845  21710316.992                    21710324.086
 120826705.950 7  94150697.73044  22992567.641                    22992577.965
 11  8 11 18 52 30.0000000  0 10G24G17G26G19G01G07G08G28G11G13
 120023090.311 7  93524573.77344  22839626.094                    22839636.941
 124772519.498 7  97225431.907 6  23743418.313                    23743430.500
 125307628.916 7  97642391.64843  23845258.469                    23845268.027
 120715324.611 7  94063908.14944  22971365.070                    22971372.031
 126730126.518 6  98750884.507 6  24115964.969                    24115976.766
 106692763.850 8  83137247.846 8  20302958.273                    20302965.117
 109238935.756 8  85121366.50646  20787499.234                    20787506.691
 117410958.546 7  91489100.37345  22342558.516                    22342566.039
 114059070.931 7  88877068.91045  21704676.047                    21704683.273
 120935155.764 7  94235203.89544  23013204.883                    23013215.262
 11  8 11 18 53  0.0000000  0 10G24G17G26G19G01G07G08G28G11G13
 119960909.408 7  93476121.21644  22827793.688                    22827804.414
 124674555.402 7  97149096.431 6  23724776.648                    23724788.199
 125229167.158 6  97581252.66043  23830327.516                    23830336.996
 120810550.864 7  94138110.41044  22989486.227                    22989492.793
 126741888.543 6  98760049.720 6  24118203.133                    24118215.660
 106690217.332 8  83135263.545 8  20302473.305                    20302480.305
 109183442.445 8  85078124.98146  20776939.172                    20776946.859
 117381881.544 7  91466442.97845  22337025.336                    22337032.551
 114029937.627 7  88854367.66145  21699131.469                    21699139.168
 121043743.882 7  94319817.84344  23033867.828                    23033879.254
 11  8 11 18 53 30.0000000  0 10G24G17G26G19G01G07G08G28G11G13
 119899002.926 7  93427882.47444  22816013.570                    22816024.172
 124576785.265 7  97072912.101 6  23706170.734                    23706182.668
 125151149.627 6  97520459.82043  23815481.453                    23815490.547
 120906018.145 7  94212500.45544  23007652.250                    23007659.504
 126754144.924 6  98769600.139 6  24120535.375                    24120547.648
 106688093.540 7  83133608.637 8  20302069.391                    20302076.340
 109128218.429 8  85035093.29846  20766430.539                    20766437.820
 117352898.351 7  91443858.70245  22331510.383                    22331517.332
 114001316.336 7  88832065.40745  21693685.172                    21693692.914
 121152467.016 7  94404537.01344  23054557.969                    23054569.137
 11  8 11 18 54  0.0000000  0 10G24G17G26G19G01G07G08G28G11G13
 119837373.660 7  93379859.72344  22804285.531                    22804296.102
 124479210.040 7  96996879.664 6  23687602.281                    23687614.605
 125073579.077 6  97460015.29143  23800719.633                    23800729.656
 121001723.659 7  94287076.14844  23025865.703                    23025871.445
 126766896.054 6  98779536.093 6  24122962.102                    24122973.652
 106686393.817 8  83132284.175 8  20301746.094                    20301753.320
 109073266.277 8  84992273.44846  20755973.359                    20755980.840
 117324008.206 7  91421346.92145  22326012.703                    22326019.547
 113973209.195 7  88810163.76945  21688336.789                    21688343.746
 121261321.698 7  94489358.66544  23075272.461                    23075282.547
 11  8 11 18 54 30.0000000  0 10G24G17G26G19G01G07G08G28G11G13
 119776024.746 7  93332055.42144  22792611.320                    22792621.383
 124381832.597 7  96921001.353 6  23669072.313                    23669084.121
 124996458.027 6  97399921.01943  23786044.336                    23786053.906
 121097664.377 7  94361835.12044  23044122.313                    23044128.523
 126780142.656 6  98789858.138 6  24125483.008                    24125494.105
 106685119.519 8  83131291.206 8  20301503.352                    20301510.777
 109018588.414 8  84949667.32846  20745568.477                    20745576.195
 117295210.210 7  91398906.96245  22320532.422                    22320539.402
 113945617.845 7  88788664.05745  21683086.148                    21683093.297
 121370305.261 7  94574280.75943  23096011.234                    23096021.828
 11  8 11 18 55  0.0000000  0 10G24G17G26G19G01G07G08G28G11G13
 119714959.285 7  93284471.99944  22780990.664                    22781000.793
 124284654.827 7  96845278.623 6  23650580.266                    23650591.195
 124919789.214 6  97340179.11943  23771455.234                    23771464.762
 121193837.534 7  94436775.21144  23062423.617                    23062429.402
 126793884.630 6  98800566.219 6  24128097.227                    24128109.305
 106684272.034 8  83130630.820 8  20301342.453                    20301349.223
 108964187.324 8  84907276.88146  20735216.063                    20735224.172
 117266503.712 7  91376538.29945  22315069.672                    22315077.051
 113918544.159 7  88767567.72045  21677934.078                    21677941.211
 121479414.603 7  94659300.85444  23116773.836                    23116785.285
 11  8 11 18 55 30.0000000  0 10G24G17G26G19G01G07G08G28G11G13
 119654180.254 7  93237111.75444  22769424.758                    22769435.273
 124187678.384 7  96769712.776 6  23632126.023                    23632136.938
 124843574.928 6  97280791.45043  23756951.297                    23756961.602
 121290240.283 7  94511894.19644  23080768.266                    23080775.063
 126808122.364 6  98811660.590 6  24130807.195                    24130818.762
 106683852.703 8  83130304.061 8  20301262.352                    20301269.195
 108910065.459 8  84865104.00746  20724917.273                    20724924.695
 117237887.645 7  91354240.09345  22309624.250                    22309631.262
 113891989.637 7  88746875.92645  21672880.648                    21672888.277
 121588646.741 7  94744416.61243  23137559.938                    23137570.727
 11  8 11 18 56  0.0000000  0 10G24G17G26G19G01G07G08G28G11G13
 119593690.720 7  93189977.08844  22757914.102                    22757924.922
 124090905.159 7  96694305.293 6  23613709.734                    23613721.324
 124767817.764 6  97221759.93543  23742535.961                    23742544.902
 121386870.178 7  94587190.17744  23099156.703                    23099162.555
 126822856.151 6  98823141.484 6  24133610.391                    24133622.598
 106683862.946 8  83130312.033 8  20301264.609                    20301271.359
 108856225.632 8  84823150.89346  20714672.203                    20714679.410
 117209361.426 7  91332011.91645  22304195.930                    22304202.945
 113865956.108 7  88726590.09645  21667927.320                    21667934.160
 121697998.462 7  94829625.54843  23158369.805                    23158379.883
 11  8 11 18 56 30.0000000  0 10G24G17G26G19G01G07G08G28G11G13
 119533493.819 7  93143070.44944  22746458.586                    22746469.645
 123994337.003 7  96619057.611 6  23595333.867                    23595344.887
 124692520.433 6  97163086.69643  23728207.352                    23728216.191
 121483724.267 7  94662660.85544  23117586.719                    23117593.281
 126838086.470 6  98835009.330 6  24136508.734                    24136520.777
 106684304.430 8  83130656.035 8  20301348.680                    20301355.309
 108802669.986 8  84781419.22746  20704480.688                    20704488.133
 117180924.440 7  91309853.26045  22298784.711                    22298791.570
 113840445.556 7  88706711.79345  21663072.828                    21663079.977
 121807467.243 7  94914925.73343  23179200.625                    23179211.234
 11  8 11 18 57  0.0000000  0 10G24G17G26G19G01G07G08G28G11G13
 119473592.685 7  93096394.27144  22735059.742                    22735070.367
 123897975.884 7  96543971.233 6  23576996.930                    23577007.500
 124617685.556 6  97104773.84543  23713966.141                    23713975.777
 121580799.560 7  94738303.89544  23136059.266                    23136065.898
 126853813.125 6  98847263.884 6  24139501.641                    24139513.711
 106685178.121 8  83131336.823 8  20301514.625                    20301521.449
 108749400.940 8  84739910.88846  20694343.430                    20694350.891
 117152575.540 7  91287763.25045  22293389.875                    22293396.516
 113815459.465 7  88687242.14345  21658317.617                    21658325.199
 121917049.603 7  95000314.37943  23200054.344                    23200064.457
 11  8 11 18 57 30.0000000  0 10G24G17G26G19G01G07G08G28G11G13
 119413989.519 7  93049950.27144  22723717.773                    22723728.004
 123801823.023 7  96469047.138 6  23558699.195                    23558710.625
 124543314.621 6  97046822.52243  23699814.664                    23699823.570
 121678093.213 7  94814117.08044  23154575.016                    23154580.805
 126870035.547 6  98859904.814 7  24142588.383                    24142600.582
 106686484.972 8  83132355.135 8  20301763.211                    20301770.516
 108696420.396 8  84698627.35646  20684261.953                    20684269.199
 117124313.850 7  91265741.19345  22288011.680                    22288018.996
 113790999.224 7  88668182.25445  21653663.461                    21653670.457
 122026742.117 7  95085788.87743  23220927.969                    23220938.156
 11  8 11 18 58  0.0000000  0 10G24G17G26G19G01G07G08G28G11G13
 119354687.558 7  93003740.98944  22712433.023                    22712443.594
 123705880.938 7  96394287.279 6  23540442.367                    23540453.383
 124469410.492 7  96989234.91443  23685750.656                    23685759.578
 121775602.479 7  94890098.30344  23173129.945                    23173136.770
 126886754.667 6  98872932.745 6  24145769.836                    24145781.406
 106688226.627 7  83133712.258 8  20302094.727                    20302101.758
 108643731.327 8  84657570.95046  20674235.555                    20674242.883
 117096138.575 7  91243786.46045  22282650.359                    22282656.902
 113767066.706 7  88649533.57245  21649108.594                    21649116.180
 122136542.202 7  95171347.20043  23241823.055                    23241832.324
 11  8 11 18 58 30.0000000  0 10G24G17G26G19G01G07G08G28G11G13
 119295689.950 7  92957768.87444  22701205.781                    22701216.109
 123610151.537 7  96319693.133 6  23522225.500                    23522236.047
 124395975.845 6  96932013.12943  23671776.430                    23671785.270
 121873325.117 7  94966245.77544  23191725.156                    23191732.391
 126903970.448 6  98886347.673 6  24149045.664                    24149057.195
 106690404.637 8  83135409.399 8  20302509.336                    20302516.059
 108591336.415 8  84616743.75046  20664264.922                    20664272.766
 117068049.189 7  91221898.65745  22277304.945                    22277312.020
 113743663.328 7  88631297.20145  21644655.211                    21644662.711
 122246446.855 7  95256987.00644  23262737.617                    23262747.137
 11  8 11 18 59  0.0000000  0 10G24G17G26G19G01G07G08G28G11G13
 119236999.610 6  92912036.18644  22690037.656                    22690047.809
 123514635.839 7  96245265.485 6  23504049.359                    23504060.398
 124323012.979 6  96875158.98943  23657892.328                    23657901.242
 121971257.648 7  95042556.78144  23210361.508                    23210368.617
 126921683.309 6  98900149.957 6  24152416.453                    24152427.980
 106693019.817 8  83137447.163 8  20303007.133                    20303013.855
 108539237.862 8  84576147.47846  20654351.047                    20654358.730
 117040044.797 7  91200077.07545  22271975.984                    22271983.098
 113720790.737 8  88613474.43145  21640303.336                    21640309.891
 122356452.779 7  95342705.71644  23283670.313                    23283680.488
 11  8 11 18 59 30.0000000  0 10G24G17G26G19G01G07G08G28G11G13
 119178619.242 7  92866545.04344  22678928.359                    22678938.262
 123419335.979 7  96171006.031 6  23485914.172                    23485925.160
 124250524.087 7  96818674.16043  23644097.273                    23644106.840
 122069397.569 7  95119029.37944  23229037.508                    23229044.203
 126939892.390 6  98914338.847 6  24155881.813                    24155893.914
 106696073.133 8  83139826.363 8  20303587.836                    20303595.086
 108487437.964 8  84535783.91646  20644493.938                    20644501.469
 117012124.358 7  91178320.92245  22266663.203                    22266669.941
 113698450.307 8  88596066.32245  21636051.383                    21636058.563
 122466556.805 7  95428500.84044  23304623.086                    23304633.316
 11  8 11 19  0  0.0000000  0 10G24G17G26G19G01G07G08G28G11G13
 119120552.115 7  92821297.99744  22667878.195                    22667888.602
 123324254.249 7  96096916.546 6  23467820.172                    23467831.539
 124178511.761 6  96762560.65543  23630394.375                    23630403.289
 122167742.471 7  95195661.72344  23247751.969                    23247757.914
 126958598.499 6  98928915.055 7  24159440.992                    24159452.855
 106699566.879 8  83142548.756 8  20304252.945                    20304260.090
 108435939.483 8  84495655.23946  20634693.906                    20634701.602
 116984287.488 7  91156629.87845  22261365.648                    22261372.723
 113676644.060 8  88579074.45245  21631901.969                    21631908.996
 122576756.186 7  95514370.30444  23325593.242                    23325604.027
 11  8 11 19  0 30.0000000  0 10G24G17G26G19G01G07G08G28G11G13
 119062800.842 6  92776297.07444  22656888.734                    22656899.004
 123229391.989 7  96022998.076 6  23449769.336                    23449779.699
 124106978.367 7  96706820.39143  23616781.867                    23616790.445
 122266289.278 7  95272451.39944  23266504.289                    23266510.508
 126977801.335 6  98943878.283 7  24163095.211                    24163107.344
 106703501.293 8  83145614.512 8  20305001.328                    20305008.441
 108384744.775 8  84455763.25546  20624952.148                    20624959.305
 116956533.012 7  91135003.03145  22256084.211                    22256091.141
 113655373.652 7  88562500.12445  21627854.516                    21627861.453
 122687047.439 7  95600311.33843  23346581.039                    23346592.223
 11  8 11 19  1  0.0000000  0 10G24G17G26G19G01G07G08G28G11G13
 119005368.818 7  92731544.92844  22645958.953                    22645969.840
 123134751.273 7  95949252.216 6  23431758.914                    23431770.082
 124035926.403 6  96651455.27043  23603261.313                    23603269.879
 122365035.102 7  95349396.14744  23285295.086                    23285301.410
 126997501.308 6  98959228.901 6  24166844.703                    24166855.828
 106707878.105 8  83149024.998 8  20305834.258                    20305841.426
 108333856.491 8  84416110.04746  20615268.094                    20615275.547
 116928860.526 7  91113440.07845  22250818.617                    22250824.977
 113634640.157 8  88546344.17545  21623908.781                    21623916.109
 122797428.571 7  95686322.39043  23367586.297                    23367596.590
 11  8 11 19  1 30.0000000  0 10G24G17G26G19G01G07G08G28G11G13
 118948258.584 7  92687043.54444  22635091.664                    22635102.000
 123040333.609 7  95875680.164 6  23413792.203                    23413802.238
 123965357.954 6  96596466.93443  23589832.719                    23589841.641
 122463977.443 7  95426494.03244  23304123.773                    23304129.836
 127017698.120 6  98974966.645 7  24170688.094                    24170699.793
 106712698.227 8  83152780.921 8  20306751.273                    20306758.648
 108283276.945 8  84376697.43046  20605643.406                    20605650.746
 116901268.984 7  91091940.17845  22245567.703                    22245574.836
 113614444.890 8  88530607.61745  21620065.727                    21620072.863
 122907896.184 6  95772400.84843  23388607.016                    23388618.695
 11  8 11 19  2  0.0000000  0 10G24G17G26G19G01G07G08G28G11G13
 118891473.188 7  92642795.27644  22624286.070                    22624296.074
 122946140.904 7  95802283.398 6  23395867.273                    23395877.836
 123895275.567 6  96541857.31943  23576495.914                    23576504.617
 122563113.723 7  95503743.01844  23322988.758                    23322995.039
 127038391.801 6  98991091.541 7  24174625.086                    24174637.230
 106717963.106 8  83156883.406 8  20307753.781                    20307760.375
 108233008.888 8  84337527.51546  20596077.438                    20596084.781
 116873757.651 7  91070502.79845  22240332.602                    22240339.301
 113594789.553 7  88515291.78345  21616325.977                    21616333.148
 123018447.027 7  95858544.12143  23409644.602                    23409655.676
 11  8 11 19  2 30.0000000  0 10G24G17G26G19G01G07G08G28G11G13
 118835015.426 7  92598802.31544  22613542.445                    22613552.414
 122852175.042 7  95729063.383 6  23377985.750                    23377996.527
 123825681.549 6  96487628.23143  23563252.695                    23563261.957
 122662440.806 7  95581140.71344  23341889.742                    23341896.180
 127059582.096 6  99007603.427 6  24178658.328                    24178669.641
 106723673.817 8  83161333.294 8  20308840.227                    20308847.008
 108183054.489 8  84298602.00746  20586571.844                    20586579.176
 116846325.840 7  91049127.36545  22235112.063                    22235119.371
 113575675.639 7  88500397.85145  21612688.250                    21612695.488
 123129078.126 6  95944749.96043  23430697.797                    23430708.273
 11  8 11 19  3  0.0000000  0 10G24G17G26G19G01G07G08G28G11G13
 118778888.312 7  92555067.01144  22602861.258                    22602871.820
 122758437.944 7  95656021.664 6  23360148.383                    23360158.820
 123756577.985 6  96433781.35143  23550101.992                    23550111.320
 122761956.318 7  95658685.22044  23360826.875                    23360833.699
 127081269.444 6  99024502.629 6  24182785.141                    24182796.652
 106729831.526 8  83166131.490 8  20310012.586                    20310019.359
 108133416.459 8  84259923.02646  20577125.422                    20577132.992
 116818972.872 8  91027813.36845  22229907.469                    22229913.934
 113557104.770 8  88485927.05645  21609154.250                    21609161.563
 123239786.265 6  96031015.79443  23451764.836                    23451775.559
 11  8 11 19  3 30.0000000  0 10G24G17G26G19G01G07G08G28G11G13
 118723094.625 7  92511591.49844  22592244.359                    22592254.969
 122664931.013 6  95583159.255 6  23342354.047                    23342364.500
 123687967.325 6  96380318.56243  23537046.141                    23537055.520
 122861657.128 6  95736374.11644  23379799.656                    23379806.000
 127103453.361 6  99041788.756 6  24187006.406                    24187018.215
 106736437.164 8  83171278.720 8  20311269.102                    20311276.055
 108084097.188 8  84221492.42046  20567740.539                    20567747.582
 116791697.908 7  91006560.15345  22224716.883                    22224724.117
 113539077.862 7  88471880.14145  21605723.781                    21605731.098
 123350568.644 6  96117339.53943  23472845.797                    23472856.535
 11  8 11 19  4  0.0000000  0 10G24G17G26G19G01G07G08G28G11G13
 118667637.433 7  92468378.19844  22581691.344                    22581701.398
 122571656.271 7  95510477.778 6  23324604.430                    23324615.273
 123619851.750 6  96327241.57743  23524084.828                    23524093.988
 122961540.732 6  95814205.44244  23398807.078                    23398813.156
 127126133.790 6  99059461.774 6  24191322.742                    24191333.926
 106743492.422 7  83176776.306 8  20312611.750                    20312618.594
 108035099.215 8  84183312.17646  20558416.914                    20558424.168
 116764500.373 7  90985367.27845  22219541.867                    22219548.121
 113521596.669 8  88458258.45245  21602397.156                    21602404.570
 123461422.610 7  96203718.98743  23493940.547                    23493951.848
 11  8 11 19  4 30.0000000  0 10G24G17G26G19G01G07G08G28G11G13
 118612519.189 7  92425429.02944  22571202.398                    22571212.500
 122478615.280 7  95437978.433 6  23306899.633                    23306909.918
 123552233.400 6  96274552.01543  23511217.672                    23511226.473
 123061604.574 6  95892177.23644  23417848.492                    23417855.082
 127149310.456 6  99077521.518 6  24195733.344                    24195744.715
 106750997.811 8  83182624.648 8  20314040.156                    20314046.707
 107986424.691 8  84145383.97746  20549154.156                    20549161.766
 116737379.094 7  90964233.82745  22214380.563                    22214387.234
 113504662.046 7  88445062.66745  21599174.344                    21599182.086
 123572344.803 7  96290151.68243  23515048.695                    23515059.539
 11  8 11 19  5  0.0000000  0 10G24G17G26G19G01G07G08G28G11G13
 118557742.944 7  92382746.32244  22560778.680                    22560788.898
 122385809.843 7  95365662.636 6  23289239.234                    23289249.270
 123485114.430 6  96222251.56943  23498444.727                    23498454.293
 123161845.653 6  95970287.11844  23436923.930                    23436930.359
 127172983.297 6  99095967.835 6  24200237.391                    24200249.375
 106758954.612 8  83188824.734 8  20315553.945                    20315561.273
 107938076.231 8  84107709.86046  20539953.914                    20539961.063
 116710333.697 7  90943159.50245  22209233.797                    22209241.086
 113488275.666 7  88432294.08645  21596056.875                    21596063.652
 123683332.298 7  96376635.22443  23536169.750                    23536179.840
 11  8 11 19  5 30.0000000  0 10G24G17G26G19G01G07G08G28G11G13
 118503311.339 7  92340332.15344  22550420.375                    22550430.773
 122293241.395 7  95293531.497 6  23271624.172                    23271634.145
 123418497.260 6  96170342.13743  23485767.875                    23485776.945
 123262261.465 6  96048533.17344  23456031.758                    23456039.441
 127197151.955 6  99114800.512 6  24204836.492                    24204849.348
 106767363.904 8  83195377.407 8  20317154.383                    20317161.082
 107890056.008 8  84070291.50846  20530816.133                    20530823.414
 116683363.252 7  90922143.59645  22204101.414                    22204108.430
 113472438.663 7  88419953.60345  21593042.750                    21593050.121
 123794381.921 7  96463167.17143  23557301.695                    23557311.953
 11  8 11 19  6  0.0000000  0 10G24G17G26G19G01G07G08G28G11G13
 118449227.506 7  92298188.98244  22540128.961                    22540138.598
 122200912.119 7  95221586.759 6  23254053.867                    23254064.055
 123352383.999 6  96118825.35243  23473186.500                    23473195.984
 123362849.001 6  96126913.03044  23475172.961                    23475179.582
 127221816.403 6  99134019.541 6  24209530.313                    24209542.875
 106776226.680 8  83202283.452 8  20318840.906                    20318847.773
 107842366.532 8  84033130.88046  20521740.891                    20521748.238
 116656467.025 7  90901185.51545  22198983.672                    22198990.309
 113457152.233 7  88408042.12945  21590134.008                    21590141.234
 123905490.993 7  96549745.43843  23578445.383                    23578455.910
 11  8 11 19  6 30.0000000  0 10G24G17G26G19G01G07G08G28G11G13
 118395494.362 7  92256319.07144  22529903.875                    22529913.801
 122108823.776 7  95149829.735 6  23236530.211                    23236540.461
 123286776.783 6  96067702.88543  23460701.781                    23460711.273
 123463605.945 6  96205424.87844  23494346.320                    23494353.371
 127246976.411 6  99153624.744 6  24214317.820                    24214329.711
 106785544.200 8  83209543.847 8  20320614.125                    20320620.836
 107795010.978 8  83996230.44746  20512729.234                    20512736.711
 116629644.393 8  90880284.78645  22193879.203                    22193886.184
 113442417.955 7  88396560.91245  21587329.883                    21587337.398
 124016656.307 7  96636367.54943  23599599.508                    23599610.398
 11  8 11 19  7  0.0000000  0 10G24G17G26G19G01G07G08G28G11G13
 118342114.814 7  92214724.69444  22519745.914                    22519756.078
 122016977.873 7  95078261.646 6  23219052.313                    23219062.305
 123221677.963 6  96016976.57943  23448313.938                    23448323.617
 123564529.846 6  96284066.84444  23513552.359                    23513558.363
 127272631.938 6  99173616.026 6  24219200.719                    24219212.297
 106795317.646 8  83217159.495 8  20322473.609                    20322480.582
 107747991.575 8  83959591.96646  20503781.883                    20503789.250
 116602894.737 8  90859440.92145  22188789.008                    22188795.715
 113428237.168 7  88385510.97445  21584631.352                    21584638.711
 124127875.118 7  96723031.34943  23620763.594                    23620775.500
 11  8 11 19  7 30.0000000  0 10G24G17G26G19G01G07G08G28G11G13
 118289091.076 7  92173407.54344  22509655.625                    22509665.672
 121925375.627 7  95006883.408 6  23201621.133                    23201630.844
 123157089.375 6  95966647.86144  23436023.438                    23436033.109
 123665617.388 6  96362836.30844  23532788.438                    23532794.906
 127298782.436 6  99193993.056 6  24224176.906                    24224188.277
 106805547.351 8  83225130.693 8  20324420.469                    20324427.301
 107701310.417 8  83923217.03646  20494898.617                    20494906.316
 116576216.946 7  90838653.05445  22183712.352                    22183718.980
 113414610.379 7  88374892.73445  21582038.156                    21582045.262
 124239144.237 6  96809734.28743  23641937.742                    23641949.125
 11  8 11 19  8  0.0000000  0 10G24G17G26G19G01G07G08G28G11G13
 118236426.196 7  92132370.04644  22499634.109                    22499644.262
 121834018.960 7  94935696.531 6  23184236.727                    23184246.840
 123093013.228 6  95916718.42744  23423830.906                    23423839.453
 123766866.322 7  96441731.51144  23552055.305                    23552062.098
 127325427.798 6  99214755.716 6  24229246.086                    24229258.813
 106816234.891 8  83233458.628 8  20326453.992                    20326461.180
 107654970.343 8  83887107.88446  20486080.422                    20486088.121
 116549610.733 7  90817920.96945  22178649.016                    22178655.957
 113401539.299 8  88364707.51245  21579551.047                    21579558.023
 124350461.024 6  96896474.39543  23663120.211                    23663132.273
 11  8 11 19  8 30.0000000  0 10G24G17G26G19G01G07G08G28G11G13
 118184123.186 7  92091614.49844  22489681.117                    22489691.496
 121742910.368 7  94864702.963 6  23166899.102                    23166909.113
 123029451.665 6  95867189.98243  23411735.352                    23411744.023
 123868273.581 6  96520750.13144  23571352.672                    23571358.547
 127352567.527 6  99235903.584 6  24234411.633                    24234423.461
 106827381.106 8  83242143.980 8  20328575.125                    20328582.238
 107608973.601 8  83851266.26546  20477327.734                    20477335.082
 116523075.443 7  90797244.14845  22173599.664                    22173606.305
 113389024.843 7  88354956.01945  21577169.375                    21577176.832
 124461822.636 6  96983249.41043  23684310.719                    23684324.691
 11  8 11 19  9  0.0000000  0 10G24G17G26G19G01G07G08G28G11G13
 118132184.887 7  92051143.13444  22479797.828                    22479807.152
 121652051.240 7  94793903.779 6  23149608.609                    23149618.559
 122966406.975 6  95818064.26943  23399738.508                    23399746.566
 123969837.267 6  96599890.61244  23590679.906                    23590685.754
 127380201.539 6  99257436.607 6  24239669.656                    24239682.363
 106838987.433 8  83251187.862 8  20330783.969                    20330790.941
 107563322.724 8  83815694.15346  20468640.555                    20468648.051
 116496610.267 8  90776621.95845  22168563.141                    22168570.414
 113377068.412 7  88345639.34945  21574894.000                    21574901.566
 124573225.684 6  97070056.71043  23705512.039                    23705523.418
 11  8 11 19  9 30.0000000  0 10G24G17G26G19G01G07G08G28G11G13
 118080613.695 7  92010957.85444  22469983.266                    22469993.555
 121561442.589 7  94723299.770 6  23132366.031                    23132376.445
 122903880.887 7  95769342.68243  23387839.141                    23387847.715
 124071554.436 6  96679150.66444  23610035.930                    23610041.926
 127408328.831 6  99279354.009 6  24245022.383                    24245034.121
 106851054.334 7  83260590.627 8  20333080.203                    20333086.977
 107518020.120 8  83780393.43146  20460019.641                    20460027.344
 116470214.340 7  90756053.73045  22163540.703                    22163547.273
 113365670.860 8  88336758.16345  21572725.547                    21572732.434
 124684667.083 6  97156893.88343  23726717.758                    23726730.285
 11  8 11 19 10  0.0000000  0 10G24G17G26G19G01G07G08G28G11G13
 118029412.515 7  91971060.88744  22460240.438                    22460250.449
 121471086.409 7  94652892.509 6  23115172.313                    23115182.082
 122841875.524 7  95721026.84643  23376040.430                    23376049.277
 124173422.053 6  96758527.97144  23629420.242                    23629426.691
 127436949.532 6  99301655.883 6  24250469.180                    24250480.461
 106863582.607 8  83270352.903 8  20335464.273                    20335471.074
 107473068.291 8  83745366.03046  20451465.703                    20451472.984
 116443886.703 7  90735538.71345  22158530.555                    22158537.410
 113354833.242 8  88328313.27745  21570663.016                    21570670.523
 124796144.203 6  97243758.91043  23747931.773                    23747943.840
 11  8 11 19 10 30.0000000  0 10G24G17G26G19G01G07G08G28G11G13
 117978584.092 7  91931454.37944  22450568.164                    22450577.777
 121380984.104 7  94582683.044 6  23098025.539                    23098035.824
 122780392.831 7  95673118.28043  23364340.188                    23364349.250
 124275437.607 6  96838020.53644  23648833.836                    23648840.039
 127466062.795 6  99324341.551 6  24256008.133                    24256020.926
 106876573.285 8  83280475.495 8  20337936.180                    20337942.930
 107428469.629 8  83710613.82646  20442979.203                    20442985.965
 116417627.075 7  90715076.68245  22153533.344                    22153540.160
 113344556.669 8  88320305.57245  21568707.328                    21568715.047
 124907654.101 6  97330649.50143  23769151.906                    23769163.359
 11  8 11 19 11  0.0000000  0 10G24G17G26G19G01G07G08G28G11G13
 117928130.929 7  91892140.29844  22440966.867                    22440976.520
 121291137.516 7  94512672.847 7  23080928.563                    23080938.887
 122719434.749 6  95625618.50743  23352740.016                    23352748.832
 124377598.329 6  96917626.23044  23668273.945                    23668280.719
 127495668.715 6  99347411.086 6  24261643.508                    24261654.434
 106890026.841 8  83290958.764 8  20340496.852                    20340503.398
 107384226.458 8  83676138.62746  20434559.891                    20434566.945
 116391434.412 7  90694666.83445  22148549.344                    22148555.793
 113334841.784 8  88312735.54445  21566858.797                    21566865.707
 125019193.541 7  97417563.08943  23790377.211                    23790388.754
 11  8 11 19 11 30.0000000  0 10G24G17G26G19G01G07G08G28G11G13
 117878056.005 7  91853120.94144  22431438.000                    22431447.914
 121201548.347 7  94442863.240 7  23063880.344                    23063890.203
 122659003.545 6  95578529.30244  23341240.891                    23341249.820
 124479901.950 6  96997343.27744  23687742.195                    23687748.953
 127525766.548 6  99370863.933 6  24267370.430                    24267382.094
 106903945.162 8  83301804.195 8  20343145.078                    20343151.461
 107340341.481 8  83641942.53146  20426208.570                    20426215.953
 116365308.549 7  90674309.02745  22143577.742                    22143584.488
 113325689.705 8  88305604.07545  21565116.617                    21565124.367
 125130760.208 7  97504497.89343  23811608.234                    23811619.453
 11  8 11 19 12  0.0000000  0 10G24G17G26G19G01G07G08G28G11G13
 117828361.849 7  91814398.30444  22421981.445                    22421990.605
 121112217.973 7  94373255.265 7  23046881.414                    23046891.125
 122599100.905 6  95531851.93243  23329841.820                    23329850.555
 124582345.622 6  97077169.45944  23707236.695                    23707243.195
 127556355.644 6  99394699.593 7  24273191.695                    24273203.500
 106918328.331 8  83313011.832 8  20345881.813                    20345889.066
 107296817.021 8  83608027.35746  20417926.086                    20417933.867
 116339248.427 7  90654002.44745  22138617.703                    22138625.031
 113317102.117 8  88298912.44245  21563482.820                    21563489.906
 125242350.650 7  97591451.23443  23832843.258                    23832854.238
 11  8 11 19 12 30.0000000  0 10G24G17G26G19G01G07G08G28G11G13
 117779051.479 7  91775974.70844  22412598.367                    22412607.613
 121023148.392 7  94303850.516 7  23029931.594                    23029941.586
 122539729.034 6  95485588.16243  23318542.867                    23318552.234
 124684926.982 6  97157102.93444  23726757.641                    23726763.547
 127587435.637 6  99418917.751 6  24279105.383                    24279117.191
 106933177.725 8  83324582.775 8  20348707.938                    20348714.508
 107253655.835 8  83574395.26046  20409713.055                    20409720.434
 116313253.556 7  90633746.71145  22133671.758                    22133678.711
 113309079.447 7  88292661.01245  21561956.195                    21561963.414
 125353962.077 6  97678420.91543  23854081.852                    23854093.418
 11  8 11 19 13  0.0000000  0 10G24G17G26G19G01G07G08G28G11G13
 117730127.252 7  91737852.03644  22403288.211                    22403297.273
 120934340.981 7  94234650.056 6  23013031.953                    23013042.176
 122480889.642 6  95439739.32343  23307346.773                    23307355.469
 124787643.446 6  97237141.70244  23746303.516                    23746309.605
 127619006.617 6  99443518.487 6  24285113.148                    24285124.887
 106948494.092 8  83336517.598 8  20351622.547                    20351629.230
 107210860.032 8  83541047.86746  20401569.195                    20401576.375
 116287323.412 7  90613541.43045  22128737.063                    22128744.543
 113301622.447 8  88286850.37245  21560537.602                    21560544.367
 125465591.839 6  97765404.89443  23875324.805                    23875336.578
 11  8 11 19 13 30.0000000  0 10G24G17G26G19G01G07G08G28G11G13
 117681592.074 7  91700032.51244  22394051.844                    22394061.332
 120845797.490 7  94165655.224 7  22996182.695                    22996192.586
 122422584.862 6  95394307.05643  23296251.508                    23296260.652
 124890492.154 6  97317283.51044  23765874.359                    23765881.625
 127651067.432 6  99468500.908 6  24291213.469                    24291226.016
 106964278.290 7  83348816.949 8  20354626.086                    20354632.586
 107168432.144 8  83507987.17546  20393495.602                    20393502.457
 116261457.441 7  90593386.13245  22123815.320                    22123822.434
 113294732.424 8  88281481.52745  21559226.039                    21559233.625
 125577236.795 6  97852400.66343  23896570.156                    23896582.422
 11  8 11 19 14  0.0000000  0 10G24G17G26G19G01G07G08G28G11G13
 117633448.280 7  91662517.97644  22384889.727                    22384899.973
 120757519.165 7  94096867.039 7  22979383.977                    22979393.660
 122364816.328 6  95349292.64144  23285258.383                    23285267.586
 124993470.455 6  97397526.27244  23785470.773                    23785477.148
 127683617.812 6  99493864.799 6  24297408.117                    24297420.113
 106980530.644 8  83361481.106 8  20357718.734                    20357725.914
 107126374.212 8  83475214.75546  20385492.172                    20385499.465
 116235654.437 7  90573279.91745  22118904.828                    22118911.988
 113288410.015 7  88276554.97945  21558023.180                    21558030.395
 125688893.979 6  97939405.97843  23917818.570                    23917830.480
 11  8 11 19 14 30.0000000  0 10G24G17G26G19G01G07G08G28G11G13
 117585698.918 7  91625310.77344  22375803.656                    22375813.801
 120669507.877 7  94028286.920 7  22962635.898                    22962646.059
 122307585.931 6  95304697.54943  23274367.961                    23274376.930
 125096576.061 6  97477868.22644  23805092.297                    23805098.363
 127716656.973 6  99519609.570 6  24303695.227                    24303707.613
 106997252.485 8  83374511.088 8  20360900.922                    20360908.219
 107084689.239 8  83442732.96346  20377559.398                    20377567.324
 116209914.220 7  90553222.63045  22114006.828                    22114014.074
 113282655.865 8  88272071.24445  21556928.031                    21556935.273
 125800560.761 6  98026418.70643  23939068.148                    23939080.566
 11  8 11 19 15  0.0000000  0 10G24G17G26G19G01G07G08G28G11G13
 117538346.404 7  91588412.84344  22366792.523                    22366802.777
 120581765.232 7  93959916.150 7  22945938.367                    22945948.605
 122250895.673 6  95260523.37043  23263580.133                    23263589.215
 125199806.215 7  97558307.26744  23824736.281                    23824742.508
 127750184.301 6  99545734.716 6  24310075.695                    24310086.664
 107014444.409 8  83387907.373 8  20364172.305                    20364179.066
 107043379.437 8  83410543.49746  20369698.555                    20369706.039
 116184235.942 7  90533213.60845  22109120.492                    22109127.309
 113277470.840 8  88268030.97945  21555941.711                    21555948.523
 125912234.167 6  98113436.66943  23960318.641                    23960331.414
 11  8 11 19 15 30.0000000  0 10G24G17G26G19G01G07G08G28G11G13
 117491393.307 7  91551826.12544  22357857.930                    22357867.922
 120494292.425 7  93891755.640 7  22929293.055                    22929303.418
 122194747.085 6  95216771.21743  23252895.508                    23252904.000
 125303158.418 7  97638841.40743  23844403.484                    23844408.969
 127784199.188 6  99572239.822 6  24316548.055                    24316559.754
 107032107.102 8  83401670.503 8  20367533.391                    20367540.492
 107002447.023 8  83378648.10646  20361909.883                    20361916.770
 116158619.204 7  90513252.54045  22104245.406                    22104252.340
 113272856.069 7  88264435.06545  21555063.125                    21555070.691
 126023911.297 6  98200457.49043  23981570.438                    23981583.695
 11  8 11 19 16  0.0000000  0 10G24G17G26G19G01G07G08G28G11G13
 117444842.072 7  91515552.55344  22348999.344                    22349009.418
 120407090.854 7  93823806.491 7  22912698.984                    22912709.387
 122139141.912 6  95173442.54443  23242313.594                    23242322.734
 125406629.847 7  97719468.46344  23864093.719                    23864099.180
 127818700.886 6  99599124.180 6  24323113.727                    24323126.270
 107050241.090 8  83415800.857 8  20370984.398                    20370991.391
 106961894.206 8  83347048.50446  20354192.656                    20354199.852
 116133062.803 7  90493338.48545  22099382.539                    22099389.473
 113268811.982 7  88261283.85645  21554293.820                    21554300.418
 126135588.946 6  98287478.73843  24002822.883                    24002835.621
 11  8 11 19 16 30.0000000  0 10G24G17G26G19G01G07G08G28G11G13
 117398695.504 7  91479594.28544  22340218.086                    22340227.652
 120320162.541 7  93756070.283 7  22896157.445                    22896167.055
 122084082.147 6  95130538.84443  23231837.188                    23231844.977
 125510218.343 6  97800186.71043  23883805.734                    23883811.988
 127853688.993 6  99626387.621 6  24329771.945                    24329783.715
 107068847.362 8  83430299.233 8  20374525.469                    20374531.891
 106921723.684 8  83315746.80046  20346548.594                    20346555.941
 116107566.276 7  90473471.06645  22094531.047                    22094537.328
 113265339.373 8  88258577.95545  21553632.813                    21553639.785
 126247264.606 6  98374498.41243  24024074.117                    24024086.566
 11  8 11 19 17  0.0000000  0 10G24G17G26G19G01G07G08G28G11G13
 117352956.158 7  91443953.33244  22331513.781                    22331523.859
 120233509.027 7  93688548.199 7  22879667.352                    22879677.523
 122029569.682 6  95088061.63043  23221462.992                    23221472.387
 125613921.456 7  97880994.29043  23903539.406                    23903545.578
 127889162.895 6  99654029.614 6  24336522.289                    24336533.895
 107087926.678 8  83445166.229 8  20378155.602                    20378162.883
 106881938.224 8  83284745.13346  20338977.656                    20338985.203
 116082129.291 7  90453650.05045  22089689.969                    22089697.039
 113262439.193 8  88256318.10845  21553081.063                    21553088.426
 126358935.551 6  98461514.44743  24045323.969                    24045337.836
 11  8 11 19 17 30.0000000  0 10G24G17G26G19G01G07G08G28G11G13
 117307626.574 7  91408631.66245  22322888.195                    22322897.828
 120147131.544 7  93621241.211 7  22863230.227                    22863240.293
 121975606.112 6  95046012.11843  23211194.195                    23211203.488
 125717736.358 6  97961888.94843  23923295.094                    23923301.156
 127925121.489 6  99682049.276 6  24343365.617                    24343377.340
 107107479.767 8  83460402.385 8  20381876.617                    20381883.445
 106842540.013 8  83254045.22946  20331480.484                    20331487.934
 116056751.437 7  90433875.10345  22084860.758                    22084867.277
 113260111.914 7  88254504.67445  21552638.398                    21552645.004
 126470598.710 6  98548524.41543  24066573.141                    24066586.988
 11  8 11 19 18  0.0000000  0 10G24G17G26G19G01G07G08G28G11G13
 117262709.108 7  91373631.10544  22314340.492                    22314350.031
 120061031.606 7  93554150.479 7  22846845.969                    22846856.207
 121922192.930 6  95004391.47143  23201030.297                    23201039.008
 125821660.365 6  98042868.62743  23943070.758                    23943077.246
 127961564.548 6  99710446.465 6  24350299.531                    24350311.840
 107127507.279 8  83476008.213 8  20385687.680                    20385694.816
 106803531.170 8  83223648.73246  20324057.375                    20324064.355
 116031431.779 8  90414145.51445  22080042.367                    22080049.707
 113258358.383 7  88253138.30945  21552304.203                    21552311.438
 126582251.175 6  98635526.01143  24087819.828                    24087833.773
 11  8 11 19 18 30.0000000  0 10G24G17G26G19G01G07G08G28G11G13
 117218206.720 7  91338953.98944  22305871.906                    22305881.566
 119975211.188 7  93487277.581 7  22830514.836                    22830524.746
 121869332.181 6  94963201.30743  23190970.195                    23190979.617
 125925691.344 6  98123931.64043  23962867.313                    23962873.438
 127998491.231 6  99739220.483 6  24357326.484                    24357338.473
 107148009.771 8  83491984.166 8  20389589.070                    20389596.293
 106764914.331 8  83193557.69746  20316708.555                    20316715.891
 116006169.894 7  90394460.93945  22075235.156                    22075242.254
 113257179.096 7  88252219.42945  21552079.508                    21552087.367
 126693890.441 6  98722517.35443  24109064.359                    24109077.871
 11  8 11 19 19  0.0000000  0 10G24G17G26G19G01G07G08G28G11G13
 117174121.831 7  91304602.19244  22297482.922                    22297492.738
 119889671.498 7  93420623.423 7  22814236.914                    22814246.973
 121817025.573 6  94922442.94643  23181017.031                    23181026.160
 126029826.499 6  98205075.85843  23982683.477                    23982690.105
 128035900.925 6  99768370.888 6  24364445.672                    24364457.090
 107168987.968 8  83508330.791 8  20393580.977                    20393588.070
 106726692.485 8  83163774.44446  20309435.133                    20309443.039
 115980965.341 7  90374821.04145  22070439.227                    22070445.992
 113256574.903 7  88251748.64645  21551964.750                    21551972.129
 126805513.624 6  98809496.13742  24130305.180                    24130319.980
 11  8 11 19 19 30.0000000  0 10G24G17G26G19G01G07G08G28G11G13
 117130456.640 7  91270577.41244  22289173.133                    22289183.180
 119804414.140 7  93354189.242 7  22798012.828                    22798023.039
 121765274.610 7  94882117.54844  23171169.188                    23171178.734
 126134063.575 6  98286299.47144  24002519.289                    24002526.250
 128073792.710 6  99797896.946 6  24371656.734                    24371667.762
 107190442.576 8  83525048.644 8  20397663.914                    20397671.074
 106688867.398 8  83134300.36446  20302236.891                    20302244.500
 115955817.331 7  90355225.19645  22065654.273                    22065660.652
 113256546.235 7  88251726.34545  21551959.117                    21551966.590
 126917117.816 6  98896460.13343  24151544.094                    24151557.855
 11  8 11 19 20  0.0000000  0 10G24G17G26G19G01G07G08G28G11G13
 117087213.621 7  91236881.61644  22280944.086                    22280954.066
 119719440.142 7  93287975.864 7  22781842.984                    22781852.480
 121714080.861 7  94842226.32044  23161427.797                    23161436.461
 126238399.928 6  98367600.46743  24022372.844                    24022381.191
 128112165.405 6  99827797.738 6  24378958.008                    24378969.531
 107212374.110 8  83542138.127 8  20401837.313                    20401844.352
 106651441.123 8  83105137.03546  20295115.586                    20295122.617
 115930725.099 7  90335672.81345  22060879.102                    22060885.609
 113257093.701 7  88252152.96245  21552063.813                    21552070.801
 127028700.214 6  98983407.18542  24172777.930                    24172791.609
 11  8 11 19 20 30.0000000  0 10G24G17G26G19G01G07G08G28G11G13
 117044395.436 7  91203516.83244  22272796.484                    22272806.191
 119634751.336 7  93221984.700 7  22765727.648                    22765737.020
 121663446.058 7  94802770.64444  23151792.797                    23151801.117
 126342833.264 6  98448977.03043  24042246.766                    24042253.883
 128151018.677 6  99858073.022 6  24386352.281                    24386363.078
 107234783.186 8  83559599.733 8  20406101.883                    20406108.770
 106614416.516 8  83076286.69546  20288069.703                    20288077.309
 115905688.438 8  90316163.74545  22056114.867                    22056121.414
 113258217.787 7  88253028.89745  21552277.242                    21552284.309
 127140257.809 6  99070334.88843  24194006.805                    24194019.949
 11  8 11 19 21  0.0000000  0 10G24G17G26G19G01G07G08G28G11G13
 117002004.757 7  91170485.17544  22264729.406                    22264739.801
 119550348.896 7  93156216.670 7  22749665.859                    22749675.629
 121613371.371 7  94763751.41444  23142263.352                    23142271.867
 126447361.090 6  98530427.20843  24062138.102                    24062144.945
 128190351.307 6  99888721.827 6  24393837.250                    24393848.484
 107257670.199 8  83577433.756 8  20410456.891                    20410464.551
 106577795.660 8  83047750.95546  20281101.141                    20281107.859
 115880706.718 7  90296697.48145  22051360.906                    22051367.770
 113259918.841 7  88254354.40645  21552601.008                    21552608.508
 127251787.759 6  99157241.04242  24215230.852                    24215243.770
 11  8 11 19 21 30.0000000  0 10G24G17G26G19G01G07G08G28G11G13
 116960043.884 7  91137788.42644  22256744.727                    22256754.766
 119466234.169 7  93090672.835 7  22733659.328                    22733668.629
 121563858.687 7  94725170.13244  23132841.078                    23132850.172
 126551980.640 6  98611948.84644  24082046.133                    24082053.516
 128230162.558 6  99919743.576 6  24401412.461                    24401423.840
 107281035.854 8  83595640.740 8  20414903.266                    20414910.352
 106541580.879 8  83019531.63646  20274209.797                    20274217.305
 115855779.158 7  90277273.43045  22046617.172                    22046624.141
 113262197.198 7  88256129.75945  21553034.938                    21553042.258
 127363287.511 6  99244123.67943  24236448.242                    24236462.285
 11  8 11 19 22  0.0000000  0 10G24G17G26G19G01G07G08G28G11G13
 116918515.125 7  91105428.39544  22248841.766                    22248851.902
 119382409.413 7  93025354.938 7  22717707.875                    22717717.066
 121514909.375 7  94687027.82944  23123526.750                    23123535.875
 126656689.603 6  98693540.19443  24101972.453                    24101978.867
 128270451.815 6  99951137.768 6  24409079.164                    24409091.488
 107304880.387 8  83614220.845 8  20419440.547                    20419447.672
 106505774.836 8  82991630.82446  20267396.156                    20267403.359
 115830905.184 7  90257891.11445  22041883.813                    22041890.563
 113265053.840 7  88258355.70545  21553578.320                    21553585.633
 127474754.250 6  99330980.60343  24257660.000                    24257673.574
 11  8 11 19 22 30.0000000  0 10G24G17G26G19G01G07G08G28G11G13
 116877420.580 7  91073406.70544  22241022.383                    22241031.699
 119298874.901 7  92960263.211 7  22701812.008                    22701820.828
 121466525.016 7  94649325.72844  23114319.305                    23114327.844
 126761485.574 6  98775199.33544  24121912.750                    24121920.777
 128311217.688 6  99982903.347 6  24416837.086                    24416848.957
 107329204.447 8  83633174.641 8  20424069.523                    20424076.848
 106470379.440 8  82964049.99246  20260660.563                    20260667.652
 115806084.445 7  90238550.29045  22037160.797                    22037167.414
 113268488.876 7  88261032.34445  21554232.188                    21554239.266
 127586184.977 6  99417809.45643  24278863.766                    24278878.484
 11  8 11 19 23  0.0000000  0 10G24G17G26G19G01G07G08G28G11G13
 116836762.998 7  91041725.51944  22233284.945                    22233294.547
 119215632.245 7  92895398.897 7  22685971.172                    22685980.051
 121418707.150 7  94612065.07344  23105219.563                    23105228.266
 126866366.108 6  98856924.36843  24141872.367                    24141879.125
 128352459.736 6 100015039.945 6  24424684.516                    24424696.902
 107354008.633 8  83652502.555 8  20428789.383                    20428796.188
 106435397.071 8  82936790.99946  20254003.672                    20254010.934
 115781316.331 7  90219250.46845  22032447.195                    22032454.156
 113272502.716 7  88264159.99845  21554995.797                    21555002.934
 127697577.010 6  99504608.16743  24300061.539                    24300075.949
 11  8 11 19 23 30.0000000  0 10G24G17G26G19G01G07G08G28G11G13
 116796544.785 7  91010386.69944  22225631.563                    22225641.480
 119132683.263 7  92830763.415 7  22670186.781                    22670195.621
 121371457.233 7  94575246.98144  23096228.664                    23096237.309
 126971328.753 6  98938713.35643  24161846.164                    24161852.836
 128394176.831 6 100047546.728 6  24432624.070                    24432635.047
 107379293.557 8  83672205.070 8  20433601.289                    20433608.621
 106400830.404 8  82909855.93346  20247425.414                    20247432.875
 115756600.555 7  90199991.43345  22027744.070                    22027750.762
 113277096.200 7  88267739.32145  21555869.766                    21555877.219
 127808927.573 6  99591374.51543  24321251.609                    24321265.516
 11  8 11 19 24  0.0000000  0 10G24G17G26G19G01G07G08G28G11G13
 116756768.414 7  90979392.17344  22218062.695                    22218072.254
 119050029.491 7  92766357.948 7  22654457.539                    22654466.863
 121324776.723 7  94538872.55544  23087345.938                    23087354.348
 127076371.080 6  99020564.46443  24181835.031                    24181842.195
 128436367.926 6 100080422.848 6  24440652.211                    24440663.609
 107405059.632 8  83692282.533 7  20438504.586                    20438511.871
 106366681.710 8  82883246.55846  20240927.344                    20240934.941
 115731935.930 7  90180772.25845  22023050.406                    22023057.719
 113282268.900 8  88271769.99945  21556854.063                    21556861.492
 127920233.988 6  99678106.50343  24342432.844                    24342446.809
 11  8 11 19 24 30.0000000  0 10G24G17G26G19G01G07G08G28G11G13
 116717435.879 7  90948743.49544  22210577.953                    22210587.410
 118967671.759 7  92702183.170 7  22638785.578                    22638795.043
 121278666.661 7  94502942.64744  23078570.703                    23078579.680
 127181490.392 6  99102475.54743  24201839.047                    24201845.867
 128479032.008 6 100113667.505 6  24448771.977                    24448782.484
 107431306.652 8  83712734.731 8  20443499.031                    20443505.965
 106332952.670 8  82856964.18546  20234509.031                    20234516.320
 115707322.438 8  90161592.91345  22018366.836                    22018373.676
 113288021.280 7  88276252.36845  21557948.922                    21557955.918
 128031493.301 6  99764801.78843  24363605.117                    24363618.813
 11  8 11 19 25  0.0000000  0 10G24G17G26G19G01G07G08G28G11G13
 116678549.769 7  90918442.68444  22203177.805                    22203187.188
 118885611.626 7  92638240.286 7  22623170.383                    22623179.516
 121233128.728 7  94467458.56843  23069905.195                    23069914.184
 127286684.810 6  99184445.15843  24221856.023                    24221863.621
 128522168.268 6 100147280.127 6  24456979.820                    24456990.605
 107458035.503 8  83733562.378 7  20448585.289                    20448592.387
 106299646.263 8  82831011.13946  20228171.094                    20228178.422
 115682759.584 8  90142453.02545  22013692.352                    22013698.961
 113294353.793 7  88281186.78845  21559154.039                    21559160.957
 128142703.237 6  99851458.60142  24384766.820                    24384780.715
 11  8 11 19 25 30.0000000  0 10G24G17G26G19G01G07G08G28G11G13
 116640112.504 7  90888491.62944  22195863.867                    22195873.039
 118803850.802 7  92574530.632 7  22607611.156                    22607620.789
 121188164.349 7  94432421.38844  23061348.734                    23061357.629
 127391951.932 6  99266471.41743  24241887.734                    24241895.180
 128565775.806 6 100181259.981 6  24465277.883                    24465289.609
 107485246.979 8  83754766.095 8  20453763.445                    20453770.652
 106266764.974 8  82805389.35346  20221913.805                    20221921.098
 115658246.937 7  90123352.27345  22009027.742                    22009034.707
 113301267.048 7  88286573.73245  21560469.258                    21560476.211
 128253860.780 6  99938074.53042  24405920.555                    24405934.820
 11  8 11 19 26  0.0000000  0 10G24G17G26G19G01G07G08G28G11G13
 116602126.218 7  90858891.97945  22188635.125                    22188644.586
 118722390.317 7  92511055.009 7  22592109.844                    22592118.902
 121143774.630 7  94397832.04244  23052901.656                    23052910.629
 127497288.852 6  99348552.07743  24261932.898                    24261939.977
 128609853.267 6 100215606.007 6  24473664.391                    24473677.039
 107512941.251 8  83776346.017 8  20459033.398                    20459040.688
 106234310.359 8  82780100.03846  20215738.125                    20215745.109
 115633784.036 7  90104290.27345  22004372.828                    22004379.668
 113308761.108 8  88292413.27845  21561895.320                    21561902.219
 128364963.150 6 100024647.51652  24427061.859                    24427076.645
 11  8 11 19 26 30.0000000  0 10G24G17G26G19G01G07G08G28G11G13
 116564593.076 7  90829645.43444  22181492.953                    22181502.168
 118641231.248 7  92447814.257 7  22576665.516                    22576674.871
 121099961.100 7  94363691.63244  23044564.594                    23044572.973
 127602693.440 6  99430685.43543  24281990.781                    24281997.816
 128654399.651 6 100250317.454 6  24482142.289                    24482154.215
 107541118.387 8  83798302.200 8  20464395.547                    20464402.426
 106202285.017 8  82755145.22446  20209644.000                    20209651.336
 115609370.031 8  90085266.38545  21999727.148                    21999733.512
 113316836.087 7  88298705.48045  21563432.078                    21563439.305
 128476007.542 6 100111175.28642  24448193.578                    24448207.395
 11  8 11 19 27  0.0000000  0 10G24G17G26G19G01G07G08G28G11G13
 116527515.519 7  90800753.89044  22174437.086                    22174446.508
 118560375.330 7  92384809.740 7  22561278.836                    22561288.762
 121056724.925 7  94330001.11143  23036336.750                    23036345.480
 127708163.238 6  99512869.62143  24302061.773                    24302068.160
 128699414.262 6 100285393.722 6  24490707.875                    24490720.297
 107569778.964 8  83820635.087 8  20469849.719                    20469856.234
 106170691.091 8  82730526.57146  20203631.828                    20203639.250
 115585004.514 7  90066280.29445  21995090.281                    21995097.035
 113325492.047 7  88305450.39545  21565079.359                    21565085.844
 128586991.478 6 100197655.96752  24469313.852                    24469327.676
 11  8 11 19 27 30.0000000  0 10G24G17G26G19G01G07G08G28G11G13
 116490895.740 7  90772219.05444  22167468.766                    22167478.000
 118479823.703 7  92322042.328 7  22545951.063                    22545960.270
 121014067.505 7  94296761.59344  23028219.445                    23028228.141
 127813696.175 6  99595103.01143  24322143.359                    24322150.746
 128744895.676 6 100320833.788 6  24499363.258                    24499375.246
 107598923.175 8  83843344.828 8  20475395.484                    20475402.414
 106139531.189 8  82706246.12246  20197702.172                    20197709.402
 115560687.045 7  90047331.62945  21990462.711                    21990469.746
 113334729.455 8  88312648.37945  21566837.156                    21566844.020
 128697911.869 6 100284087.15942  24490420.734                    24490434.898
 11  8 11 19 28  0.0000000  0 10G24G17G26G19G01G07G08G28G11G13
 116454735.857 7  90744042.58844  22160587.359                    22160596.598
 118399577.555 7  92259512.952 7  22530680.578                    22530689.293
 120971989.871 7  94263973.83144  23020211.742                    23020220.969
 127919289.574 6  99677383.50543  24342237.445                    24342244.422
 128790842.811 6 100356636.716 6  24508106.633                    24508118.832
 107628551.311 8  83866431.663 8  20481033.500                    20481040.727
 106108807.196 8  82682305.34146  20191855.656                    20191862.715
 115536417.235 7  90028420.10445  21985844.344                    21985850.832
 113344548.291 7  88320299.42845  21568705.391                    21568712.504
 128808766.250 6 100370466.93642  24511516.945                    24511530.652
 11  8 11 19 28 30.0000000  0 10G24G17G26G19G01G07G08G28G11G13
 116419038.094 7  90716226.21245  22153794.023                    22153803.758
 118319638.406 7  92197222.809 7  22515468.211                    22515477.383
 120930493.356 7  94231638.88644  23012315.695                    23012324.090
 128024941.276 6  99759709.41843  24362342.602                    24362349.191
 128837254.686 6 100392801.810 6  24516938.508                    24516950.039
 107658663.959 8  83889896.037 8  20486763.898                    20486771.059
 106078521.449 8  82658706.04246  20186092.133                    20186099.605
 115512194.870 8  90009545.54245  21981234.945                    21981241.539
 113354948.767 8  88328403.69945  21570684.727                    21570691.820
 128919551.929 6 100456793.20642  24532597.852                    24532612.125
 11  8 11 19 29  0.0000000  0 10G24G17G26G19G01G07G08G28G11G13
 116383804.889 7  90688771.81144  22147089.828                    22147099.234
 118240007.606 7  92135172.942 7  22500315.141                    22500324.652
 120889579.337 7  94199757.85744  23004529.828                    23004539.184
 128130649.213 6  99842079.16343  24382458.109                    24382464.703
 128884130.623 6 100429328.509 6  24525859.078                    24525870.262
 107689261.427 8  83913738.187 8  20492586.438                    20492593.516
 106048676.472 8  82635450.22646  20180413.141                    20180420.590
 115488019.417 8  89990707.54445  21976634.984                    21976640.801
 113365931.000 8  88336961.28045  21572774.414                    21572781.723
 129030266.123 6 100543063.68842  24553666.734                    24553680.641
 11  8 11 19 29 30.0000000  0 10G24G17G26G19G01G07G08G28G11G13
 116349037.820 7  90661680.63744  22140473.430                    22140483.090
 118160685.893 7  92073363.927 7  22485220.422                    22485229.555
 120849248.384 7  94168331.14344  22996855.102                    22996863.813
 128236410.306 6  99924490.33543  24402583.227                    24402590.438
 128931468.183 6 100466214.885 6  24534866.141                    24534879.090
 107720343.118 8  83937957.662 7  20498500.836                    20498507.742
 106019273.751 8  82612538.99846  20174818.094                    20174825.152
 115463889.856 8  89971905.30745  21972043.117                    21972049.820
 113377494.481 8  88345971.78245  21574974.789                    21574982.094
 129140906.126 6 100629276.34243  24574721.078                    24574735.742
 11  8 11 19 30  0.0000000  0 10G24G17G26G19G01G07G08G28G11G13
 116314739.493 7  90634954.71544  22133946.828                    22133956.191
 118081674.647 7  92011796.839 7  22470185.414                    22470194.172
 120809501.953 7  94137359.89244  22989291.430                    22989300.563
 128342222.907 6 100006941.62443  24422719.172                    24422725.824
 128979266.876 6 100503460.566 6  24543962.422                    24543974.945
 107751909.764 8  83962555.015 7  20504507.922                    20504515.184
 105990316.148 8  82589974.63146  20169307.461                    20169314.645
 115439806.093 8  89953138.75345  21967459.664                    21967466.684
 113389639.774 8  88355435.65045  21577286.781                    21577292.895
 129251469.321 6 100715429.17443  24595761.719                    24595775.379
 11  8 11 19 30 30.0000000  0 10G24G17G26G19G01G07G08G28G11G13
 116280912.274 7  90608595.89945  22127509.594                    22127519.320
 118002975.379 7  91950472.831 7  22455209.422                    22455218.441
 120770341.407 7  94106845.19744  22981839.281                    22981848.992
 128448084.257 6 100089430.93343  24442863.883                    24442870.855
 129027525.613 6 100541064.752 6  24553145.992                    24553157.965
 107783961.833 8  83987530.628 7  20510606.859                    20510614.785
 105961805.858 8  82567758.82646  20163882.242                    20163889.570
 115415767.840 7  89934407.64945  21962885.578                    21962891.656
 113402367.102 8  88365353.03745  21579708.234                    21579715.461
 129361953.173 6 100801520.11843  24616786.320                    24616800.273
 11  8 11 19 31  0.0000000  0 10G24G17G26G19G01G07G08G28G11G13
 116247557.839 7  90582605.48045  22121162.406                    22121171.906
 117924589.025 7  91889392.670 7  22440292.750                    22440301.660
 120731767.283 7  94076787.44044  22974499.328                    22974508.340
 128553992.131 6 100171956.47343  24463017.898                    24463024.160
 129076242.903 6 100579026.235 6  24562416.719                    24562428.992
 107816498.964 8  84012884.200 7  20516798.820                    20516805.930
 105933744.363 8  82545892.71546  20158542.039                    20158549.414
 115391774.384 7  89915711.46145  21958319.906                    21958325.941
 113415675.772 8  88375723.40645  21582240.758                    21582247.469
 129472354.518 6 100887546.82642  24637793.742                    24637809.055
 11  8 11 19 31 30.0000000  0 10G24G17G26G19G01G07G08G28G11G13
 116214678.581 7  90556985.34144  22114905.203                    22114915.621
 117846517.261 7  91828557.644 7  22425436.031                    22425445.215
 120693781.063 7  94047187.79844  22967270.672                    22967279.574
 128659944.683 6 100254516.85043  24483179.500                    24483186.496
 129125417.679 6 100617344.192 6  24571774.422                    24571786.113
 107849521.876 8  84038616.302 7  20523082.813                    20523089.836
 105906134.605 8  82524378.62346  20153288.508                    20153295.781
 115367825.684 7  89897050.13645  21953762.000                    21953768.992
 113429566.095 8  88386547.03245  21584884.156                    21584891.004
 129582671.480 6 100973507.77842  24658786.930                    24658801.859
 11  8 11 19 32  0.0000000  0  9G24G17G26G19G01G07G08G28G11
 116182277.240 7  90531737.59145  22108740.234                    22108749.508
 117768761.816 7  91767969.097 7  22410639.000                    22410648.242
 120656384.309 7  94018047.46444  22960154.289                    22960163.477
 128765940.035 6 100337110.56043  24503350.047                    24503356.723
 129175049.478 6 100656018.305 6  24581218.836                    24581230.703
 107883031.278 8  84064727.488 7  20529459.875                    20529467.051
 105878979.174 7  82503218.54446  20148120.961                    20148128.340
 115343921.887 7  89878423.81245  21949213.742                    21949220.238
 113444038.723 7  88397824.39145  21587638.078                    21587644.813
 11  8 11 19 32 30.0000000  0  9G24G17G26G19G01G07G08G28G11
 116150355.114 7  90506863.24744  22102665.703                    22102675.027
 117691322.751 7  91707627.072 7  22395903.047                    22395912.281
 120619577.633 7  93989366.92344  22953150.445                    22953158.980
 128871975.278 6 100419735.30742  24523527.563                    24523534.035
 129225136.610 6 100695047.205 6  24590750.023                    24590761.984
 107917026.648 8  84091217.345 7  20535928.797                    20535936.203
 105852279.598 8  82482413.67846  20143040.563                    20143047.508
 115320061.756 7  89859831.51245  21944673.570                    21944679.973
 113459093.013 7  88409554.98545  21590502.461                    21590509.988
 11  8 11 19 33  0.0000000  0  9G24G17G26G19G01G07G08G28G11
 116118914.101 7  90482363.80744  22096682.164                    22096691.219
 117614201.756 7  91647532.887 7  22381227.219                    22381235.984
 120583361.781 7  93961146.80044  22946258.750                    22946267.531
 128978048.096 6 100502389.38443  24543713.656                    24543719.191
 129275677.451 6 100734429.651 6  24600368.859                    24600379.488
 107951508.000 8  84118085.903 7  20542490.781                    20542497.469
 105826038.058 8  82461965.72546  20138046.813                    20138053.840
 115296245.138 7  89841273.10645  21940140.914                    21940147.801
 113474728.892 7  88421738.78645  21593478.508                    21593485.410
 11  8 11 19 33 30.0000000  0  9G24G17G26G19G01G07G08G28G11
 116087955.746 7  90458240.45344  22090790.711                    22090800.496
 117537399.322 7  91587686.920 7  22366612.539                    22366621.121
 120547737.519 7  93933387.61844  22939479.898                    22939488.535
 129084155.759 6 100585070.63142  24563903.781                    24563910.863
 129326670.202 6 100774164.244 6  24610071.055                    24610083.676
 107986474.911 8  84145332.813 7  20549144.469                    20549151.387
 105800255.800 8  82441875.64646  20133140.164                    20133147.422
 115272471.171 7  89822747.92445  21935616.953                    21935623.656
 113490945.371 8  88434375.00445  21596563.914                    21596571.449
 11  8 11 19 34  0.0000000  0  9G24G17G26G19G01G07G08G28G11
 116057483.173 7  90434495.63345  22084992.813                    22085001.930
 117460917.363 7  91528090.672 7  22352057.922                    22352066.707
 120512705.810 7  93906090.19844  22932813.094                    22932822.141
 129190296.934 6 100667777.93043  24584102.797                    24584109.527
 129378114.352 6 100814250.556 6  24619861.750                    24619873.492
 108021928.314 8  84172958.809 7  20555891.242                    20555898.250
 105774936.153 8  82422146.04646  20128322.055                    20128329.738
 115248739.961 8  89804256.08045  21931101.266                    21931107.688
 113507743.333 8  88447464.33045  21599760.555                    21599767.828
 11  8 11 19 34 30.0000000  0  9G24G17G26G19G01G07G08G28G11
 116027497.787 7  90411130.42745  22079285.805                    22079295.762
 117384756.695 7  91468744.767 7  22337565.258                    22337574.473
 120478267.790 7  93879255.37644  22926259.461                    22926268.574
 129296469.070 6 100750509.37143  24604305.945                    24604313.508
 129430008.107 6 100854687.228 6  24629735.625                    24629747.469
 108057868.008 8  84200963.734 7  20562730.094                    20562736.715
 105750080.747 8  82402778.19046  20123592.250                    20123599.680
 115225051.072 7  89785797.21145  21926593.289                    21926600.387
 113525122.210 7  88461006.31645  21603067.688                    21603074.430
 11  8 11 19 35  0.0000000  0  9G24G17G26G19G01G07G08G28G11
 115998001.418 7  90388146.27645  22073673.273                    22073682.402
 117308918.106 7  91409649.835 7  22323133.625                    22323142.570
 120444424.034 7  93852883.60744  22919819.945                    22919828.914
 129402669.555 6 100833262.97343  24624515.906                    24624522.777
 129482350.012 6 100895473.122 6  24639697.156                    24639707.805
 108094293.405 8  84229347.121 7  20569661.492                    20569668.508
 105725691.328 8  82383773.43946  20118950.938                    20118958.352
 115201403.910 7  89767370.86545  21922093.430                    21922099.934
 113543081.454 7  88475000.53245  21606485.328                    21606492.141
 11  8 11 19 35 30.0000000  0  9G24G17G26G19G01G07G08G28G11
 115968995.912 7  90365544.61745  22068153.711                    22068162.758
 117233402.825 7  91350806.817 7  22308763.313                    22308772.730
 120411175.226 7  93826975.43344  22913492.805                    22913501.586
 129508896.356 6 100916037.03743  24644730.344                    24644737.441
 129535138.634 6 100936607.079 6  24649742.109                    24649753.762
 108131204.878 8  84258109.280 7  20576685.633                    20576692.699
 105701769.779 8  82365133.26346  20114398.883                    20114406.652
 115177797.825 7  89748976.52745  21917601.156                    21917607.813
 113561620.783 8  88489446.77545  21610013.023                    21610019.934
 11  8 11 19 36  0.0000000  0  9G24G17G26G19G01G07G08G28G11
 115940483.143 7  90343326.92044  22062727.406                    22062736.813
 117158211.965 7  91292216.606 7  22294454.844                    22294464.035
 120378522.284 6  93801531.58444  22907278.422                    22907288.625
 129615147.132 6 100998829.78043  24664949.539                    24664956.512
 129588372.929 6 100978088.310 6  24659872.148                    24659883.832
 108168602.656 8  84287250.377 7  20583802.133                    20583809.367
 105678318.473 8  82346859.50746  20109936.648                    20109943.754
 115154232.832 7  89730614.20145  21913117.758                    21913123.988
 113580739.921 8  88504344.80845  21613651.594                    21613658.070
 11  8 11 19 36 30.0000000  0  9G24G17G26G19G01G07G08G28G11
 115912465.090 7  90321494.70245  22057396.094                    22057405.051
 117083346.892 7  91233880.230 7  22280208.648                    22280217.785
 120346466.275 7  93776552.89844  22901178.742                    22901187.855
 129721419.837 6 101081639.65243  24685171.805                    24685179.082
 129642051.220 6 101019915.503 6  24670086.797                    24670098.598
 108206486.705 8  84316770.378 7  20591011.414                    20591018.227
 105655339.561 8  82328953.85646  20105563.727                    20105571.348
 115130708.378 7  89712283.46445  21908640.992                    21908647.734
 113600438.754 8  88519694.56845  21617400.086                    21617406.871
 11  8 11 19 37  0.0000000  0  9G24G17G26G19G01G07G08G28G11
 115884944.104 7  90300049.80645  22052159.195                    22052168.590
 117008808.807 7  91175798.671 7  22266025.047                    22266033.152
 120315008.103 7  93752040.02344  22895192.570                    22895202.070
 129827712.686 6 101164465.14143  24705399.594                    24705406.543
 129696172.568 6 101062087.975 6  24680385.734                    24680397.914
 108244856.791 8  84346669.116 7  20598312.891                    20598320.027
 105632835.633 8  82311418.31846  20101281.102                    20101288.746
 115107224.708 7  89693984.51045  21904171.742                    21904178.434
 113620717.372 7  88535496.08045  21621258.836                    21621265.859
 11  8 11 19 37 30.0000000  0  9G24G17G26G19G01G07G08G28G11
 115857921.928 7  90278993.58045  22047016.859                    22047026.180
 116934598.944 7  91117972.867 7  22251902.836                    22251911.316
 120284148.336 7  93727993.44844  22889320.133                    22889329.023
 129934023.479 7 101247304.67344  24725629.898                    24725637.348
 129750735.418 6 101104604.428 6  24690768.172                    24690780.480
 108283713.080 7  84376946.700 7  20605707.328                    20605713.863
 105610808.409 8  82294254.23746  20097089.508                    20097096.918
 115083781.389 7  89675717.00645  21899710.602                    21899716.945
 113641575.134 8  88551748.88745  21625227.758                    21625235.094
 11  8 11 19 38  0.0000000  0  9G24G17G26G19G01G07G08G28G11
 115831400.001 7  90258327.16445  22041969.523                    22041978.797
 116860717.960 8  91060403.328 7  22237843.945                    22237852.508
 120253887.602 7  93704413.64644  22883561.148                    22883570.617
 130040349.749 6 101330156.23343  24745862.477                    24745870.461
 129805738.259 6 101147463.717 6  24701235.508                    24701247.691
 108323055.283 8  84407602.915 7  20613193.953                    20613200.477
 105589259.775 8  82277463.09246  20092989.008                    20092996.781
 115060377.929 8  89657480.54945  21895256.922                    21895263.465
 113663011.428 8  88568452.48645  21629307.305                    21629313.926
 11  8 11 19 38 30.0000000  0  9G24G17G26G19G01G07G08G28G11
 115805380.549 7  90238052.27545  22037018.344                    22037027.891
 116787167.076 7  91003091.002 7  22223847.664                    22223856.348
 120224226.931 7  93681301.43344  22877917.867                    22877926.434
 130146689.611 6 101413018.37343  24766099.211                    24766106.367
 129861179.753 5 101190664.850 6  24711785.352                    24711797.137
 108362883.643 8  84438637.959 7  20620772.977                    20620779.930
 105568192.175 8  82261046.77046  20088980.125                    20088987.664
 115037014.330 7  89639275.15845  21890811.148                    21890817.957
 113685026.693 8  88585607.23745  21633496.992                    21633503.367
 11  8 11 19 39  0.0000000  0  9G24G17G26G19G01G07G08G28G11
 115779864.985 7  90218170.03745  22032163.820                    22032172.070
 116713946.823 7  90946036.316 7  22209913.953                    22209923.375
 120195166.595 7  93658657.01944  22872387.367                    22872396.293
 130253040.316 6 101495888.96143  24786336.273                    24786344.406
 129917057.602 6 101234205.963 6  24722418.188                    24722430.652
 108403197.422 8  84470051.252 7  20628444.250                    20628451.668
 105547606.588 7  82245006.04546  20085062.781                    20085070.191
 115013689.561 7  89621100.03045  21886372.383                    21886379.461
 113707619.449 8  88603211.97845  21637795.414                    21637802.828
 11  8 11 19 39 30.0000000  0  9G24G17G26G19G01G07G08G28G11
 115754855.356 7  90198682.03345  22027403.984                    22027413.105
 116641058.770 7  90889240.498 7  22196043.852                    22196052.742
 120166706.997 7  93636480.73344  22866971.750                    22866980.660
 130359400.229 6 101578766.76243  24806576.094                    24806583.480
 129973370.583 6 101278086.170 6  24733133.984                    24733146.355
 108443996.706 8  84501842.857 7  20636208.305                    20636215.199
 105527505.111 8  82229342.55246  20081237.586                    20081245.082
 114990403.618 8  89602955.13945  21881941.258                    21881947.914
 113730789.331 8  88621266.42345  21642204.688                    21642211.902
 11  8 11 19 40  0.0000000  0  8G24G17G26G01G07G08G28G11
 115730353.424 7  90179589.63845  22022741.500                    22022750.484
 116568503.789 7  90832704.213 7  22182236.773                    22182245.836
 120138849.098 7  93614773.28744  22861670.203                    22861679.480
 130030117.863 5 101322304.820 6  24743933.719                    24743945.359
 108485281.534 8  84534012.821 7  20644064.711                    20644072.168
 105507890.368 8  82214058.32846  20077504.711                    20077512.301
 114967156.374 8  89584840.40945  21877517.602                    21877524.223
 113754536.257 8  88639770.51345  21646723.945                    21646730.926
 11  8 11 19 40 30.0000000  0  8G24G17G26G01G07G08G28G11
 115706361.170 7  90160894.39145  22018175.867                    22018184.887
 116496283.074 7  90776428.408 7  22168493.977                    22168502.711
 120111593.961 7  93593535.52444  22856484.664                    22856493.195
 130087297.825 5 101366860.585 6  24754814.992                    24754826.191
 108527052.177 8  84566561.338 7  20652013.258                    20652020.535
 105488764.399 8  82199154.96746  20073865.156                    20073873.008
 114943947.963 7  89566755.94245  21873101.258                    21873108.113
 113778859.694 7  88658723.83945  21651352.539                    21651359.047
 11  8 11 19 41  0.0000000  0  8G24G17G26G01G07G08G28G11
 115682880.121 7  90142597.50345  22013707.789                    22013716.469
 116424397.277 7  90720413.573 7  22154814.258                    22154823.035
 120084941.480 7  93572767.36744  22851411.797                    22851420.996
 130144908.961 6 101411752.324 6  24765778.578                    24765789.555
 108569307.951 8  84599487.882 7  20660054.008                    20660061.484
 105470129.079 8  82184633.94046  20070319.273                    20070326.598
 114920777.867 8  89548701.33245  21868692.344                    21868698.434
 113803759.381 7  88678126.19045  21656091.023                    21656097.613
 11  8 11 19 41 30.0000000  0  8G24G17G26G01G07G08G28G11
 115659911.845 7  90124700.17545  22009336.922                    22009345.941
 116352847.798 7  90664660.809 7  22141198.742                    22141207.805
 120058892.283 7  93552469.28944  22846455.156                    22846464.363
 130202949.352 6 101456978.587 6  24776822.031                    24776834.500
 108612048.712 8  84632792.340 7  20668187.805                    20668194.836
 105451986.163 8  82170496.60346  20066866.695                    20066874.340
 114897645.635 8  89530676.22245  21864289.820                    21864296.383
 113829234.499 7  88697976.92245  21660937.891                    21660945.270
 11  8 11 19 42  0.0000000  0  8G24G17G26G01G07G08G28G11
 115637457.897 7  90107203.62345  22005063.961                    22005073.148
 116281635.073 7  90609170.440 7  22127647.055                    22127656.672
 120033446.839 7  93532641.68244  22841613.203                    22841622.023
 130261417.393 6 101502538.063 6  24787948.969                    24787959.984
 108655274.200 8  84666474.502 7  20676412.930                    20676420.273
 105434337.212 8  82156744.17446  20063508.148                    20063516.223
 114874551.058 8  89512680.45145  21859895.320                    21859901.898
 113855284.259 8  88718275.43045  21665895.289                    21665902.512
 11  8 11 19 42 30.0000000  0  8G24G17G26G01G07G08G28G11
 115615519.770 7  90090109.01245  22000889.273                    22000898.082
 116210760.064 7  90553943.230 7  22114160.242                    22114168.934
 120008605.433 6  93513284.72244  22836886.242                    22836894.527
 130320311.164 6 101548429.306 6  24799155.234                    24799167.621
 108698983.728 8  84700533.835 7  20684730.727                    20684738.113
 105417184.022 8  82143378.04446  20060243.984                    20060251.617
 114851493.371 8  89494713.43245  21855507.461                    21855514.477
 113881907.794 7  88739021.02945  21670961.742                    21670969.074
 11  8 11 19 43  0.0000000  0  8G24G17G26G01G07G08G28G11
 115594099.471 7  90073417.91445  21996813.031                    21996822.504
 116140223.881 7  90498980.035 7  22100737.766                    22100746.672
 119984368.807 7  93494399.07044  22832274.375                    22832283.063
 130379629.473 6 101594651.318 6  24810444.078                    24810455.383
 108743177.163 8  84734970.242 7  20693140.703                    20693148.051
 105400528.843 8  82130399.98446  20057074.789                    20057082.074
 114828472.871 8  89476775.38745  21851126.820                    21851133.484
 113909104.867 7  88760213.55745  21676136.977                    21676144.027
 11  8 11 19 43 30.0000000  0  8G24G17G26G01G07G08G28G11
 115573198.477 7  90057131.46445  21992836.063                    21992844.797
 116070027.654 7  90444281.742 7  22087380.156                    22087388.449
 119960737.174 7  93475984.82344  22827776.133                    22827785.699
 130439370.801 6 101641203.001 6  24821812.086                    24821824.086
 108787854.565 8  84769783.769 7  20701642.414                    20701649.574
 105384373.664 8  82117811.52646  20054000.477                    20054007.813
 114805489.488 7  89458866.26245  21846753.313                    21846759.848
 113936874.845 7  88781852.49545  21681421.711                    21681428.422
 11  8 11 19 44  0.0000000  0  8G24G17G26G01G07G08G28G11
 115552817.960 7  90041250.56545  21988957.180                    21988967.051
 116000172.016 8  90389848.835 7  22074086.563                    22074095.852
 119937710.828 7  93458042.21144  22823395.328                    22823404.039
 130499533.306 6 101688082.833 6  24833260.852                    24833273.047
 108833015.244 8  84804973.870 7  20710236.180                    20710243.355
 105368719.550 8  82105613.52246  20051021.625                    20051029.238
 114782542.693 8  89440985.64845  21842386.938                    21842393.707
 113965216.837 7  88803937.15845  21686814.406                    21686821.855
 11  8 11 19 44 30.0000000  0  8G24G17G26G01G07G08G28G11
 115532960.139 7  90025776.97045  21985178.758                    21985187.574
 115930657.788 8  90335681.967 7  22060858.281                    22060867.117
 119915290.477 7  93440571.78144  22819128.953                    22819138.145
 130560115.748 6 101735289.825 6  24844788.648                    24844801.566
 108878659.370 8  84840540.666 7  20718921.922                    20718929.094
 105353569.180 8  82093808.03446  20048138.398                    20048145.902
 114759632.708 7  89423133.71245  21838026.813                    21838033.871
 113994130.733 7  88826467.46145  21692317.188                    21692324.063
 11  8 11 19 45  0.0000000  0  8G24G17G26G01G07G08G28G11
 115513626.039 7  90010711.47345  21981498.703                    21981508.250
 115861485.877 8  90281781.836 7  22047695.938                    22047704.211
 119893476.234 7  93423573.67544  22814977.500                    22814986.516
 130621115.753 6 101782822.261 6  24856397.164                    24856409.125
 108924786.094 8  84876483.527 7  20727699.711                    20727706.895
 105338923.878 8  82082396.11846  20045352.078                    20045359.594
 114736758.607 8  89405309.74745  21833674.313                    21833681.094
 114023615.257 7  88849442.39745  21697927.492                    21697935.008
 11  8 11 19 45 30.0000000  0  8G24G17G26G01G07G08G28G11
 115494817.439 7  89996055.45845  21977919.633                    21977929.027
 115792657.401 7  90228149.308 7  22034597.844                    22034606.898
 119872268.415 7  93407048.09744  22810941.914                    22810950.551
 130682531.966 6 101830679.063 6  24868083.711                    24868095.934
 108971395.310 8  84912802.355 7  20736569.281                    20736576.703
 105324785.539 8  82071379.22446  20042661.125                    20042668.555
 114713920.771 8  89387514.02945  21829328.617                    21829335.191
 114053669.652 7  88872861.40545  21703647.164                    21703653.930
 11  8 11 19 46  0.0000000  0  8G24G17G26G01G07G08G28G11
 115476535.994 7  89981810.20745  21974441.484                    21974450.395
 115724173.374 8  90174785.178 7  22021565.859                    22021574.363
 119851667.356 7  93390995.31844  22807021.828                    22807030.438
 130744363.145 6 101878859.141 6  24879850.414                    24879862.441
 109018487.012 8  84949497.173 7  20745530.570                    20745537.793
 105311156.515 8  82060759.20346  20040067.695                    20040075.355
 114691119.261 8  89369746.62345  21824989.055                    21824995.848
 114084293.570 7  88896724.18545  21709474.250                    21709481.594
 11  8 11 19 46 30.0000000  0  8G24G17G26G01G07G08G28G11
 115458782.532 7  89967976.35345  21971063.008                    21971072.023
 115656033.809 8  90121689.474 7  22008599.117                    22008608.289
 119831672.964 7  93375415.24044  22803216.867                    22803225.813
 130806606.780 6 101927360.645 6  24891694.938                    24891706.086
 109066059.809 8  84986566.847 7  20754583.367                    20754590.582
 105298037.433 8  82050536.53846  20037571.383                    20037578.832
 114668353.136 8  89352006.79645  21820657.133                    21820663.730
 114115485.504 7  88921029.57645  21715410.039                    21715417.484
 11  8 11 19 47  0.0000000  0  8G24G17G26G01G07G08G28G11
 115441559.106 7  89954555.50845  21967785.766                    21967794.699
 115588240.128 7  90068863.275 7  21995698.328                    21995707.035
 119812285.641 7  93360308.22244  22799527.758                    22799536.316
 130869261.313 6 101976182.328 6  24903617.336                    24903629.227
 109114113.767 8  85024011.440 7  20763727.648                    20763735.414
 105285430.659 8  82040713.06646  20035172.211                    20035179.887
 114645622.707 8  89334294.77945  21816331.938                    21816338.594
 114147245.020 7  88945777.23645  21721453.523                    21721460.980
 11  8 11 19 47 30.0000000  0  8G24G17G26G01G07G08G28G11
 115424866.450 7  89941548.25845  21964608.586                    21964617.813
 115520792.514 7  90016306.745 7  21982863.430                    21982871.754
 119793505.155 7  93345674.04944  22795954.148                    22795962.039
 130932324.884 6 102025322.704 6  24915618.195                    24915630.730
 109162647.993 8  85061830.269 7  20772963.398                    20772970.895
 105273337.099 8  82031289.49946  20032870.867                    20032878.023
 114622927.124 8  89316609.91045  21812013.164                    21812019.289
 114179570.739 7  88970966.08445  21727605.453                    21727612.691
 11  8 11 19 48  0.0000000  0  8G24G17G26G01G07G08G28G11
 115408706.516 7  89928956.12145  21961534.195                    21961542.875
 115453692.337 7  89964020.957 7  21970094.727                    21970103.250
 119775332.097 7  93331513.20744  22792495.578                    22792504.770
 130995796.345 6 102074780.919 6  24927696.813                    24927708.715
 109211662.526 8  85100023.373 7  20782290.352                    20782298.168
 105261759.178 8  82022267.73146  20030667.828                    20030674.789
 114600266.882 8  89298952.58045  21807701.000                    21807707.555
 114212462.467 7  88996595.98245  21733864.273                    21733871.551
 11  8 11 19 48 30.0000000  0  8G24G17G26G01G07G08G28G11
 115393080.917 7  89916780.33745  21958560.633                    21958569.121
 115386940.912 7  89912006.926 7  21957392.211                    21957401.113
 119757766.925 7  93317826.04144  22789153.391                    22789161.980
 131059674.015 6 102124555.727 6  24939852.375                    24939863.195
 109261157.170 8  85138590.588 7  20791709.547                    20791716.797
 105250699.290 8  82013649.62146  20028563.195                    20028570.406
 114577642.177 8  89281322.95345  21803395.828                    21803401.898
 114245919.244 7  89022666.18645  21740230.977                    21740237.965
 11  8 11 19 49  0.0000000  0  8G24G17G26G01G07G08G28G11
 115377990.409 7  89905021.53745  21955688.281                    21955697.465
 115320538.018 7  89860264.488 7  21944756.070                    21944764.656
 119740809.173 7  93304612.19144  22785926.461                    22785935.605
 131123955.339 6 102174645.034 6  24952084.703                    24952095.957
 109311130.573 8  85177530.854 7  20801218.930                    20801226.406
 105240157.995 8  82005435.60446  20026557.156                    20026564.773
 114555052.150 8  89263720.34645  21799097.039                    21799103.355
 114279939.601 7  89049175.55245  21746704.664                    21746712.129
 11  8 11 19 49 30.0000000  0  8G24G17G26G01G07G08G28G11
 115363436.379 7  89893680.75645  21952919.148                    21952927.781
 115254484.503 7  89808794.279 7  21932186.711                    21932195.176
 119724458.840 7  93291871.65144  22782815.227                    22782824.270
 131188638.503 6 102225047.439 6  24964393.328                    24964404.922
 109361582.439 8  85216843.940 7  20810819.461                    20810826.703
 105230137.160 8  81997627.14446  20024650.000                    20024657.727
 114532496.821 8  89246144.77545  21794804.805                    21794811.309
 114314522.981 7  89076123.64545  21753285.484                    21753292.961
 11  8 11 19 50  0.0000000  0  8G24G17G26G01G07G08G28G11
 115349420.029 7  89882758.94245  21950251.602                    21950260.684
 115188781.453 7  89757597.150 7  21919683.523                    21919692.059
 119708716.274 7  93279604.69544  22779819.156                    22779828.426
 131253722.301 6 102275762.084 6  24976778.805                    24976790.516
 109412512.464 8  85256529.620 7  20820511.258                    20820518.824
 105220638.213 8  81990225.35646  20022842.914                    20022850.199
 114509976.488 7  89228596.47145  21790519.016                    21790525.547
 114349668.379 7  89103509.66845  21759973.953                    21759980.777
 11  8 11 19 50 30.0000000  0  8G24G17G26G01G07G08G28G11
 115335943.002 7  89872257.39245  21947686.820                    21947696.277
 115123429.695 7  89706673.759 7  21907247.805                    21907255.988
 119693581.388 7  93267811.25244  22776939.531                    22776948.441
 131319204.962 6 102326787.495 6  24989239.203                    24989251.672
 109463919.991 8  85296587.395 7  20830293.680                    20830301.227
 105211663.298 8  81983231.90446  20021135.156                    20021142.430
 114487490.772 7  89211075.13245  21786239.945                    21786246.910
 114385374.659 7  89131332.73345  21766768.063                    21766775.414
 11  8 11 19 51  0.0000000  0  8G24G17G26G01G07G08G28G11
 115323006.417 7  89862176.95945  21945225.414                    21945234.332
 115058429.616 7  89656024.409 7  21894878.375                    21894886.988
 119679054.209 7  93256491.37044  22774174.852                    22774184.043
 131385084.199 6 102378121.926 6  25001775.141                    25001787.824
 109515804.262 8  85337016.655 7  20840167.070                    20840174.676
 105203213.780 8  81976647.85546  20019526.836                    20019534.508
 114465039.282 8  89193580.46645  21781967.875                    21781974.441
 114421640.936 7  89159592.16245  21773669.508                    21773676.746
 11  8 11 19 51 30.0000000  0  7G24G17G26G07G08G28G11
 115310611.516 7  89852518.60845  21942866.898                    21942875.887
 114993782.173 7  89605649.840 7  21882576.320                    21882585.039
 119665134.678 7  93245644.95444  22771526.211                    22771534.898
 109568165.056 8  85377817.230 7  20850131.250                    20850138.758
 105195291.412 8  81970474.57146  20018019.859                    20018026.887
 114442622.551 8  89176112.88345  21777702.367                    21777708.453
 114458466.533 7  89188287.42845  21780676.836                    21780684.324
 11  8 11 19 52  0.0000000  0  7G24G17G26G07G08G28G11
 115298759.342 7  89843283.18045  21940611.297                    21940620.102
 114929487.820 7  89555550.399 7  21870341.758                    21870350.141
 119651822.533 7  93235271.84344  22768992.797                    22769001.914
 109621001.768 8  85418988.656 7  20860185.625                    20860193.051
 105187897.290 8  81964712.90346  20016612.594                    20016619.957
 114420239.969 8  89158671.90845  21773443.258                    21773449.449
 114495849.846 7  89217417.29045  21787790.688                    21787798.676
 11  8 11 19 52 30.0000000  0  7G24G17G26G07G08G28G11
 115287451.462 7  89834471.86545  21938459.953                    21938468.172
 114865547.637 7  89505726.938 7  21858174.086                    21858182.449
 119639118.098 7  93225372.27844  22766575.109                    22766584.121
 109674313.546 8  85460530.263 7  20870330.609                    20870337.852
 105181033.741 8  81959364.66746  20015306.445                    20015313.703
 114397891.878 8  89141257.81746  21769189.742                    21769196.582
 114533790.130 7  89246981.13445  21795010.758                    21795018.191
 11  8 11 19 53  0.0000000  0  7G24G17G26G07G08G28G11
 115276689.054 7  89826085.59245  21936412.008                    21936420.258
 114801962.449 7  89456180.084 7  21846074.625                    21846082.484
 119627021.202 7  93215946.10544  22764273.180                    22764281.832
 109728099.730 8  85502441.536 7  20880565.711                    20880573.426
 105174702.110 8  81954430.90546  20014101.453                    20014109.160
 114375578.355 8  89123870.65645  21764944.188                    21764950.461
 114572286.256 7  89276978.10945  21802337.023                    21802343.844
 11  8 11 19 53 30.0000000  0  7G24G17G26G07G08G28G11
 115266472.629 7  89818124.76544  21934467.055                    21934476.270
 114738732.387 7  89406909.957 7  21834042.297                    21834050.141
 119615531.272 7  93206992.90344  22762086.883                    22762095.730
 109782359.229 8  85544721.629 7  20890890.906                    20890898.383
 105168903.230 8  81949912.28446  20012997.844                    20013005.355
 114353298.829 8  89106509.98846  21760704.195                    21760711.125
 114611336.663 7  89307407.00145  21809768.211                    21809775.125
 11  8 11 19 54  0.0000000  0  7G24G17G26G07G08G28G11
 115256803.646 7  89810590.52045  21932627.445                    21932635.996
 114675858.216 7  89357917.149 7  21822077.352                    21822085.324
 119604648.432 7  93198512.76344  22760015.969                    22760024.906
 109837091.703 8  85587370.296 7  20901306.547                    20901313.672
 105163638.975 8  81945810.24946  20011996.648                    20012003.750
 114331053.503 8  89089175.97645  21756471.086                    21756477.848
 114650940.504 7  89338267.11545  21817303.727                    21817310.922
 11  8 11 19 54 30.0000000  0  7G24G17G26G07G08G28G11
 115247683.111 7  89803483.63144  21930891.453                    21930900.695
 114613340.567 7  89309202.145 7  21810180.695                    21810188.656
 119594372.316 7  93190505.39844  22758060.539                    22758069.258
 109892296.471 8  85630386.966 7  20911811.617                    20911819.215
 105158910.838 8  81942125.97046  20011096.461                    20011104.305
 114308842.617 8  89071868.79245  21752244.492                    21752251.168
 114691096.749 7  89369557.70445  21824945.477                    21824952.523
 11  8 11 19 55  0.0000000  0  7G24G17G26G07G08G28G11
 115239111.975 7  89796804.85544  21929260.719                    21929269.473
 114551179.877 7  89260765.294 7  21798351.906                    21798360.012
 119584702.494 7  93182970.46944  22756220.273                    22756229.508
 109947972.652 8  85673770.961 7  20922406.422                    20922413.758
 105154720.080 8  81938860.42546  20010298.781                    20010306.727
 114286665.475 8  89054587.90745  21748024.352                    21748030.660
 114731803.867 7  89401277.52445  21832691.906                    21832698.500
 11  8 11 19 55 30.0000000  0  7G24G17G26G07G08G28G11
 115231091.559 7  89790555.19245  21927734.500                    21927743.566
 114489377.323 7  89212607.505 7  21786591.172                    21786599.488
 119575639.119 7  93175908.08744  22754495.602                    22754504.813
 110004119.993 8  85717522.104 7  20933090.766                    20933098.047
 105151068.539 8  81936015.04446  20009604.141                    20009611.523
 114264522.928 8  89037333.97845  21743810.563                    21743817.535
 114773061.174 7  89433426.05845  21840542.742                    21840549.844
 11  8 11 19 56  0.0000000  0  7G24G17G26G07G08G28G11
 115223622.445 7  89784735.12545  21926312.984                    21926321.547
 114427933.226 7  89164729.038 7  21774898.602                    21774906.961
 119567181.843 7  93169317.96944  22752885.820                    22752895.461
 110060737.077 8  85761639.273 7  20943864.719                    20943872.031
 105147957.236 8  81933590.63246  20009012.391                    20009020.199
 114242414.347 8  89020106.51845  21739603.570                    21739610.273
 114814866.925 7  89466001.95045  21848498.172                    21848505.270
 11  8 11 19 56 30.0000000  0  7G24G17G26G07G08G28G11
 115216705.717 7  89779345.48145  21924996.711                    21925005.984
 114366847.663 7  89117129.957 7  21763274.742                    21763282.520
 119559329.701 7  93163199.42544  22751392.000                    22751401.508
 110117823.204 8  85806121.940 7  20954727.969                    20954735.492
 105145387.109 8  81931587.91546  20008523.195                    20008530.531
 114220339.548 8  89002905.38245  21735402.992                    21735409.695
 114857219.586 7  89499003.99945  21856557.164                    21856564.477
 11  8 11 19 57  0.0000000  0  7G24G17G26G07G08G28G11
 115210341.610 7  89774386.43645  21923785.516                    21923794.473
 114306120.497 7  89069810.148 7  21751718.398                    21751726.574
 119552081.737 7  93157551.63544  22750012.492                    22750021.551
 110175376.528 7  85850968.651 7  20965679.938                    20965687.656
 105143358.473 7  81930007.14646  20008137.297                    20008144.563
 114198297.694 8  88985729.92045  21731208.648                    21731214.891
 114900117.213 7  89532430.67845  21864720.922                    21864727.680
 11  8 11 19 57 30.0000000  0  7G24G17G26G07G08G28G11
 115204532.634 7  89769859.98045  21922680.383                    21922689.199
 114245754.167 7  89022771.518 7  21740230.297                    21740239.336
 119545439.116 7  93152375.55444  22748748.570                    22748757.676
 110233397.865 7  85896180.035 7  20976720.945                    20976728.805
 105141875.097 8  81928851.25446  20007855.055                    20007861.871
 114176290.722 8  88968581.63746  21727020.930                    21727027.344
 114943560.299 7  89566282.39845  21872987.813                    21872994.758
 11  8 11 19 58  0.0000000  0  7G24G17G26G07G08G28G11
 115199278.776 7  89765766.07444  21921680.258                    21921689.398
 114185747.990 7  88976013.512 7  21728812.086                    21728820.598
 119539400.918 7  93147670.45744  22747600.031                    22747608.836
 110291885.799 7  85941755.016 7  20987851.242                    20987858.680
 105140937.701 8  81928120.79146  20007676.578                    20007684.289
 114154317.941 8  88951459.99946  21722839.070                    21722846.020
 114987546.928 7  89600557.66145  21881358.242                    21881365.188
 11  8 11 19 58 30.0000000  0  7G24G17G26G07G08G28G11
 115194581.353 7  89762105.74345  21920786.813                    21920795.797
 114126103.141 7  88929537.069 7  21717462.141                    21717470.402
 119533966.857 7  93143436.09044  22746565.656                    22746574.332
 110350839.600 7  85987693.004 7  20999069.430                    20999077.230
 105140547.325 8  81927816.58346  20007602.563                    20007609.285
 114132379.494 8  88934365.11345  21718664.813                    21718671.512
 115032075.528 7  89635255.24245  21889831.805                    21889839.152
 11  8 11 19 59  0.0000000  0  7G24G17G26G07G08G28G11
 115190440.679 7  89758879.24645  21919998.148                    21920007.328
 114066819.561 7  88883342.122 7  21706180.656                    21706189.258
 119529135.968 7  93139671.75044  22745646.211                    22745655.465
 110410257.979 7  86033993.006 7  21010376.867                    21010384.332
 105140704.765 8  81927939.25446  20007632.117                    20007639.406
 114110475.020 8  88917296.68945  21714496.273                    21714503.254
 115077144.370 7  89670373.79645  21898407.953                    21898415.242
 11  8 11 19 59 30.0000000  0  7G24G17G26G07G08G28G11
 115186858.063 7  89756087.59845  21919316.688                    21919325.848
 114007898.089 7  88837429.332 7  21694967.969                    21694976.414
 119524908.176 7  93136377.33744  22744841.813                    22744851.035
 110470140.371 8  86080654.576 7  21021771.750                    21021779.453
 105141411.953 8  81928490.28946  20007766.641                    20007774.121
 114088605.062 8  88900255.16645  21710335.422                    21710341.668
 115122752.712 7  89705912.75245  21907087.469                    21907094.395
 11  8 11 20  0  0.0000000  0  7G24G17G26G07G08G28G11
 115183833.972 7  89753731.16145  21918741.023                    21918750.215
 113949338.858 7  88791798.804 7  21683824.578                    21683833.098
 119521282.539 7  93133552.15944  22744152.047                    22744160.645
 110530485.483 7  86127676.698 7  21033255.336                    21033262.887
 105142669.398 8  81929470.10746  20008005.836                    20008013.609
 114066769.039 8  88883240.08745  21706179.430                    21706186.188
 115168898.557 7  89741870.53245  21915868.148                    21915875.234
 11  8 11 20  0 30.0000000  0  7G24G17G26G07G08G28G11
 115181369.171 7  89751810.54445  21918272.555                    21918281.535
 113891142.674 7  88746451.182 7  21672750.422                    21672758.824
 119518258.749 7  93131195.94144  22743576.438                    22743585.637
 110591292.779 7  86175058.967 7  21044826.547                    21044834.238
 105144478.761 8  81930879.98946  20008350.344                    20008357.695
 114044967.574 8  88866251.94145  21702030.609                    21702036.957
 115215580.810 7  89778246.29945  21924751.273                    21924759.113
 11  8 11 20  1  0.0000000  0  7G24G17G26G07G08G28G11
 115179464.281 7  89750326.22445  21917910.359                    21917918.746
 113833309.854 7  88701386.688 7  21661745.055                    21661753.313
 119515836.001 7  93129308.07544  22743115.547                    22743124.629
 110652561.020 7  86222800.391 7  21056485.758                    21056493.316
 105146840.840 8  81932720.55446  20008800.102                    20008807.324
 114023200.443 8  88849290.53745  21697888.898                    21697895.016
 115262797.699 7  89815038.65745  21933736.164                    21933743.906
 11  8 11 20  1 30.0000000  0  7G24G17G26G07G08G28G11
 115178120.144 7  89749278.84845  21917654.305                    21917663.117
 113775840.493 7  88656605.392 7  21650809.172                    21650817.293
 119514013.700 7  93127888.07944  22742768.977                    22742777.738
 110714288.894 7  86270899.984 7  21068231.703                    21068239.707
 105149756.764 7  81934992.68946  20009354.570                    20009362.184
 114001467.844 8  88832356.04946  21693753.148                    21693759.609
 115310547.806 7  89852246.53544  21942822.938                    21942830.305
 11  8 11 20  2  0.0000000  0  7G24G17G26G07G08G28G11
 115177337.475 7  89748668.98444  21917505.047                    21917514.336
 113718735.401 7  88612107.966 7  21639942.102                    21639950.375
 119512791.393 7  93126935.61644  22742535.922                    22742545.254
 110776475.736 7  86319357.231 7  21080065.844                    21080073.992
 105153228.134 8  81937697.64046  20010015.453                    20010023.086
 113979770.015 8  88815448.65445  21689623.914                    21689630.672
 115358829.971 7  89889868.99245  21952010.953                    21952018.363
 11  8 11 20  2 30.0000000  0  7G24G17G26G07G08G28G11
 115177117.082 7  89748497.24544  21917463.758                    21917472.320
 113661994.820 7  88567894.559 7  21629144.586                    21629152.781
 119512168.429 7  93126450.15344  22742417.555                    22742426.473
 110839120.497 7  86368171.306 7  21091986.164                    21091994.543
 105157256.024 8  81940836.23446  20010781.758                    20010789.473
 113958106.957 8  88798568.35445  21685501.961                    21685508.363
 115407642.693 7  89927904.86044  21961299.570                    21961306.785
 11  8 11 20  3  0.0000000  0  7G24G17G26G07G08G28G11
 115177459.793 7  89748764.31345  21917528.789                    21917537.066
 113605619.569 7  88523965.839 7  21618417.156                    21618425.199
 119512144.157 7  93126431.21144  22742413.258                    22742422.059
 110902222.411 7  86417341.580 7  21103994.086                    21104002.438
 105161841.721 7  81944409.48546  20011655.031                    20011662.309
 113936479.128 8  88781715.50045  21681386.344                    21681392.813
 115456984.294 7  89966352.83945  21970689.422                    21970696.094
 11  8 11 20  3 30.0000000  0  7G24G17G26G07G08G28G11
 115178365.895 7  89749470.37745  21917700.445                    21917709.832
 113549609.715 7  88480321.835 7  21607759.102                    21607767.059
 119512717.691 7  93126878.10144  22742521.758                    22742530.938
 110965780.175 7  86466867.069 7  21116089.570                    21116096.480
 105166986.054 8  81948418.04446  20012633.414                    20012640.879
 113914886.122 8  88764889.78145  21677276.641                    21677283.574
 115506852.956 7  90005211.52744  21980178.883                    21980185.930
 11  8 11 20  4  0.0000000  0  7G24G17G26G07G08G28G11
 115179836.149 7  89750616.03645  21917980.734                    21917989.145
 113493965.914 7  88436963.081 7  21597170.180                    21597178.316
 119513888.210 7  93127790.18344  22742744.555                    22742753.441
 111029792.704 7  86516746.927 7  21128270.211                    21128277.934
 105172689.744 8  81952862.46646  20013718.688                    20013726.547
 113893328.447 8  88748091.60245  21673174.922                    21673181.707
 115557247.247 7  90044479.80244  21989768.656                    21989775.719
 11  8 11 20  4 30.0000000  0  7G24G17G26G07G08G28G11
 115181870.676 7  89752201.39645  21918368.117                    21918376.855
 113438687.626 7  88393889.136 7  21586650.789                    21586658.777
 119515654.772 7  93129166.68944  22743081.711                    22743090.031
 111094258.593 7  86566980.055 7  21140538.063                    21140545.715
 105178953.674 8  81957743.43746  20014910.695                    20014918.289
 113871806.026 7  88731320.88345  21669079.094                    21669086.551
 115608165.485 7  90084156.31245  21999458.328                    21999465.023
 11  8 11 20  5  0.0000000  0  7G24G17G26G07G08G28G11
 115184470.276 7  89754227.05245  21918862.813                    21918871.078
 113383775.515 7  88351100.540 7  21576201.297                    21576209.383
 119518016.722 6  93131007.14044  22743530.836                    22743539.707
 111159177.050 7  86617565.818 7  21152891.422                    21152899.543
 105185779.158 7  81963061.97646  20016209.938                    20016217.172
 113850318.807 7  88714577.60145  21664990.430                    21664997.133
 115659606.117 7  90124239.91244  22009246.422                    22009254.168
 11  8 11 20  5 30.0000000  0  7G24G17G26G07G08G28G11
 115187635.548 7  89756693.51245  21919464.930                    21919473.613
 113329230.134 7  88308597.686 7  21565821.563                    21565829.750
 119520973.272 7  93133310.94244  22744093.391                    22744102.242
 111224546.988 7  86668503.388 7  21165330.984                    21165339.051
 105193167.407 8  81968819.04246  20017615.914                    20017623.371
 113828867.342 7  88697862.17145  21660908.133                    21660914.914
 115711567.475 7  90164729.26045  22019135.086                    22019142.063
 11  8 11 20  6  0.0000000  0  7G24G17G26G07G08G28G11
 115191367.365 7  89759601.42945  21920174.734                    21920184.199
 113275052.202 7  88266381.162 7  21555512.109                    21555519.887
 119524523.819 7  93136077.56244  22744769.578                    22744777.809
 111290367.333 7  86719791.927 7  21177856.016                    21177864.020
 105201119.626 7  81975015.56046  20019129.031                    20019136.410
 113807452.302 7  88681175.12745  21656833.289                    21656839.449
 115764048.278 7  90205623.37244  22029121.555                    22029128.918
 11  8 11 20  6 30.0000000  0  7G24G17G26G07G08G28G11
 115195665.780 7  89762950.83845  21920992.797                    21921002.098
 113221241.659 7  88224450.912 7  21545272.094                    21545280.121
 119528667.148 7  93139306.09244  22745557.258                    22745566.074
 111356636.622 7  86771430.293 7  21190466.813                    21190474.352
 105209636.503 8  81981652.07246  20020749.375                    20020757.195
 113786073.077 7  88664516.00245  21652765.102                    21652771.086
 115817046.521 7  90246920.69644  22039207.164                    22039213.977
 11  8 11 20  7  0.0000000  0  7G24G17G26G07G08G28G11
 115200530.973 7  89766741.90144  21921918.922                    21921927.746
 113167798.381 7  88182806.844 7  21535102.117                    21535109.953
 119533402.255 7  93142995.76544  22746458.797                    22746467.543
 111423353.675 7  86823417.565 7  21203162.836                    21203170.625
 105218718.552 8  81988728.98546  20022478.125                    20022485.215
 113764729.742 7  88647884.83745  21648703.141                    21648709.563
 115870560.596 7  90288619.96644  22049390.453                    22049397.891
 11  8 11 20  7 30.0000000  0  7G24G17G26G07G08G28G11
 115205963.534 7  89770975.06545  21922952.633                    21922960.980
 113114723.260 7  88141449.641 7  21525002.313                    21525009.953
 119538728.248 7  93147145.86144  22747472.031                    22747481.031
 111490517.492 7  86875752.978 7  21215943.477                    21215951.582
 105228367.050 8  81996247.27346  20024314.125                    20024321.508
 113743423.011 7  88631282.19445  21644648.891                    21644654.570
 115924588.692 7  90330719.77045  22059671.555                    22059679.148
 11  8 11 20  8  0.0000000  0  7G24G17G26G07G08G28G11
 115211964.001 7  89775650.75045  21924094.422                    21924103.262
 113062016.286 7  88100379.329 7  21514972.445                    21514980.742
 119544644.227 6  93151755.67944  22748597.656                    22748606.645
 111558126.833 8  86928435.540 7  21228809.320                    21228817.109
 105238582.633 8  82004207.44946  20026258.117                    20026265.426
 113722152.867 7  88614708.05846  21640601.273                    21640608.031
 115979129.017 7  90373218.72644  22070050.414                    22070057.230
 11  8 11 20  8 30.0000000  0  7G24G17G26G07G08G28G11
 115218532.540 7  89780769.10045  21925343.906                    21925353.227
 113009677.572 7  88059595.960 7  21505012.539                    21505020.695
 119551149.039 7  93156824.32844  22749836.070                    22749844.918
 111626180.230 7  86981464.129 7  21241759.414                    21241767.363
 105249365.952 8  82012610.01346  20028310.164                    20028317.523
 113700919.505 7  88598162.58546  21636560.813                    21636567.320
 116034179.813 7  90416115.44244  22080525.711                    22080533.020
 11  8 11 20  9  0.0000000  0  7G24G17G26G07G08G28G11
 115225669.847 7  89786330.62745  21926702.508                    21926711.059
 112957707.690 7  88019099.982 7  21495122.563                    21495131.164
 119558241.981 7  93162351.27744  22751185.438                    22751194.715
 111694676.828 7  87034838.070 7  21254794.203                    21254801.590
 105260718.703 8  82021456.29446  20030470.484                    20030478.008
 113679723.611 7  88581646.30445  21632527.438                    21632533.859
 116089739.446 7  90459408.65244  22091098.609                    22091105.707
 11  8 11 20  9 30.0000000  0  7G24G17G26G07G08G28G11
 115233375.942 7  89792335.37745  21928169.320                    21928178.109
 112906106.427 8  87978891.244 7  21485303.461                    21485311.543
 119565921.783 7  93168335.50844  22752646.836                    22752655.730
 111763614.876 7  87088555.996 7  21267912.664                    21267920.367
 105272640.709 8  82030746.14946  20032738.766                    20032746.602
 113658564.654 8  88565158.79645  21628500.781                    21628506.918
 116145806.135 7  90503096.96744  22101767.836                    22101775.121
 11  8 11 20 10  0.0000000  0  7G24G17G26G07G08G28G11
 115241650.555 7  89798783.12145  21929743.422                    21929752.387
 112854873.517 8  87938969.532 7  21475554.289                    21475562.863
 119574186.711 7  93174775.70144  22754219.438                    22754228.801
 111832992.813 7  87142616.684 7  21281114.320                    21281122.441
 105285132.017 8  82040479.60646  20035116.195                    20035123.344
 113637442.892 8  88548700.27346  21624481.086                    21624487.957
 116202377.569 7  90547178.58844  22112533.266                    22112539.930
 11  8 11 20 10 30.0000000  0  7G24G17G26G07G08G28G11
 115250494.636 7  89805674.63845  21931426.422                    21931435.738
 112804010.001 8  87899335.663 7  21465875.094                    21465883.629
 119583036.594 7  93181671.67944  22755903.523                    22755913.160
 111902809.861 7  87197019.538 7  21294400.250                    21294409.000
 105298194.817 8  82050658.38946  20037602.031                    20037609.438
 113616359.305 8  88532271.51146  21620469.414                    21620476.160
 116259452.500 7  90591652.55244  22123393.906                    22123401.109
 11  8 11 20 11  0.0000000  0  7G24G17G26G07G08G28G11
 115259908.306 7  89813009.95845  21933218.117                    21933226.684
 112753515.628 7  87859989.439 7  21456266.336                    21456274.605
 119592469.628 7  93189022.06544  22757699.203                    22757708.215
 111973064.298 7  87251763.218 7  21307769.328                    21307777.348
 105311829.029 8  82061282.43346  20040196.508                    20040203.887
 113595313.559 7  88515872.23245  21616464.719                    21616471.195
 116317028.786 7  90636517.16844  22134350.094                    22134357.855
 11  8 11 20 11 30.0000000  0  7G24G17G26G07G08G28G11
 115269891.742 7  89820789.26145  21935117.688                    21935126.285
 112703390.804 8  87820931.174 7  21446728.148                    21446735.828
 119602484.970 7  93196826.21344  22759604.953                    22759613.715
 112043755.299 7  87306847.076 7  21321221.547                    21321229.668
 105326035.954 8  82072352.74446  20042900.125                    20042907.762
 113574306.185 8  88499502.83846  21612467.008                    21612473.305
 116375104.836 7  90681771.22544  22145402.070                    22145409.074
 11  8 11 20 12  0.0000000  0  7G24G17G26G07G08G28G11
 115280445.176 7  89829012.72545  21937126.156                    21937134.824
 112653635.649 7  87782160.972 7  21437259.547                    21437267.887
 119613081.484 7  93205083.19944  22761621.508                    22761630.629
 112114881.282 7  87362269.857 7  21334756.461                    21334764.145
 105340816.147 8  82083869.75846  20045712.516                    20045720.234
 113553337.671 7  88483163.73346  21608476.500                    21608483.074
 116433678.923 7  90727413.33444  22156548.391                    22156555.980
 11  8 11 20 12 30.0000000  0  7G24G17G26G07G08G28G11
 115291568.392 7  89837680.17245  21939242.844                    21939251.492
 112604250.203 8  87743678.846 7  21427862.352                    21427870.293
 119624257.893 6  93213792.06444  22763748.992                    22763757.457
 112186440.855 7  87418030.510 7  21348373.180                    21348381.410
 105356169.808 8  82095833.63346  20048634.547                    20048641.453
 113532407.999 7  88466854.89445  21604494.094                    21604500.738
 116492748.621 7  90773441.65744  22167788.617                    22167796.219
 11  8 11 20 13  0.0000000  0  7G24G17G26G07G08G28G11
 115303261.948 7  89846792.02845  21941468.008                    21941476.609
 112555234.749 8  87705485.019 7  21418534.680                    21418542.410
 119636013.041 7  93222951.88144  22765984.961                    22765993.984
 112258432.800 7  87474128.085 7  21362073.547                    21362081.137
 105372098.236 8  82108245.37646  20051665.281                    20051672.590
 113511517.542 7  88450576.60545  21600518.797                    21600524.953
 116552312.454 7  90819854.99045  22179123.172                    22179131.258
 11  8 11 20 13 30.0000000  0  7G24G17G26G07G08G28G11
 115315526.012 7  89856348.43445  21943802.008                    21943810.617
 112506589.451 7  87667579.634 7  21409277.766                    21409286.125
 119648345.725 7  93232561.75644  22768331.609                    22768341.172
 112330855.693 7  87530561.459 7  21375855.195                    21375863.109
 105388601.854 8  82121105.31646  20054805.828                    20054813.641
 113490666.727 7  88434329.21246  21596550.758                    21596557.438
 116612368.486 7  90866651.87244  22190551.422                    22190559.723
 11  8 11 20 14  0.0000000  0  7G24G17G26G07G08G28G11
 115328360.259 7  89866349.15345  21946243.375                    21946252.980
 112458313.916 7  87629962.376 7  21400091.102                    21400099.195
 119661254.285 7  93242620.33444  22770787.578                    22770797.363
 112403707.828 8  87587329.289 7  21389718.578                    21389726.207
 105405680.854 8  82134413.61446  20058055.773                    20058063.629
 113469856.094 7  88418113.13746  21592590.695                    21592597.199
 116672914.612 7  90913830.63044  22202073.008                    22202080.996
 11  8 11 20 14 30.0000000  0  7G24G17G26G07G08G28G11
 115341764.637 7  89876794.12545  21948794.594                    21948803.367
 112410408.702 7  87592633.675 7  21390975.125                    21390983.168
 119674737.452 7  93253126.67244  22773354.125                    22773362.906
 112476987.709 7  87644430.443 7  21403662.742                    21403670.902
 105423335.618 8  82148170.55346  20061415.531                    20061423.141
 113449085.568 7  88401928.31645  21588637.867                    21588644.508
 116733948.737 7  90961389.66144  22213687.203                    22213695.141
 11  8 11 20 15  0.0000000  0  7G24G17G26G07G08G28G11
 115355739.225 7  89887683.40045  21951453.578                    21951462.949
 112362873.550 7  87555593.336 7  21381929.828                    21381937.734
 119688793.915 7  93264079.72344  22776028.969                    22776038.480
 112550694.224 8  87701864.035 7  21417688.758                    21417696.984
 105441566.925 8  82162376.74346  20064884.773                    20064892.496
 113428355.832 8  88385775.27345  21584693.211                    21584700.230
 116795469.055 7  91009327.53944  22225394.594                    22225402.188
 11  8 11 20 15 30.0000000  0  7G24G17G26G07G08G28G11
 115370284.269 7  89899017.20345  21954221.539                    21954230.734
 112315708.611 8  87518841.482 7  21372954.383                    21372962.418
 119703422.339 7  93275478.46544  22778812.859                    22778822.074
 112624825.668 8  87759628.730 7  21431795.531                    21431803.742
 105460375.399 8  82177032.67046  20068464.070                    20068471.258
 113407667.211 8  88369654.27346  21580756.359                    21580763.070
 116857473.628 7  91057642.76044  22237193.805                    22237201.176
 11  8 11 20 16  0.0000000  0  7G24G17G26G07G08G28G11
 115385399.864 7  89910795.60445  21957098.258                    21957106.711
 112268914.080 7  87482378.252 7  21364049.477                    21364057.566
 119718621.659 7  93287322.07244  22781705.047                    22781713.848
 112699380.652 7  87817723.479 7  21445982.930                    21445991.219
 105479762.016 8  82192139.09446  20072153.305                    20072160.863
 113387019.963 8  88353565.50846  21576827.227                    21576834.254
 116919960.503 7  91106333.80644  22249084.727                    22249091.539
 11  8 11 20 16 30.0000000  0  7G24G17G26G07G08G28G11
 115401085.504 7  89923018.17444  21960083.047                    21960091.906
 112222489.639 8  87446203.401 7  21355215.242                    21355223.176
 119734389.722 7  93299608.83444  22784705.859                    22784714.977
 112774357.503 8  87876146.936 7  21460250.602                    21460258.797
 105499726.155 8  82207695.54246  20075952.273                    20075959.984
 113366414.201 8  88337509.07146  21572905.813                    21572912.695
 116982927.476 7  91155398.94344  22261067.367                    22261073.965
 11  8 11 20 17  0.0000000  0  7G24G17G26G07G08G28G11
 115417341.121 7  89935684.89445  21963176.211                    21963185.203
 112176435.297 7  87410316.947 7  21346451.352                    21346459.566
 119750725.319 7  93312337.83344  22787814.664                    22787823.969
 112849754.425 7  87934897.713 7  21474598.336                    21474606.102
 105520268.710 8  82223702.69746  20079861.172                    20079868.797
 113345850.444 8  88321485.37045  21568993.578                    21568999.637
 117046372.452 7  91204836.55844  22273139.781                    22273147.473
 11  8 11 20 17 30.0000000  0  7G24G17G26G07G08G28G11
 115434166.561 7  89948795.64945  21966377.961                    21966387.316
 112130751.129 7  87374718.934 7  21337758.102                    21337765.750
 119767627.085 7  93325508.01744  22791030.719                    22791039.633
 112925570.080 7  87993974.793 7  21489026.055                    21489033.539
 105541389.747 8  82240160.61846  20083880.109                    20083887.988
 113325328.804 8  88305494.49146  21565087.883                    21565094.742
 117110293.536 7  91254645.16144  22285304.281                    22285311.605
 11  8 11 20 18  0.0000000  0  7G24G17G26G07G08G28G11
 115451561.947 7  89962350.50045  21969688.813                    21969697.348
 112085437.106 8  87339409.353 7  21329135.117                    21329142.430
 119785093.461 7  93339118.14044  22794354.102                    22794363.797
 113001803.176 7  88053377.147 7  21503532.719                    21503540.434
 105563090.006 8  82257069.89146  20088009.875                    20088017.668
 113304849.957 8  88289536.94546  21561191.078                    21561197.703
 117174688.608 7  91304823.10244  22297558.094                    22297564.969
 11  8 11 20 18 30.0000000  0  7G24G17G26G07G08G28G11
 115469527.313 7  89976349.50045  21973107.039                    21973116.105
 112040493.461 8  87304388.365 7  21320582.570                    21320590.539
 119803123.074 7  93353167.13144  22797785.172                    22797794.152
 113078452.285 7  88113103.650 7  21518118.250                    21518126.273
 105585370.124 8  82274430.99446  20092249.813                    20092257.180
 113284414.719 8  88273613.39246  21557302.250                    21557308.676
 117239555.886 7  91355368.98544  22309901.727                    22309909.082
 11  8 11 20 19  0.0000000  0  7G24G17G26G07G08G28G11
 115488062.191 7  89990792.26145  21976633.961                    21976642.859
 111995919.861 8  87269655.733 7  21312100.227                    21312108.059
 119821714.177 7  93367653.68144  22801322.859                    22801332.914
 113155515.490 7  88173152.850 7  21532782.922                    21532791.191
 105608229.872 8  82292243.75246  20096600.063                    20096607.254
 113264023.257 8  88257723.93446  21553422.063                    21553428.570
 117304892.880 7  91406280.90544  22322334.570                    22322342.426
 11  8 11 20 19 30.0000000  0  7G24G17G26G07G08G28G11
 115507166.043 7  90005678.40544  21980269.883                    21980278.090
 111951715.824 8  87235211.063 7  21303688.898                    21303696.309
 119840865.094 7  93382576.40744  22804967.102                    22804976.586
 113232990.960 7  88233523.276 7  21547526.625                    21547534.090
 105631669.336 8  82310508.24746  20101060.234                    20101067.859
 113243675.374 8  88241868.45545  21549549.891                    21549556.367
 117370697.319 7  91457557.06244  22334857.664                    22334864.398
 11  8 11 20 20  0.0000000  0  7G24G17G26G07G08G28G11
 115526839.079 7  90021008.04444  21984012.906                    21984021.785
 111907881.873 8  87201054.771 7  21295346.930                    21295355.023
 119860574.474 7  93397934.32444  22808717.531                    22808727.367
 113310877.551 7  88294214.062 7  21562347.836                    21562355.633
 105655689.527 8  82329225.25946  20105631.461                    20105639.047
 113223372.238 8  88226047.81846  21545686.578                    21545692.750
 117436967.573 7  91509196.19744  22347467.859                    22347475.219
 11  8 11 20 20 30.0000000  0  7G24G17G26G07G08G28G11
 115547081.299 7  90036781.19945  21987864.898                    21987874.086
 111864418.357 8  87167187.136 7  21287076.492                    21287084.336
 119880840.701 7  93413726.15744  22812574.102                    22812583.594
 113389173.640 7  88355223.939 7  21577246.867                    21577254.805
 105680290.633 8  82348394.91946  20110312.773                    20110319.984
 113203114.428 8  88210262.52345  21541831.344                    21541838.047
 117503701.492 7  91561196.64944  22360167.563                    22360174.512
 11  8 11 20 21  0.0000000  0  7G24G17G26G07G08G28G11
 115567891.976 7  90052997.32545  21991824.906                    21991834.094
 111821324.814 8  87133607.781 7  21278875.844                    21278883.438
 119901662.026 7  93429950.51244  22816536.219                    22816546.594
 113467877.212 7  88416551.332 7  21592223.703                    21592231.957
 105705472.525 8  82368017.16046  20115104.469                    20115112.250
 113182902.033 8  88194512.60445  21537985.211                    21537991.727
 117570896.768 7  91613556.56144  22372954.305                    22372961.152
 11  8 11 20 21 30.0000000  0  7G24G17G26G07G08G28G11
 115589270.607 7  90069655.94945  21995893.563                    21995902.543
 111778602.360 8  87100317.585 7  21270745.625                    21270753.738
 119923036.620 7  93446606.01744  22820603.539                    22820612.977
 113546986.824 7  88478195.108 7  21607277.477                    21607285.922
 105731235.130 8  82388091.89846  20120007.102                    20120014.520
 113162735.434 8  88178798.36646  21534147.484                    21534154.188
 117638550.923 7  91666274.06544  22385828.094                    22385835.516
 11  8 11 20 22  0.0000000  0  7G24G17G26G07G08G28G11
 115611217.013 7  90086757.03845  22000069.344                    22000078.465
 111736250.510 8  87067316.181 7  21262686.719                    21262694.328
 119944962.791 7  93463691.29444  22824776.258                    22824785.578
 113626500.503 7  88540153.761 7  21622408.891                    21622416.961
 105757578.833 8  82408619.43746  20125020.453                    20125027.727
 113142615.310 8  88163120.34646  21530318.680                    21530325.605
 117706662.165 7  91719347.72344  22398789.555                    22398796.625
 11  8 11 20 22 30.0000000  0  7G24G17G26G07G08G28G11
 115633730.765 7  90104300.21445  22004353.367                    22004362.801
 111694268.003 8  87034602.559 7  21254697.719                    21254705.504
 119967438.726 7  93481204.97944  22829054.102                    22829063.418
 113706416.676 7  88602426.035 7  21637616.680                    21637624.375
 105784503.688 8  82429599.81846  20130143.984                    20130151.422
 113122541.921 8  88147478.74346  21526498.703                    21526505.418
 117775228.270 7  91772775.83644  22411836.914                    22411844.547
 11  8 11 20 23  0.0000000  0  7G24G17G26G07G08G28G11
 115656811.490 7  90122285.19245  22008746.180                    22008755.266
 111652654.397 8  87002176.393 7  21246778.609                    21246787.129
 119990462.837 7  93499145.80544  22833435.117                    22833444.449
 113786733.476 7  88665010.497 7  21652900.141                    21652908.387
 105812009.897 8  82451033.20446  20135377.922                    20135385.430
 113102515.861 8  88131874.03446  21522687.875                    21522694.617
 117844246.653 7  91826556.36844  22424970.898                    22424978.230
 11  8 11 20 23 30.0000000  0  7G24G17G26G07G08G28G11
 115680458.961 7  90140711.78545  22013246.398                    22013255.230
 111611409.472 8  86970037.521 7  21238930.180                    21238937.691
 120014033.227 7  93517512.30844  22837920.047                    22837929.344
 113867449.673 7  88727906.170 7  21668260.047                    21668267.906
 105840097.611 8  82472919.71946  20140723.078                    20140730.402
 113082537.681 8  88116306.62246  21518886.711                    21518893.137
 117913715.661 7  91880688.02944  22438190.047                    22438197.305
 11  8 11 20 24  0.0000000  0  7G24G17G26G07G08G28G11
 115704672.281 7  90159579.28245  22017853.969                    22017862.547
 111570533.153 7  86938185.865 7  21231151.484                    21231159.145
 120038148.205 7  93536303.16744  22842509.375                    22842518.871
 113948563.319 7  88791111.554 7  21683695.477                    21683703.289
 105868766.538 8  82495259.11246  20146178.773                    20146186.129
 113062607.516 8  88100776.63846  21515093.727                    21515100.063
 117983632.503 7  91935168.63144  22451495.297                    22451502.195
 11  8 11 20 24 30.0000000  0  7G24G17G26G07G08G28G11
 115729451.406 7  90178887.69345  22022568.828                    22022577.633
 111530025.256 8  86906621.288 7  21223443.500                    21223450.727
 120062805.993 7  93555516.99844  22847201.352                    22847211.172
 114030072.668 7  88854625.268 7  21699206.516                    21699214.320
 105898017.265 8  82518051.85846  20151744.781                    20151752.383
 113042726.589 8  88085285.00346  21511310.664                    21511317.039
 118053995.480 7  91989996.88244  22464884.320                    22464892.285
 11  8 11 20 25  0.0000000  0  7G24G17G26G07G08G28G11
 115754795.930 7  90198636.66745  22027392.492                    22027400.996
 111489885.459 8  86875343.556 7  21215805.055                    21215812.840
 120088004.717 7  93575152.30544  22851996.992                    22852005.844
 114111975.739 7  88918445.769 7  21714792.266                    21714800.016
 105927849.445 8  82541297.68646  20157421.953                    20157429.426
 113022895.190 8  88069831.96546  21507536.508                    21507543.215
 118124802.216 7  92045170.92544  22478359.102                    22478366.348
 11  8 11 20 25 30.0000000  0  7G24G17G26G07G08G28G11
 115780705.054 7  90218825.60445  22032322.445                    22032331.410
 111450113.842 8  86844352.719 7  21208236.797                    21208244.387
 120113742.615 7  93595207.77144  22856894.930                    22856903.551
 114194271.040 7  88982571.900 7  21730452.469                    21730460.789
 105958263.303 8  82564996.76746  20163209.258                    20163216.621
 113003113.817 8  88054417.90646  21503772.695                    21503779.051
 118196050.435 7  92100688.97744  22491916.961                    22491924.285
 11  8 11 20 26  0.0000000  0  8G24G17G26G04G07G08G28G11
 115807177.953 7  90239453.82645  22037359.906                    22037368.836
 111410709.723 8  86813648.233 7  21200737.930                    21200745.715
 120140017.585 7  93615681.73544  22861894.953                    22861904.070
 129270228.45816 100730141.81353  24599314.898                    24599330.219
 114276956.393 7  89047001.981 7  21746186.727                    21746195.234
 105989258.377 8  82589148.73746  20169107.617                    20169115.496
 112983382.739 8  88039043.05146  21500017.867                    21500024.625
 118267737.530 7  92156549.02044  22505559.047                    22505565.746
 11  8 11 20 26 30.0000000  0  8G24G17G26G04G07G08G28G11
 115834213.450 7  90260520.44545  22042504.898                    22042514.277
 111371672.290 8  86783229.487 7  21193309.484                    21193317.039
 120166826.850 7  93636572.03644  22866996.055                    22867005.789
 129157490.094 6 100642294.11742  24577861.570                    24577877.383
 114360029.508 7  89111734.202 7  21761995.383                    21762003.395
 106020833.926 8  82613753.03546  20175116.133                    20175124.000
 112963702.279 8  88023707.63046  21496272.383                    21496279.355
 118339860.778 7  92212748.92444  22519283.078                    22519290.211
 11  8 11 20 27  0.0000000  0  8G24G17G26G04G07G08G28G11
 115861811.453 7  90282025.38945  22047755.867                    22047765.246
 111333001.762 8  86753096.632 7  21185950.758                    21185958.590
 120194169.172 7  93657877.72144  22872199.070                    22872208.512
 129044687.551 5                  24556395.133
 114443489.064 7  89176767.540 7  21777877.281                    21777885.094
 106052990.460 8  82638810.04346  20181235.008                    20181242.758
 112944072.938 8  88008412.03645  21492537.398                    21492544.008
 118412418.196 7  92269287.14844  22533090.523                    22533098.203
 11  8 11 20 27 30.0000000  0  8G24G17G26G04G07G08G28G11
 115889971.974 7  90303968.64844  22053114.688                    22053123.945
 111294698.175 8  86723249.718 7  21178661.719                    21178669.523
 120222042.908 7  93679597.46144  22877503.727                    22877512.938
 128931823.936 5                  24534917.203
 114527333.752 7  89242100.994 7  21793831.867                    21793840.270
 106085728.421 8  82664320.11346  20187465.070                    20187473.102
 112924496.058 8  87993157.33346  21488811.938                    21488818.746
 118485408.143 7  92326162.38144  22546980.156                    22546987.766
 11  8 11 20 28  0.0000000  0  8G24G17G26G04G07G08G28G11
 115918694.506 7  90326349.81845  22058580.703                    22058589.984
 111256761.700 8  86693688.869 7  21171442.563                    21171450.559
 120250446.275 7  93701729.92744  22882908.703                    22882918.367
 128818901.848 5                  24513428.000
 114611561.788 7  89307733.146 7  21809860.461                    21809868.465
 106119047.535 8  82690283.02446  20193805.664                    20193813.539
 112904972.409 8  87977944.10746  21485096.680                    21485103.195
 118558828.287 7  92383372.87144  22560952.016                    22560958.953
 11  8 11 20 28 30.0000000  0  8G24G17G26G04G07G08G28G11
 115947978.167 7  90349168.24345  22064153.266                    22064162.352
 111219191.695 8  86664413.563 7  21164293.445                    21164301.055
 120279377.081 7  93724273.37944  22888413.953                    22888423.348
 128705923.853 6 100290413.96952  24491930.039                    24491944.156
 114696171.081 7  89373662.395 7  21825961.016                    21825969.230
 106152947.850 8  82716698.82446  20200256.500                    20200264.266
 112885502.278 8  87962772.57646  21481391.688                    21481398.207
 118632676.044 7  92440916.54144  22575005.047                    22575011.602
 11  8 11 20 29  0.0000000  0  8G24G17G26G04G07G08G28G11
 115977821.824 7  90372423.04545  22069832.219                    22069841.020
 111181987.349 8  86635423.189 7  21157213.469                    21157221.148
 120308832.981 7  93747225.97044  22894019.102                    22894028.570
 128592892.042 6 100202337.65843  24470419.914                    24470435.785
 114781159.241 7  89439886.857 7  21842133.883                    21842141.742
 106187428.408 8  82743566.75446  20206818.164                    20206825.988
 112866086.168 8  87947643.15446  21477696.953                    21477703.832
 118706948.888 7  92498791.46844  22589137.688                    22589145.398
 11  8 11 20 29 30.0000000  0  8G24G17G26G04G07G08G28G11
 116008224.995 7  90396113.82345  22075618.133                    22075626.770
 111145149.070 8  86606718.062 7  21150203.586                    21150211.301
 120338812.216 7  93770586.37944  22899724.336                    22899733.461
 128479809.235 6 100114221.52943  24448901.281                    24448917.145
 114866524.799 7  89506405.404 7  21858378.328                    21858386.453
 106222489.258 8  82770886.86746  20213490.078                    20213498.031
 112846724.626 8  87932556.23846  21474012.852                    21474019.211
 118781644.607 7  92556995.88644  22603351.750                    22603359.102
 11  8 11 20 30  0.0000000  0  8G24G17G26G04G07G08G28G11
 116039186.933 7  90420239.99345  22081509.805                    22081518.590
 111108676.026 8  86578297.523 7  21143263.016                    21143270.625
 120369312.670 7  93794352.91944  22905528.313                    22905537.480
 128366678.064 6 100026067.75643  24427373.086                    24427388.512
 114952265.987 7  89573216.636 7  21874694.563                    21874702.637
 106258130.276 8  82798659.06446  20220272.375                    20220280.438
 112827418.210 8  87917512.27346  21470338.734                    21470345.574
 118856760.753 7  92615527.92944  22617646.023                    22617653.285
 11  8 11 20 30 30.0000000  0  8G24G17G26G04G07G08G28G11
 116070707.132 7  90444801.18745  22087508.172                    22087516.520
 111072567.971 8  86550161.406 7  21136391.734                    21136399.527
 120400332.320 7  93818524.02344  22911431.000                    22911440.418
 128253501.306 6  99937878.43443  24405836.063                    24405851.730
 115038380.910 7  89640319.090 7  21891081.359                    21891089.555
 106294351.500 8  82826883.35846  20227164.883                    20227172.727
 112808167.739 8  87902511.91146  21466675.375                    21466682.402
 118932295.232 7  92674385.94144  22632019.352                    22632027.074
 11  8 11 20 31  0.0000000  0  8G24G17G26G04G07G08G28G11
 116102784.535 7  90469796.55945  22093612.359                    22093621.020
 111036824.658 8  86522309.501 7  21129589.688                    21129597.656
 120431868.794 7  93843097.86444  22917432.570                    22917441.965
 128140281.111 6  99849655.21343  24384291.008                    24384306.020
 115124867.440 7  89707711.100 7  21907539.859                    21907547.922
 106331151.983 8  82855559.03246  20234168.078                    20234176.031
 112788974.107 8  87887555.83246  21463022.883                    21463029.395
 119008245.469 7  92733567.91544  22646472.875                    22646479.906
 11  8 11 20 31 30.0000000  0  8G24G17G26G04G07G08G28G11
 116135418.268 7  90495225.44245  22099822.031                    22099830.914
 111001446.066 8  86494741.794 7  21122857.852                    21122864.941
 120463920.264 7  93868073.00544  22923531.156                    22923540.645
 128027020.439 6  99761400.49043  24362736.859                    24362752.645
 115211723.731 7  89775391.254 7  21924067.789                    21924075.965
 106368531.925 8  82884686.22046  20241281.047                    20241288.840
 112769837.681 8  87872644.33246  21459381.602                    21459387.832
 119084609.428 7  92793072.26744  22661004.430                    22661011.715
 11  8 11 20 32  0.0000000  0  8G24G17G26G04G07G08G28G11
 116168607.319 7  90521087.05044  22106137.523                    22106146.324
 110966430.857 8  86467457.233 7  21116194.453                    21116202.047
 120496484.419 7  93893447.61344  22929728.883                    22929737.613
 127913721.867 6  99673116.23543  24341177.305                    24341192.840
 115298947.855 7  89843358.013 7  21940666.258                    21940674.434
 106406490.363 8  82914264.19246  20248504.352                    20248512.254
 112750759.135 8  87857777.93146  21455751.141                    21455757.488
 119161384.197 7  92852896.72844  22675614.109                    22675621.289
 11  8 11 20 32 30.0000000  0  8G24G17G26G04G07G08G28G11
 116202350.985 7  90547380.80445  22112558.719                    22112567.648
 110931779.158 8  86440455.935 7  21109600.266                    21109608.102
 120529559.031 7  93919219.98544  22936022.547                    22936031.504
 127800387.848 6  99584804.37443  24319610.406                    24319626.000
 115386537.522 7  89911609.613 7  21957333.922                    21957342.352
 106445027.088 8  82944292.77346  20255837.727                    20255845.313
 112731739.004 8  87842957.05146  21452131.406                    21452137.809
 119238567.575 7  92913039.57244  22690301.219                    22690308.590
 11  8 11 20 33  0.0000000  0  8G24G17G26G04G07G08G28G11
 116236648.727 7  90574106.32244  22119085.688                    22119094.273
 110897490.812 8  86413737.774 7  21103075.844                    21103083.168
 120563142.059 7  93945388.53944  22942413.383                    22942422.395
 127687021.211 6  99496467.02343  24298036.797                    24298052.172
 115474491.185 7  89980144.855 7  21974071.094                    21974079.594
 106484142.218 8  82974772.06346  20263281.172                    20263288.656
 112712778.234 8  87828182.41846  21448523.313                    21448529.758
 119316157.178 7  92973498.97344  22705066.758                    22705073.730
 11  8 11 20 33 30.0000000  0  8G24G17G26G04G07G08G28G11
 116271499.419 7  90601262.68945  22125717.258                    22125726.441
 110863565.183 8  86387302.250 7  21096619.914                    21096627.172
 120597231.245 7  93971951.51644  22948900.227                    22948909.363
 127573624.692 6  99408106.41843  24276458.484                    24276473.102
 115562806.757 7  90048962.087 7  21990876.914                    21990885.621
 106523835.141 8  83005701.57446  20270834.555                    20270842.258
 112693877.656 8  87813454.69246  21444926.758                    21444933.152
 119394150.591 7  93034273.03144  22719908.664                    22719915.957
 11  8 11 20 34  0.0000000  0  8G24G17G26G04G07G08G28G11
 116306901.866 7  90628849.00145  22132454.070                    22132463.273
 110830001.980 8  86361149.125 7  21090232.898                    21090240.207
 120631824.494 7  93998907.26044  22955482.313                    22955492.285
 127460200.698 6  99319724.50242  24254872.992                    24254888.738
 115651482.159 7  90118059.713 7  22007751.406                    22007759.684
 106564105.008 8  83037080.66246  20278497.469                    20278505.367
 112675037.565 8  87798774.10046  21441341.945                    21441348.008
 119472545.266 7  93095359.73444  22734825.977                    22734834.063
 11  8 11 20 34 30.0000000  0  8G24G17G26G04G07G08G28G11
 116342855.404 7  90656864.72845  22139295.898                    22139305.238
 110796800.527 8  86335277.894 7  21083915.148                    21083922.441
 120666919.048 7  94026253.62244  22962161.375                    22962170.629
 127346751.745 6  99231323.05642  24233284.109                    24233299.563
 115740515.383 7  90187436.174 7  22024693.844                    22024702.121
 106604951.550 8  83068909.10046  20286270.453                    20286278.129
 112656258.762 8  87784141.26446  21437768.234                    21437774.215
 119551338.851 7  93156757.28844  22749819.914                    22749827.945
 11  8 11 20 35  0.0000000  0  8G24G17G26G04G07G08G28G11
 116379358.911 7  90685308.99345  22146241.914                    22146251.535
 110763960.152 8  86309688.012 7  21077665.727                    21077672.969
 120702513.113 7  94053989.20744  22968935.000                    22968943.539
 127233280.587 6  99142904.28443  24211691.430                    24211706.699
 115829904.443 7  90257089.883 7  22041704.102                    22041712.832
 106646374.091 8  83101186.37046  20294153.102                    20294160.531
 112637541.987 8  87769556.76246  21434206.539                    21434213.121
 119630528.775 7  93218463.69544  22764889.938                    22764896.793
 11  8 11 20 35 30.0000000  0  8G24G17G26G04G07G08G28G11
 116416411.389 7  90714181.02445  22153293.828                    22153302.652
 110731480.878 8  86284379.516 7  21071485.047                    21071492.090
 120738604.138 7  94082112.03844  22975802.969                    22975811.664
 127119790.086 6  99054470.48443  24190095.273                    24190109.789
 115919647.389 7  90327019.350 7  22058781.906                    22058790.598
 106688372.290 8  83133912.20146  20302145.289                    20302153.105
 112618888.184 8  87755021.33045  21430656.672                    21430663.246
 119710112.672 7  93280477.05944  22780033.953                    22780041.293
 11  8 11 20 36  0.0000000  0  8G24G17G26G04G07G08G28G11
 116454011.626 7  90743479.89145  22160447.891                    22160457.199
 110699361.791 8  86259351.673 7  21065372.852                    21065380.391
 120775189.859 7  94110620.32544  22982764.875                    22982773.902
 127006282.665 6  98966023.49543  24168495.656                    24168510.141
 116009741.998 7  90397222.860 7  22075926.188                    22075935.105
 106730945.604 8  83167086.18046  20310246.344                    20310254.426
 112600297.795 8  87740535.31146  21427119.289                    21427125.609
 119790088.040 7  93342795.48944  22795253.211                    22795260.215
 11  8 11 20 36 30.0000000  0  8G24G17G26G04G07G08G28G11
 116492158.535 7  90773204.74045  22167707.836                    22167716.410
 110667602.461 8  86234604.160 7  21059329.172                    21059336.527
 120812267.987 7  94139512.32544  22989820.938                    22989829.117
 126892760.906 6  98877565.30743  24146892.227                    24146907.707
 116100186.087 7  90467698.676 7  22093137.203                    22093146.090
 106774093.109 8  83200707.57546  20318457.180                    20318465.359
 112581771.547 8  87726099.26746  21423594.063                    21423600.145
 119870452.364 7  93405416.98444  22810545.539                    22810553.285
 11  8 11 20 37  0.0000000  0  8G24G17G26G04G07G08G28G11
 116530851.196 7  90803354.84044  22175070.508                    22175079.918
 110636202.427 8  86210136.620 7  21053353.656                    21053361.371
 120849836.093 7  94168786.12944  22996969.641                    22996978.652
 126779227.677 6  98789098.15743  24125287.523                    24125302.609
 116190977.651 7  90538445.263 7  22110414.500                    22110423.156
 106817814.367 8  83234776.04446  20326777.000                    20326785.074
 112563310.039 8  87711713.67646  21420080.516                    21420087.195
 119951203.062 7  93468339.56744  22825912.117                    22825919.523
 11  8 11 20 37 30.0000000  0  8G24G17G26G04G07G08G28G11
 116570088.197 7  90833929.11645  22182536.992                    22182545.516
 110605161.149 7  86185948.626 7  21047447.242                    21047454.508
 120887891.599 7  94198439.72644  23004210.563                    23004220.508
 126665685.251 6  98700623.84843  24103680.891                    24103695.602
 116282114.601 7  90609460.967 7  22127757.008                    22127765.828
 106862108.144 8  83269290.64646  20335205.906                    20335213.660
 112544914.369 8  87697379.39246  21416580.336                    21416586.797
 120032337.656 7  93531561.27443  22841351.570                    22841358.965
 11  8 11 20 38  0.0000000  0  8G24G17G26G04G07G08G28G11
 116609868.732 7  90864926.93144  22190106.992                    22190115.750
 110574478.255 8  86162039.895 7  21041608.086                    21041615.660
 120926432.563 7  94228471.61144  23011544.734                    23011554.656
 126552136.541 6  98612144.66043  24082073.359                    24082087.984
 116373594.917 7  90680744.235 7  22145165.508                    22145174.074
 106906974.255 8  83304251.21846  20343743.578                    20343751.367
 112526585.367 8  87683097.04345  21413092.633                    21413098.930
 120113853.647 7  93595080.21544  22856864.469                    22856871.000
 11  8 11 20 38 30.0000000  0  8G24G17G26G04G07G08G28G11
 116650191.759 7  90896347.45144  22197780.414                    22197789.000
 110544153.238 7  86138410.031 7  21035837.602                    21035844.926
 120965456.283 7  94258879.67244  23018970.742                    23018980.309
 126438584.608 6  98523662.94743  24060464.281                    24060478.801
 116465416.771 7  90752293.639 7  22162639.469                    22162647.508
 106952412.573 8  83339657.66046  20352390.281                    20352398.160
 112508323.638 8  87668867.13546  21409617.008                    21409623.633
 120195748.810 7  93658894.56244  22872448.336                    22872454.852
 11  8 11 20 39  0.0000000  0  8G24G17G26G04G07G08G28G11
 116691056.095 7  90928189.78945  22205555.961                    22205565.762
 110514185.567 8  86115058.615 7  21030134.625                    21030142.375
 121004960.544 7  94289662.17244  23026488.336                    23026498.266
 126325032.118 6  98435180.77643  24038855.422                    24038870.398
 116557577.719 7  90824107.254 7  22180176.727                    22180185.434
 106998422.083 8  83375509.18246  20361145.891                    20361153.988
 112490130.186 8  87654690.41546  21406154.727                    21406161.301
 120278020.478 7  93723002.35044  22888104.023                    22888110.359
 11  8 11 20 39 30.0000000  0  8G24G17G26G04G07G08G28G11
 116732460.268 7  90960452.78444  22213434.898                    22213444.938
 110484574.489 8  86091985.061 7  21024500.102                    21024507.438
 121044942.754 7  94320817.10144  23034097.195                    23034106.578
 126211481.328 6  98346699.97143  24017247.758                    24017262.348
 116650075.542 7  90896183.387 7  22197778.539                    22197787.125
 107045001.614 8  83411804.88446  20370009.953                    20370017.051
 112472005.482 8  87640567.26446  21402706.055                    21402712.426
 120360665.927 7  93787401.36644  22903830.641                    22903837.707
 11  8 11 20 40  0.0000000  0  8G24G17G26G04G07G08G28G11
 116774403.337 7  90993135.69244  22221416.727                    22221426.008
 110455319.419 8  86069188.927 7  21018932.992                    21018940.387
 121085400.426 7  94352342.50744  23041796.266                    23041805.664
 126097935.279 6  98258222.79343  23995640.211                    23995654.652
 116742908.607 7  90968520.748 7  22215444.164                    22215453.016
 107092150.821 8  83448544.49046  20378981.875                    20378989.703
 112453950.467 8  87626498.42546  21399269.953                    21399276.762
 120443682.936 7  93852089.88244  22919628.539                    22919635.246
 11  8 11 20 40 30.0000000  0  8G24G17G26G04G07G08G28G11
 116816883.744 7  91026237.28444  22229500.961                    22229509.906
 110426419.712 8  86046669.695 7  21013433.820                    21013441.109
 121126331.178 7  94384236.57344  23049584.875                    23049594.211
 125984396.545 6  98169751.33643  23974034.453                    23974049.082
 116836074.262 7  91041117.248 7  22233173.375                    22233182.078
 107139868.538 8  83485727.07846  20388062.023                    20388069.848
 112435965.890 8  87612484.46146  21395847.766                    21395854.461
 120527068.828 7  93917065.89043  22935496.375                    22935503.586
 11  8 11 20 41  0.0000000  0  8G24G17G26G04G07G08G28G11
 116859900.669 7  91059756.96245  22237686.555                    22237695.586
 110397874.917 8  86024427.025 7  21008001.758                    21008008.789
 121167732.398 7  94416497.21444  23057463.461                    23057472.145
 125870867.880 6  98081287.69643  23952430.281                    23952445.059
 116929570.566 7  91113971.407 7  22250965.039                    22250973.820
 107188154.160 8  83523352.19646  20397250.539                    20397258.512
 112418052.655 8  87598526.09646  21392439.422                    21392445.266
 120610821.044 7  93982327.30543  22951433.766                    22951441.273
 11  8 11 20 41 30.0000000  0  8G24G17G26G04G07G08G28G11
 116903452.750 7  91093693.63245  22245974.469                    22245983.734
 110369685.280 8  86002461.096 7  21002637.211                    21002644.590
 121209601.690 7  94449122.57544  23065430.938                    23065440.707
 125757352.117 6  97992834.06043  23930829.477                    23930843.633
 117023395.498 7  91187081.642 7  22268819.031                    22268827.883
 107237007.119 8  83561419.38946  20406547.352                    20406554.910
 112400211.561 8  87584623.94246  21389043.836                    21389050.051
 120694937.154 7  94047872.27044  22967440.156                    22967448.129
 11  8 11 20 42  0.0000000  0  8G24G17G26G04G07G08G28G11
 116947538.435 7  91128046.10045  22254363.594                    22254372.313
 110341848.631 8  85980770.224 7  20997340.273                    20997348.000
 121251936.507 7  94482110.71244  23073486.797                    23073496.449
 125643851.818 6  97904392.48743  23909231.555                    23909244.172
 117117546.657 7  91260446.068 7  22286735.492                    22286744.043
 107286425.898 8  83599927.49146  20415951.117                    20415959.012
 112382443.505 8  87570778.70046  21385663.102                    21385669.480
 120779414.541 7  94113698.76244  22983515.805                    22983524.102
 11  8 11 20 42 30.0000000  0  8G24G17G26G04G07G08G28G11
 116992156.296 7  91162813.23944  22262854.438                    22262863.125
 110314364.859 8  85959354.327 7  20992110.273                    20992117.621
 121294734.252 7  94515459.54844  23081630.781                    23081640.563
 125530369.944 6  97815965.23143  23887635.914                    23887649.676
 117212021.847 7  91334062.993 7  22304713.188                    22304722.141
 107336409.827 8  83638875.96246  20425462.797                    20425470.563
 112364749.296 8  87556991.00446  21382295.914                    21382302.035
 120864250.435 7  94179804.61343  22999659.195                    22999667.141
 11  8 11 20 43  0.0000000  0  8G24G17G26G04G07G08G28G11
 117037305.068 7  91197994.09444  22271446.023                    22271454.652
 110287233.296 8  85938212.870 7  20986947.453                    20986954.633
 121337992.174 7  94549166.96244  23089862.711                    23089872.551
 125416908.773 6  97727554.19343  23866044.633                    23866058.215
 117306818.926 7  91407930.723 7  22322752.648                    22322762.250
 107386957.949 8  83678264.05946  20435081.602                    20435089.781
 112347129.699 8  87543261.44746  21378942.844                    21378948.980
 120949442.374 7  94246187.90443  23015870.891                    23015878.609
 11  8 11 20 43 30.0000000  0  8G24G17G26G04G07G08G28G11
 117082983.499 7  91233587.66445  22280137.578                    22280146.609
 110260453.732 8  85917345.695 7  20981851.180                    20981858.789
 121381707.993 7  94583231.17844  23098181.141                    23098191.273
 125303471.703 6  97639161.92743  23844458.328                    23844471.289
 117401935.711 7  91482047.571 7  22340853.438                    22340862.406
 107438069.621 8  83718091.28846  20444808.375                    20444816.215
 112329585.970 8  87529591.00946  21375604.297                    21375610.844
 121034987.838 7  94312846.65043  23032149.633                    23032157.172
 11  8 11 20 44  0.0000000  0  8G24G17G26G04G07G08G28G11
 117129190.188 7  91269592.85344  22288930.969                    22288940.348
 110234025.374 8  85896752.193 7  20976821.367                    20976829.414
 121425878.936 7  94617650.03844  23106587.078                    23106597.172
 125190061.010 6  97550790.21943  23822876.703                    23822889.402
 117497369.876 7  91556411.751 7  22359013.867                    22359022.781
 107489743.365 8  83758356.49946  20454641.438                    20454649.363
 112312118.215 8  87515979.77046  21372280.570                    21372287.227
 121120884.225 7  94379778.84343  23048496.461                    23048502.777
 11  8 11 20 44 30.0000000  0  8G24G17G26G04G07G08G28G11
 117175923.837 7  91306008.66844  22297823.820                    22297832.848
 110207947.413 8  85876431.722 7  20971859.555                    20971867.074
 121470502.569 7  94652421.66144  23115077.977                    23115088.797
 125076680.024 6  97462441.70243  23801300.680                    23801314.023
 117593119.637 7  91631021.845 7  22377234.367                    22377243.730
 107541979.009 8  83799059.55846  20464581.461                    20464589.344
 112294727.925 8  87502428.89945  21368971.078                    21368977.414
 121207129.254 7  94446982.70844  23064907.383                    23064914.809
 11  8 11 20 45  0.0000000  0  8G24G17G26G04G07G08G28G11
 117223182.838 7  91342833.86744  22306816.914                    22306825.746
 110182219.131 8  85856383.710 7  20966963.656                    20966970.883
 121515575.961 6  94687543.72044  23123656.086                    23123666.348
 124963331.019 7  97374118.10543  23779730.625                    23779743.742
 117689182.252 7  91705875.702 7  22395514.469                    22395523.953
 107594774.680 8  83840199.00846  20474628.164                    20474636.070
 112277415.743 8  87488938.87946  21365676.594                    21365682.965
 121293719.951 7  94514455.94144  23081384.695                    23081392.883
 11  8 11 20 45 30.0000000  0  8G24G17G26G04G07G08G28G11
 117270965.843 7  91380067.36744  22315910.039                    22315918.246
 110156839.677 8  85836607.509 7  20962133.938                    20962141.996
 121561096.923 7  94723014.52844  23132318.266                    23132327.816
 124850016.814 6  97285821.63543  23758166.977                    23758180.758
 117785555.406 7  91780971.581 7  22413853.789                    22413863.082
 107648129.521 8  83881774.15546  20484781.109                    20484789.637
 112260182.662 8  87475510.50046  21362397.578                    21362403.988
 121380653.756 6  94582196.51444  23097928.539                    23097935.582
 11  8 11 20 46  0.0000000  0  8G24G17G26G04G07G08G28G11
 117319271.530 7  91417708.14244  22325102.234                    22325111.355
 110131808.485 8  85817102.690 7  20957370.711                    20957378.570
 121607062.434 7  94758831.76444  23141065.469                    23141074.938
 124736740.116 6  97197554.37943  23736610.930                    23736624.277
 117882237.332 7  91856308.021 7  22432251.922                    22432260.816
 107702042.728 8  83923784.40346  20495040.719                    20495048.832
 112243029.627 8  87462144.49346  21359133.461                    21359139.445
 121467928.297 6  94650202.58344  23114536.086                    23114544.375
 11  8 11 20 46 30.0000000  0  8G24G17G26G04G07G08G28G11
 117368098.177 7  91455754.86044  22334393.617                    22334402.398
 110107124.988 8  85797868.798 7  20952673.641                    20952681.102
 121653469.776 7  94794993.26744  23149896.641                    23149906.180
 124623503.813 6  97109318.63743  23715063.023                    23715076.371
 117979225.490 7  91931883.094 6  22450708.500                    22450717.266
 107756513.178 8  83966228.87346  20505405.961                    20505414.109
 112225957.498 8  87448841.53546  21355884.688                    21355890.855
 121555541.090 6  94718472.23843  23131208.375                    23131216.023
 11  8 11 20 47  0.0000000  0  8G24G17G26G04G07G08G28G11
 117417443.948 7  91494206.09444  22343783.813                    22343792.875
 110082788.311 8  85778905.161 7  20948042.609                    20948049.957
 121700316.341 7  94831497.02344  23158810.789                    23158821.199
 124510310.448 6  97021116.28843  23693522.227                    23693536.469
 118076517.322 7  92007694.789 7  22469222.102                    22469231.602
 107811539.109 8  84009106.16846  20515877.383                    20515885.480
 112208966.866 8  87435602.09345  21352651.172                    21352657.879
 121643489.145 6  94787003.12643  23147944.984                    23147952.102
 11  8 11 20 47 30.0000000  0  8G24G17G26G04G07G08G28G11
 117467308.020 7  91533061.18844  22353272.164                    22353281.980
 110058797.978 8  85760211.409 7  20943476.930                    20943484.371
 121747599.576 7  94868341.05944  23167808.914                    23167819.203
 124397163.458 7  96932950.11443  23671991.930                    23672004.688
 118174111.267 7  92083741.887 7  22487793.742                    22487803.125
 107867120.475 8  84052416.28546  20526453.813                    20526462.105
 112192059.318 8  87422427.37646  21349433.766                    21349440.395
 121731770.058 6  94855793.38743  23164743.086                    23164751.230
 11  8 11 20 48  0.0000000  0  8G24G17G26G04G07G08G28G11
 117517688.265 7  91572318.49544  22362859.773                    22362868.785
 110035152.853 8  85741786.652 7  20938978.078                    20938985.383
 121795316.583 7  94905523.07544  23176889.531                    23176899.266
 124284065.190 6  96844821.87943  23650469.188                    23650482.555
 118272004.592 7  92160022.266 6  22506422.594                    22506431.586
 107923255.159 8  84096157.55146  20537135.984                    20537144.113
 112175235.471 8  87409317.88046  21346232.555                    21346238.988
 121820381.085 6  94924840.86944  23181606.156                    23181613.430
 11  8 11 20 48 30.0000000  0  8G24G17G26G04G07G08G28G11
 117568583.402 7  91611977.02044  22372544.742                    22372554.027
 110011852.356 8  85723630.435 7  20934543.680                    20934551.059
 121843464.697 7  94943041.05444  23186051.438                    23186061.191
 124171018.660 6  96756733.99043  23628956.289                    23628970.422
 118370194.826 7  92236534.004 6  22525107.234                    22525117.063
 107979942.288 8  84140329.28746  20547923.820                    20547931.938
 112158496.569 8  87396274.56746  21343047.188                    21343053.457
 121909319.748 6  94994143.66343  23198530.031                    23198537.680
 11  8 11 20 49  0.0000000  0  8G24G17G26G04G07G08G28G11
 117619991.663 7  91652035.37344  22382327.430                    22382336.484
 109988895.716 8  85705742.162 7  20930175.125                    20930182.359
 121892041.091 7  94980892.72644  23195295.461                    23195305.473
 124058026.351 6  96668688.30743  23607454.852                    23607467.801
 118468679.961 7  92313275.508 7  22543848.594                    22543858.508
 108037180.521 8  84184930.45646  20558815.586                    20558823.426
 112141843.050 8  87383297.78646  21339878.063                    21339884.832
 121998583.203 6  95063699.54543  23215516.492                    23215524.523
 11  8 11 20 49 30.0000000  0  8G24G17G26G04G07G08G28G11
 117671911.666 7  91692492.49344  22392207.828                    22392216.332
 109966282.323 8  85688121.349 7  20925872.383                    20925879.488
 121941042.935 7  95019075.92444  23204620.344                    23204630.043
 123945091.349 7  96580687.31143  23585963.820                    23585976.563
 118567457.826 7  92390245.142 7  22562645.633                    22562655.105
 108094968.833 8  84229960.26446  20569812.063                    20569820.426
 112125276.042 8  87370388.42946  21336725.141                    21336732.328
 122088169.038 6  95133506.64043  23232563.977                    23232572.020
 11  8 11 20 50  0.0000000  0  8G24G17G26G04G07G08G28G11
 117724341.715 7  91733347.05944  22402184.305                    22402193.371
 109944011.093 8  85670767.168 7  20921633.555                    20921641.270
 121990467.688 7  95057588.65244  23214025.430                    23214035.621
 123832216.197 7  96492732.90344  23564484.883                    23564497.496
 118666526.066 7  92467441.034 6  22581497.852                    22581507.418
 108153305.749 8  84275417.54746  20580913.617                    20580922.004
 112108796.582 8  87357547.28446  21333589.586                    21333596.227
 122178074.514 6  95203562.77643  23249672.914                    23249680.754
 11  8 11 20 50 30.0000000  0  8G24G17G26G04G07G08G28G11
 117777280.157 7  91774597.78244  22412258.523                    22412267.504
 109922081.701 8  85653679.352 7  20917461.102                    20917468.520
 122040312.423 7  95096428.63944  23223509.891                    23223520.742
 123719403.818 6  96404827.43743  23543017.023                    23543029.324
 118765881.958 7  92544861.077 7  22600405.070                    22600414.281
 108212190.005 8  84321301.32146  20592118.914                    20592126.871
 112092405.568 8  87344775.05446  21330470.727                    21330476.973
 122268297.024 6  95273865.99343  23266841.102                    23266849.273
 11  8 11 20 51  0.0000000  0  8G24G17G26G04G07G08G28G11
 117830725.342 7  91816243.37044  22422428.844                    22422437.723
 109900492.686 8  85636856.762 8  20913353.117                    20913360.195
 122090574.267 7  95135593.63444  23233074.828                    23233085.676
 123606657.198 6  96316973.17243  23521562.102                    23521574.430
 118865523.261 7  92622503.517 7  22619366.047                    22619375.445
 108271620.479 8  84367610.72546  20603428.063                    20603436.230
 112076104.201 8  87332072.68146  21327368.344                    21327374.871
 122358834.167 6  95344414.37643  23284070.266                    23284077.676
 11  8 11 20 51 30.0000000  0  8G24G17G26G04G07G08G28G11
 117884675.256 7  91858282.25944  22432694.586                    22432704.098
 109879243.304 8  85620298.823 7  20909308.789                    20909316.379
 122141250.376 7  95175081.45244  23242718.328                    23242728.598
 123493978.860 7  96229172.15044  23500118.938                    23500132.152
 118965447.893 7  92700366.741 6  22638381.297                    22638390.063
 108331595.380 8  84414344.35546  20614840.945                    20614849.180
 112059893.133 8  87319440.67845  21324283.570                    21324289.848
 122449682.947 6  95415205.58843  23301358.352                    23301366.004
 11  8 11 20 52  0.0000000  0  8G24G17G26G04G07G08G28G11
 117939128.503 7  91900713.34344  22443057.180                    22443066.258
 109858333.065 8  85604005.145 7  20905329.906                    20905337.422
 122192338.015 7  95214889.93944  23252440.172                    23252450.313
 123381371.763 7  96141426.59543  23478691.227                    23478703.098
 119065653.277 7  92778448.744 6  22657449.773                    22657459.176
 108392113.488 8  84461501.26346  20626357.086                    20626365.754
 112043773.605 8  87306879.99546  21321216.250                    21321222.523
 122540840.963 6  95486237.74743  23318705.289                    23318712.828
 11  8 11 20 52 30.0000000  0  8G24G17G26G04G07G08G28G11
 117994083.560 7  91943535.44744  22453514.656                    22453523.500
 109837761.465 8  85587975.336 7  20901415.328                    20901422.344
 122243834.412 7  95255016.93844  23262240.125                    23262249.828
 123268838.943 6  96053738.89343  23457276.352                    23457288.383
 119166137.421 7  92856747.949 6  22676571.117                    22676580.863
 108453173.859 8  84509080.72246  20637976.750                    20637985.234
 112027746.451 8  87294391.30046  21318166.125                    21318173.027
 122632305.623 7  95557508.86343  23336110.445                    23336118.523
 11  8 11 20 53  0.0000000  0  8G24G17G26G04G07G08G28G11
 118049538.708 7  91986747.23644  22464067.469                    22464076.605
 109817527.476 8  85572208.601 7  20897564.867                    20897572.527
 122295737.259 7  95295460.66544  23272116.945                    23272126.527
 123156383.578 6  95966111.53043  23435875.969                    23435889.051
 119266898.092 7  92935262.625 7  22695745.531                    22695754.965
 108514775.620 8  84557082.03446  20649699.352                    20649707.301
 112011813.237 8  87281975.80046  21315134.398                    21315140.703
 122724074.508 6  95629017.02243  23353573.859                    23353581.094
